[[{"header":{"parameterUnit":"m.s-1","parameterCategory":1,"la1":31.0,"la2":29.5877,"lo1":-88.7671,"lo2":-86.6584,"dx":0.0162,"dy":0.0185,"nx":115,"ny":88,"refTime":"2022-11-29T06:00:00:Z","depth":0,"parameterNumber":2,"parameterNumberName":"U-component_of_WINDS"},"data":[0.0,0.0,0.0,0.0,0.0,0.0,0.0,0.0,0.0,0.0,0.0,0.0,0.0,0.0,0.0,0.0,0.0,0.0,0.0,0.0,0.0,0.0,0.0,0.0,0.0,0.0,0.0,0.0,0.0,0.0,0.0,0.0,0.0,0.0,0.0,0.0,0.0,0.0,0.0,0.0,0.0,0.0,0.0,0.0,0.0,0.0,0.0,0.0,0.0,0.0,0.0,0.0,0.0,0.0,0.0,0.0,0.0,0.0,0.0,0.0,0.0,0.0,0.0,0.0,0.0,0.0,0.0,0.0,0.0,0.0,0.0,0.0,0.0,0.0,0.0,0.0,0.0,0.0,0.0,0.0,0.0,0.0,0.0,0.0,0.0,0.0,0.0,0.0,0.0,0.0,0.0,0.0,0.0,0.0,0.0,0.0,0.0,0.0,0.0,0.0,0.0,0.0,0.0,0.0,0.0,0.0,0.0,0.0,0.0,0.0,0.0,0.0,0.0,0.0,0.0,0.0,0.0,0.0,0.0,0.0,0.0,0.0,0.0,0.0,0.0,0.0,0.0,0.0,0.0,0.0,0.0,0.0,0.0,0.0,0.0,0.0,0.0,0.0,0.0,0.0,0.0,0.0,0.0,0.0,0.0,0.0,0.0,0.0,0.0,0.0,0.0,0.0,0.0,0.0,0.0,0.0,0.0,0.0,0.0,0.0,0.0,0.0,0.0,0.0,0.0,0.0,0.0,0.0,0.0,0.0,0.0,0.0,0.0,0.0,0.0,0.0,0.0,0.0,0.0,0.0,0.0,0.0,0.0,0.0,0.0,0.0,0.0,0.0,0.0,0.0,0.0,0.0,0.0,0.0,0.0,0.0,0.0,0.0,0.0,0.0,0.0,0.0,0.0,0.0,0.0,0.0,0.0,0.0,0.0,0.0,0.0,0.0,0.0,0.0,0.0,0.0,0.0,0.0,0.0,0.0,0.0,0.0,0.0,0.0,0.0,0.0,0.0,0.0,0.0,0.0,0.0,0.0,0.0,0.0,0.0,0.0,0.0,0.0,0.0,0.0,0.0,0.0,0.0,0.0,0.0,0.0,0.0,0.0,0.0,0.0,0.0,0.0,0.0,0.0,0.0,0.0,0.0,0.0,0.0,0.0,0.0,0.0,0.0,0.0,0.0,0.0,0.0,0.0,0.0,0.0,0.0,0.0,0.0,0.0,0.0,0.0,0.0,0.0,0.0,0.0,0.0,0.0,0.0,0.0,0.0,0.0,0.0,0.0,0.0,0.0,0.0,0.0,0.0,0.0,0.0,0.0,0.0,0.0,0.0,0.0,0.0,0.0,0.0,0.0,0.0,0.0,0.0,0.0,0.0,0.0,0.0,0.0,0.0,0.0,0.0,0.0,0.0,0.0,0.0,0.0,0.0,0.0,0.0,0.0,0.0,0.0,0.0,0.0,0.0,0.0,0.0,0.0,0.0,0.0,0.0,0.0,0.0,0.0,0.0,0.0,0.0,0.0,0.0,0.0,0.0,0.0,0.0,0.0,0.0,0.0,0.0,0.0,0.0,0.0,0.0,0.0,0.0,0.0,0.0,0.0,0.0,0.0,0.0,0.0,0.0,0.0,0.0,0.0,0.0,0.0,0.0,0.0,0.0,0.0,0.0,0.0,0.0,0.0,0.0,0.0,0.0,0.0,0.0,0.0,0.0,0.0,0.0,0.0,0.0,0.0,0.0,0.0,0.0,0.0,0.0,0.0,0.0,0.0,0.0,0.0,0.0,0.0,0.0,0.0,0.0,0.0,0.0,0.0,0.0,0.0,0.0,0.0,0.0,0.0,0.0,0.0,0.0,0.0,0.0,0.0,0.0,0.0,0.0,0.0,0.0,0.0,0.0,0.0,0.0,0.0,0.0,0.0,0.0,0.0,0.0,0.0,0.0,0.0,0.0,0.0,0.0,0.0,0.0,0.0,0.0,0.0,0.0,0.0,0.0,0.0,0.0,0.0,0.0,0.0,0.0,0.0,0.0,0.0,0.0,0.0,0.0,0.0,0.0,0.0,0.0,0.0,0.0,0.0,0.0,0.0,0.0,0.0,0.0,0.0,0.0,0.0,0.0,0.0,0.0,0.0,0.0,0.0,0.0,0.0,0.0,0.0,0.0,0.0,0.0,0.0,0.0,0.0,0.0,0.0,0.0,0.0,0.0,0.0,0.0,0.0,0.0,0.0,0.0,0.0,0.0,0.0,0.0,0.0,0.0,0.0,0.0,0.0,0.0,0.0,0.0,0.0,0.0,0.0,0.0,0.0,0.0,0.0,0.0,0.0,0.0,0.0,0.0,0.0,0.0,0.0,0.0,0.0,0.0,0.0,0.0,0.0,0.0,0.0,0.0,0.0,0.0,0.0,0.0,0.0,0.0,0.0,0.0,0.0,0.0,0.0,0.0,0.0,0.0,0.0,0.0,0.0,0.0,0.0,0.0,0.0,0.0,0.0,0.0,0.0,0.0,0.0,0.0,0.0,0.0,0.0,0.0,0.0,0.0,0.0,0.0,0.0,0.0,0.0,0.0,0.0,0.0,0.0,0.0,0.0,0.0,0.0,0.0,0.0,0.0,0.0,0.0,0.0,0.0,0.0,0.0,0.0,0.0,0.0,0.0,0.0,0.0,0.0,0.0,0.0,0.0,0.0,0.0,0.0,0.0,0.0,0.0,0.0,0.0,0.0,0.0,0.0,0.0,0.0,0.0,0.0,0.0,0.0,0.0,0.0,0.0,0.0,0.0,0.0,0.0,0.0,0.0,0.0,0.0,0.0,0.0,0.0,0.0,0.0,0.0,0.0,0.0,0.0,0.0,0.0,0.0,0.0,0.0,0.0,0.0,0.0,0.0,0.0,0.0,0.0,0.0,0.0,0.0,0.0,0.0,0.0,0.0,0.0,0.0,0.0,0.0,0.0,0.0,0.0,0.0,0.0,0.0,0.0,0.0,0.0,0.0,0.0,0.0,0.0,0.0,0.0,0.0,0.0,0.0,0.0,0.0,0.0,0.0,0.0,0.0,0.0,0.0,0.0,0.0,0.0,0.0,0.0,0.0,0.0,0.0,0.0,0.0,0.0,0.0,0.0,0.0,0.0,0.0,0.0,0.0,0.0,0.0,0.0,0.0,0.0,0.0,0.0,0.0,0.0,0.0,0.0,0.0,0.0,0.0,0.0,0.0,0.0,0.0,0.0,0.0,0.0,0.0,0.0,0.0,0.0,0.0,0.0,0.0,0.0,0.0,0.0,0.0,0.0,0.0,0.0,0.0,0.0,0.0,0.0,0.0,0.0,0.0,0.0,0.0,0.0,0.0,0.0,0.0,0.0,0.0,0.0,0.0,0.0,0.0,0.0,0.0,0.0,0.0,0.0,0.0,0.0,0.0,0.0,0.0,0.0,0.0,0.0,0.0,0.0,0.0,0.0,0.0,0.0,0.0,0.0,0.0,0.0,0.0,0.0,0.0,0.0,0.0,0.0,0.0,0.0,0.0,0.0,0.0,0.0,0.0,0.0,0.0,0.0,0.0,0.0,0.0,0.0,0.0,0.0,0.0,0.0,0.0,0.0,0.0,0.0,0.0,0.0,0.0,0.0,0.0,0.0,0.0,0.0,0.0,0.0,0.0,0.0,0.0,0.0,0.0,0.0,0.0,0.0,0.0,0.0,0.0,0.0,0.0,0.0,0.0,0.0,0.0,0.0,0.0,0.0,0.0,0.0,0.0,0.0,0.0,0.0,0.0,0.0,0.0,0.0,0.0,0.0,0.0,0.0,0.0,0.0,0.0,0.0,0.0,0.0,0.0,0.0,0.0,0.0,0.0,0.0,0.0,0.0,0.0,0.0,0.0,0.0,0.0,0.0,0.0,0.0,0.0,0.0,0.0,0.0,0.0,0.0,0.0,0.0,0.0,0.0,0.0,0.0,0.0,0.0,0.0,0.0,0.0,0.0,0.0,0.0,0.0,0.0,0.0,0.0,0.0,0.0,0.0,0.0,0.0,0.0,0.0,0.0,0.0,0.0,0.0,0.0,0.0,0.0,0.0,0.0,0.0,0.0,0.0,0.0,0.0,0.0,0.0,0.0,0.0,0.0,0.0,0.0,0.0,0.0,0.0,0.0,0.0,0.0,0.0,0.0,0.0,0.0,0.0,0.0,0.0,0.0,0.0,0.0,0.0,0.0,0.0,0.0,0.0,0.0,0.0,0.0,0.0,0.0,0.0,0.0,0.0,0.0,-3.1208,0.0,0.0,0.0,-2.8205,0.0,0.0,0.0,0.0,0.0,0.0,0.0,0.0,0.0,0.0,0.0,0.0,0.0,0.0,0.0,0.0,0.0,0.0,0.0,0.0,0.0,0.0,0.0,0.0,0.0,0.0,0.0,0.0,0.0,0.0,0.0,0.0,0.0,0.0,0.0,0.0,0.0,0.0,0.0,0.0,0.0,0.0,0.0,0.0,0.0,0.0,0.0,0.0,0.0,0.0,0.0,0.0,0.0,0.0,0.0,0.0,0.0,0.0,0.0,0.0,0.0,0.0,0.0,0.0,0.0,0.0,0.0,0.0,0.0,0.0,0.0,0.0,0.0,0.0,0.0,0.0,0.0,0.0,0.0,0.0,0.0,0.0,0.0,0.0,0.0,0.0,0.0,0.0,0.0,0.0,0.0,0.0,0.0,0.0,0.0,0.0,0.0,0.0,0.0,0.0,0.0,0.0,0.0,0.0,0.0,0.0,0.0,0.0,0.0,0.0,-3.0644,-3.0554,-3.0131,-2.9467,-2.846,0.0,0.0,0.0,0.0,0.0,0.0,0.0,0.0,0.0,0.0,0.0,0.0,0.0,0.0,0.0,0.0,0.0,0.0,0.0,0.0,0.0,0.0,0.0,0.0,0.0,0.0,0.0,0.0,0.0,0.0,0.0,0.0,0.0,0.0,0.0,0.0,0.0,0.0,0.0,0.0,0.0,0.0,0.0,0.0,0.0,0.0,0.0,0.0,0.0,0.0,0.0,0.0,0.0,0.0,0.0,0.0,0.0,0.0,0.0,0.0,0.0,0.0,0.0,0.0,0.0,0.0,0.0,0.0,0.0,0.0,0.0,0.0,0.0,0.0,0.0,0.0,0.0,0.0,0.0,0.0,0.0,0.0,0.0,0.0,0.0,0.0,0.0,0.0,0.0,0.0,0.0,0.0,0.0,0.0,0.0,0.0,0.0,0.0,0.0,0.0,0.0,0.0,0.0,0.0,0.0,0.0,0.0,0.0,0.0,0.0,0.0,0.0,-3.0184,-2.9626,-2.8594,0.0,0.0,0.0,0.0,0.0,0.0,0.0,0.0,0.0,0.0,0.0,0.0,0.0,0.0,0.0,0.0,0.0,0.0,0.0,0.0,0.0,0.0,0.0,0.0,0.0,0.0,0.0,0.0,0.0,0.0,0.0,0.0,0.0,0.0,0.0,0.0,0.0,0.0,0.0,0.0,0.0,0.0,0.0,0.0,0.0,0.0,0.0,0.0,0.0,0.0,0.0,0.0,0.0,0.0,0.0,0.0,0.0,0.0,0.0,0.0,0.0,0.0,0.0,0.0,0.0,0.0,0.0,0.0,0.0,0.0,0.0,0.0,0.0,0.0,0.0,0.0,0.0,0.0,0.0,0.0,0.0,0.0,0.0,0.0,0.0,0.0,0.0,0.0,0.0,0.0,0.0,0.0,0.0,0.0,0.0,0.0,0.0,0.0,0.0,0.0,0.0,0.0,0.0,0.0,0.0,0.0,0.0,0.0,0.0,0.0,-2.9735,-3.0606,-3.0291,0.0,-2.8245,0.0,0.0,0.0,0.0,0.0,0.0,0.0,0.0,0.0,0.0,0.0,0.0,0.0,0.0,0.0,0.0,0.0,0.0,0.0,0.0,0.0,0.0,0.0,0.0,0.0,0.0,0.0,0.0,0.0,0.0,0.0,0.0,0.0,0.0,0.0,0.0,0.0,0.0,0.0,0.0,0.0,0.0,0.0,0.0,0.0,0.0,0.0,0.0,0.0,0.0,0.0,0.0,0.0,0.0,0.0,0.0,0.0,0.0,0.0,0.0,0.0,0.0,0.0,0.0,0.0,0.0,0.0,0.0,0.0,0.0,0.0,0.0,0.0,0.0,0.0,0.0,0.0,0.0,0.0,0.0,0.0,0.0,0.0,0.0,0.0,0.0,0.0,0.0,0.0,0.0,0.0,0.0,0.0,0.0,0.0,0.0,0.0,0.0,0.0,0.0,0.0,0.0,0.0,0.0,0.0,0.0,0.0,0.0,0.0,0.0,-2.9361,-3.0139,-2.9353,-2.8685,0.0,0.0,0.0,0.0,0.0,0.0,0.0,0.0,0.0,0.0,0.0,0.0,0.0,0.0,0.0,0.0,0.0,0.0,0.0,0.0,0.0,0.0,0.0,0.0,0.0,0.0,0.0,0.0,0.0,0.0,0.0,0.0,0.0,0.0,0.0,0.0,0.0,0.0,0.0,0.0,0.0,0.0,0.0,0.0,0.0,0.0,0.0,0.0,0.0,0.0,0.0,0.0,0.0,0.0,0.0,0.0,0.0,0.0,0.0,0.0,0.0,0.0,0.0,0.0,0.0,0.0,0.0,0.0,0.0,0.0,0.0,0.0,0.0,0.0,0.0,0.0,0.0,0.0,0.0,0.0,0.0,0.0,0.0,0.0,0.0,0.0,0.0,0.0,0.0,0.0,0.0,0.0,0.0,0.0,0.0,0.0,0.0,0.0,0.0,0.0,0.0,0.0,0.0,0.0,0.0,0.0,0.0,0.0,0.0,0.0,-2.9099,-2.9204,-2.9692,-2.8699,-2.8122,-2.8097,0.0,0.0,0.0,0.0,0.0,0.0,0.0,0.0,0.0,0.0,0.0,0.0,0.0,0.0,0.0,0.0,0.0,0.0,0.0,0.0,0.0,0.0,0.0,0.0,0.0,0.0,0.0,0.0,0.0,0.0,0.0,0.0,0.0,0.0,0.0,0.0,0.0,0.0,0.0,0.0,0.0,0.0,0.0,0.0,0.0,0.0,0.0,0.0,0.0,0.0,0.0,0.0,0.0,0.0,0.0,0.0,0.0,0.0,0.0,0.0,0.0,0.0,0.0,0.0,0.0,0.0,0.0,0.0,0.0,0.0,0.0,0.0,0.0,0.0,0.0,0.0,0.0,0.0,0.0,0.0,0.0,0.0,0.0,0.0,0.0,0.0,0.0,0.0,0.0,0.0,0.0,0.0,0.0,0.0,0.0,0.0,0.0,0.0,0.0,0.0,0.0,0.0,0.0,0.0,0.0,0.0,0.0,0.0,-2.9369,-2.9066,-2.9204,-2.9767,-2.8699,-2.8122,0.0,0.0,0.0,0.0,0.0,0.0,0.0,0.0,0.0,0.0,0.0,0.0,0.0,0.0,0.0,0.0,0.0,0.0,0.0,0.0,0.0,0.0,0.0,0.0,0.0,0.0,0.0,0.0,0.0,0.0,0.0,0.0,0.0,0.0,0.0,0.0,0.0,0.0,0.0,0.0,0.0,0.0,0.0,0.0,0.0,0.0,0.0,0.0,0.0,0.0,0.0,0.0,0.0,0.0,0.0,0.0,0.0,0.0,0.0,0.0,0.0,0.0,0.0,0.0,0.0,0.0,0.0,0.0,0.0,0.0,0.0,0.0,0.0,0.0,0.0,0.0,0.0,0.0,0.0,0.0,0.0,0.0,0.0,0.0,0.0,0.0,0.0,0.0,0.0,0.0,0.0,0.0,0.0,0.0,0.0,0.0,0.0,0.0,0.0,0.0,0.0,0.0,0.0,0.0,0.0,0.0,0.0,0.0,0.0,-2.9916,-2.9777,-2.9516,-2.9227,-2.8499,-2.7946,0.0,0.0,0.0,0.0,0.0,0.0,0.0,0.0,0.0,0.0,0.0,0.0,0.0,0.0,0.0,0.0,0.0,0.0,0.0,0.0,0.0,0.0,0.0,0.0,0.0,0.0,0.0,0.0,0.0,0.0,0.0,0.0,0.0,0.0,0.0,0.0,0.0,0.0,0.0,0.0,0.0,0.0,0.0,0.0,0.0,0.0,0.0,0.0,0.0,0.0,0.0,0.0,0.0,0.0,0.0,0.0,0.0,0.0,0.0,0.0,0.0,0.0,0.0,0.0,0.0,0.0,0.0,0.0,0.0,0.0,0.0,0.0,0.0,0.0,0.0,0.0,0.0,0.0,0.0,0.0,0.0,0.0,0.0,0.0,0.0,0.0,0.0,0.0,0.0,0.0,0.0,0.0,0.0,0.0,0.0,0.0,0.0,0.0,0.0,0.0,0.0,0.0,0.0,0.0,0.0,0.0,0.0,0.0,0.0,-2.9931,-2.998,-2.9745,-2.9202,-2.8499,-2.7946,0.0,0.0,0.0,0.0,0.0,0.0,0.0,0.0,0.0,0.0,0.0,0.0,0.0,0.0,0.0,0.0,0.0,0.0,0.0,0.0,0.0,0.0,0.0,0.0,0.0,0.0,0.0,0.0,0.0,0.0,0.0,0.0,0.0,0.0,0.0,0.0,0.0,0.0,0.0,0.0,0.0,0.0,0.0,0.0,0.0,0.0,0.0,0.0,0.0,0.0,0.0,0.0,0.0,0.0,0.0,0.0,0.0,0.0,0.0,0.0,0.0,0.0,0.0,0.0,0.0,0.0,0.0,0.0,0.0,0.0,0.0,0.0,0.0,0.0,0.0,0.0,0.0,0.0,0.0,0.0,0.0,0.0,0.0,0.0,0.0,0.0,0.0,0.0,0.0,0.0,0.0,0.0,0.0,0.0,0.0,0.0,0.0,0.0,0.0,0.0,0.0,0.0,0.0,0.0,0.0,0.0,0.0,0.0,-2.9395,-2.9434,-2.9731,-2.9869,-2.9793,-2.875,-2.8122,0.0,0.0,0.0,0.0,0.0,0.0,0.0,0.0,0.0,0.0,0.0,0.0,0.0,0.0,0.0,0.0,0.0,0.0,0.0,0.0,0.0,0.0,0.0,0.0,0.0,0.0,0.0,0.0,0.0,0.0,0.0,0.0,0.0,0.0,0.0,0.0,0.0,0.0,0.0,0.0,0.0,0.0,0.0,0.0,0.0,0.0,0.0,0.0,0.0,0.0,0.0,0.0,0.0,0.0,0.0,0.0,0.0,0.0,0.0,0.0,0.0,0.0,0.0,0.0,0.0,0.0,0.0,0.0,0.0,0.0,0.0,0.0,0.0,0.0,0.0,0.0,0.0,0.0,0.0,0.0,0.0,0.0,0.0,0.0,0.0,0.0,0.0,0.0,0.0,0.0,0.0,0.0,0.0,0.0,0.0,0.0,0.0,0.0,0.0,0.0,0.0,0.0,0.0,0.0,0.0,0.0,0.0,0.0,0.0,-3.0582,-3.1124,-3.1071,-3.0357,-2.9654,-2.89,0.0,0.0,0.0,0.0,0.0,0.0,0.0,0.0,0.0,0.0,0.0,0.0,0.0,0.0,0.0,0.0,0.0,0.0,0.0,0.0,0.0,0.0,0.0,0.0,0.0,0.0,0.0,0.0,0.0,0.0,0.0,0.0,0.0,0.0,0.0,0.0,0.0,0.0,0.0,0.0,0.0,0.0,0.0,0.0,0.0,0.0,0.0,0.0,0.0,0.0,0.0,0.0,0.0,0.0,0.0,0.0,0.0,0.0,0.0,0.0,0.0,0.0,0.0,0.0,0.0,0.0,0.0,0.0,0.0,0.0,0.0,0.0,0.0,0.0,0.0,0.0,0.0,0.0,0.0,0.0,0.0,0.0,0.0,0.0,0.0,0.0,0.0,0.0,0.0,0.0,0.0,0.0,0.0,0.0,0.0,0.0,0.0,0.0,0.0,0.0,0.0,0.0,0.0,0.0,0.0,0.0,0.0,0.0,0.0,-3.2384,-3.2621,-3.2485,-3.1838,-3.1191,-3.0298,-2.9189,0.0,0.0,0.0,0.0,0.0,0.0,0.0,0.0,0.0,0.0,0.0,0.0,0.0,0.0,0.0,0.0,0.0,0.0,0.0,0.0,0.0,0.0,0.0,0.0,0.0,0.0,0.0,0.0,0.0,0.0,0.0,0.0,0.0,0.0,0.0,0.0,0.0,0.0,0.0,0.0,0.0,0.0,0.0,0.0,0.0,0.0,0.0,0.0,0.0,0.0,0.0,0.0,0.0,0.0,0.0,0.0,0.0,0.0,0.0,0.0,0.0,0.0,0.0,0.0,0.0,0.0,0.0,0.0,0.0,0.0,0.0,0.0,0.0,0.0,0.0,0.0,0.0,0.0,0.0,0.0,0.0,0.0,0.0,0.0,0.0,0.0,0.0,0.0,0.0,0.0,0.0,0.0,0.0,0.0,0.0,0.0,0.0,0.0,0.0,0.0,0.0,0.0,0.0,0.0,0.0,0.0,0.0,0.0,-3.4696,-3.4427,-3.4229,-3.4042,-3.3174,-3.2143,0.0,0.0,0.0,0.0,0.0,0.0,0.0,0.0,0.0,0.0,0.0,0.0,0.0,0.0,0.0,0.0,0.0,0.0,0.0,0.0,0.0,0.0,0.0,0.0,0.0,0.0,0.0,0.0,0.0,0.0,0.0,0.0,0.0,0.0,0.0,0.0,0.0,0.0,0.0,0.0,0.0,0.0,0.0,0.0,0.0,0.0,0.0,0.0,0.0,0.0,0.0,0.0,0.0,0.0,0.0,0.0,0.0,0.0,0.0,0.0,0.0,0.0,0.0,0.0,0.0,0.0,0.0,0.0,0.0,0.0,0.0,0.0,0.0,0.0,0.0,0.0,0.0,0.0,0.0,0.0,0.0,0.0,0.0,0.0,0.0,0.0,0.0,0.0,0.0,0.0,0.0,0.0,0.0,0.0,0.0,0.0,0.0,0.0,0.0,0.0,0.0,0.0,0.0,0.0,0.0,0.0,0.0,0.0,0.0,-3.7264,-3.7693,-3.7143,-3.578,-3.4496,-3.3462,0.0,0.0,0.0,0.0,0.0,0.0,0.0,0.0,0.0,0.0,0.0,0.0,0.0,0.0,0.0,0.0,0.0,0.0,0.0,0.0,0.0,0.0,0.0,0.0,0.0,0.0,0.0,0.0,0.0,0.0,0.0,0.0,0.0,0.0,0.0,0.0,0.0,0.0,0.0,0.0,0.0,0.0,0.0,0.0,0.0,0.0,0.0,0.0,0.0,0.0,0.0,0.0,0.0,0.0,0.0,0.0,0.0,0.0,0.0,0.0,0.0,0.0,0.0,0.0,0.0,0.0,0.0,0.0,0.0,0.0,0.0,0.0,0.0,0.0,0.0,0.0,0.0,0.0,0.0,0.0,0.0,0.0,0.0,0.0,0.0,0.0,0.0,0.0,0.0,0.0,0.0,0.0,0.0,0.0,0.0,0.0,0.0,0.0,0.0,0.0,0.0,0.0,0.0,0.0,0.0,0.0,0.0,0.0,-3.6257,-3.8162,-3.9449,-3.9548,-3.8517,-3.6893,-3.5672,0.0,0.0,0.0,0.0,0.0,0.0,0.0,0.0,0.0,0.0,0.0,0.0,0.0,0.0,0.0,0.0,0.0,0.0,0.0,0.0,0.0,0.0,0.0,0.0,0.0,0.0,0.0,0.0,0.0,0.0,0.0,0.0,0.0,0.0,0.0,0.0,0.0,0.0,0.0,0.0,0.0,0.0,0.0,0.0,0.0,0.0,0.0,0.0,0.0,0.0,0.0,0.0,0.0,0.0,0.0,0.0,0.0,0.0,0.0,0.0,0.0,0.0,0.0,0.0,0.0,0.0,0.0,0.0,0.0,0.0,0.0,0.0,0.0,0.0,0.0,0.0,0.0,0.0,0.0,0.0,0.0,0.0,0.0,0.0,0.0,0.0,0.0,0.0,0.0,0.0,0.0,0.0,0.0,0.0,0.0,0.0,0.0,0.0,0.0,0.0,0.0,0.0,0.0,0.0,0.0,0.0,0.0,0.0,-3.7184,-3.8341,-4.0375,-4.1455,-4.143,-3.9652,-3.8082,0.0,0.0,0.0,0.0,0.0,0.0,0.0,0.0,0.0,0.0,0.0,0.0,0.0,0.0,0.0,0.0,0.0,0.0,0.0,0.0,0.0,0.0,0.0,0.0,0.0,0.0,0.0,0.0,0.0,0.0,0.0,0.0,0.0,0.0,0.0,0.0,0.0,0.0,0.0,0.0,0.0,0.0,0.0,0.0,0.0,0.0,0.0,0.0,0.0,0.0,0.0,0.0,0.0,0.0,0.0,0.0,0.0,0.0,0.0,0.0,0.0,0.0,0.0,0.0,0.0,0.0,0.0,0.0,0.0,0.0,0.0,0.0,0.0,0.0,0.0,0.0,0.0,0.0,0.0,0.0,0.0,0.0,0.0,0.0,0.0,0.0,0.0,0.0,0.0,0.0,0.0,0.0,0.0,0.0,0.0,0.0,0.0,0.0,0.0,0.0,0.0,0.0,0.0,0.0,0.0,0.0,0.0,0.0,-3.8617,-4.0548,-4.1505,-4.2183,-4.261,-3.9955,-3.8403,0.0,0.0,0.0,0.0,0.0,0.0,0.0,0.0,0.0,0.0,0.0,0.0,0.0,0.0,0.0,0.0,0.0,0.0,0.0,0.0,0.0,0.0,0.0,0.0,0.0,0.0,0.0,0.0,0.0,0.0,0.0,0.0,0.0,0.0,0.0,0.0,0.0,0.0,0.0,0.0,0.0,0.0,0.0,0.0,0.0,0.0,0.0,0.0,-3.3144,0.0,0.0,0.0,0.0,0.0,0.0,0.0,0.0,0.0,0.0,0.0,0.0,0.0,0.0,0.0,0.0,0.0,0.0,0.0,0.0,0.0,0.0,0.0,0.0,0.0,0.0,0.0,0.0,0.0,0.0,0.0,0.0,0.0,0.0,0.0,0.0,0.0,0.0,0.0,0.0,0.0,0.0,0.0,0.0,0.0,0.0,0.0,0.0,0.0,0.0,0.0,0.0,0.0,0.0,0.0,0.0,0.0,0.0,0.0,-3.9448,-4.1225,-4.2133,-4.274,-4.2886,-4.0883,-3.9601,0.0,0.0,0.0,0.0,0.0,0.0,0.0,0.0,0.0,0.0,0.0,0.0,0.0,0.0,0.0,0.0,0.0,0.0,0.0,0.0,0.0,0.0,0.0,0.0,0.0,0.0,0.0,0.0,0.0,0.0,0.0,0.0,0.0,0.0,0.0,0.0,0.0,0.0,0.0,0.0,0.0,0.0,0.0,0.0,0.0,0.0,0.0,0.0,0.0,0.0,0.0,0.0,0.0,0.0,0.0,0.0,0.0,0.0,0.0,0.0,0.0,0.0,0.0,0.0,0.0,0.0,0.0,0.0,0.0,0.0,0.0,0.0,0.0,0.0,0.0,0.0,0.0,0.0,0.0,0.0,0.0,0.0,0.0,0.0,0.0,0.0,0.0,0.0,0.0,0.0,0.0,0.0,0.0,0.0,0.0,0.0,0.0,0.0,0.0,0.0,0.0,0.0,0.0,0.0,0.0,0.0,0.0,-3.8477,-4.0029,-4.153,-4.2509,-4.2986,-4.2961,-4.2062,-4.1045,-4.0124,0.0,0.0,0.0,0.0,0.0,0.0,0.0,0.0,0.0,0.0,0.0,0.0,0.0,0.0,0.0,0.0,0.0,0.0,0.0,0.0,0.0,0.0,0.0,0.0,0.0,0.0,0.0,0.0,0.0,0.0,0.0,0.0,0.0,0.0,0.0,0.0,0.0,0.0,-3.3997,-3.455,0.0,0.0,0.0,0.0,0.0,0.0,0.0,0.0,-3.4449,0.0,0.0,0.0,0.0,0.0,0.0,0.0,0.0,0.0,0.0,0.0,0.0,0.0,0.0,0.0,0.0,0.0,0.0,0.0,0.0,0.0,0.0,0.0,0.0,0.0,0.0,0.0,0.0,0.0,0.0,0.0,0.0,0.0,0.0,0.0,0.0,0.0,0.0,0.0,0.0,0.0,0.0,0.0,0.0,0.0,0.0,0.0,0.0,0.0,0.0,0.0,0.0,0.0,0.0,0.0,0.0,-3.8397,-3.9416,-4.0839,-4.2635,-4.2886,-4.2986,-4.2961,-4.2578,-4.1921,-4.0917,0.0,0.0,0.0,0.0,0.0,0.0,0.0,0.0,0.0,0.0,0.0,0.0,0.0,0.0,0.0,0.0,0.0,0.0,0.0,0.0,0.0,0.0,0.0,0.0,0.0,0.0,0.0,0.0,0.0,0.0,0.0,0.0,0.0,0.0,0.0,0.0,0.0,0.0,0.0,-3.5307,-3.5533,0.0,0.0,0.0,0.0,0.0,0.0,0.0,0.0,-3.4901,0.0,0.0,0.0,0.0,0.0,0.0,0.0,0.0,0.0,0.0,0.0,0.0,0.0,0.0,0.0,0.0,0.0,0.0,0.0,0.0,0.0,0.0,0.0,0.0,0.0,0.0,0.0,0.0,0.0,0.0,0.0,0.0,0.0,0.0,0.0,0.0,0.0,0.0,0.0,0.0,0.0,0.0,0.0,0.0,0.0,0.0,0.0,0.0,0.0,0.0,0.0,0.0,0.0,0.0,0.0,-3.9616,-4.0799,-4.2153,-4.3765,-4.384,-4.3689,-4.3413,-4.325,-4.2622,0.0,0.0,0.0,0.0,0.0,0.0,0.0,0.0,0.0,0.0,0.0,0.0,0.0,0.0,0.0,0.0,0.0,0.0,0.0,0.0,0.0,0.0,0.0,0.0,0.0,0.0,0.0,0.0,0.0,0.0,0.0,0.0,0.0,0.0,0.0,0.0,0.0,0.0,0.0,0.0,-3.6458,-3.7036,-3.7588,0.0,0.0,0.0,0.0,0.0,0.0,-3.6358,-3.6081,0.0,0.0,0.0,0.0,0.0,0.0,0.0,0.0,0.0,0.0,0.0,0.0,0.0,0.0,0.0,0.0,0.0,0.0,0.0,0.0,0.0,0.0,0.0,0.0,0.0,0.0,0.0,0.0,0.0,0.0,0.0,0.0,0.0,0.0,0.0,0.0,0.0,0.0,0.0,0.0,0.0,0.0,0.0,0.0,0.0,0.0,0.0,0.0,0.0,0.0,0.0,0.0,0.0,0.0,0.0,-4.0736,-4.1901,-4.3159,-4.4518,-4.4618,-4.4418,-4.3966,-4.3771,-4.3095,0.0,0.0,0.0,0.0,0.0,0.0,0.0,0.0,0.0,0.0,0.0,0.0,0.0,0.0,0.0,0.0,0.0,0.0,0.0,0.0,0.0,0.0,0.0,0.0,0.0,0.0,0.0,0.0,0.0,0.0,0.0,0.0,0.0,0.0,0.0,0.0,0.0,0.0,0.0,0.0,0.0,-3.8592,-3.927,-3.8417,0.0,0.0,0.0,0.0,-3.7688,-3.7789,0.0,0.0,0.0,0.0,0.0,0.0,0.0,0.0,0.0,0.0,0.0,0.0,0.0,0.0,0.0,0.0,0.0,0.0,0.0,0.0,0.0,0.0,0.0,0.0,0.0,0.0,0.0,0.0,0.0,0.0,0.0,0.0,0.0,0.0,0.0,0.0,0.0,0.0,0.0,0.0,0.0,0.0,0.0,0.0,0.0,0.0,0.0,0.0,0.0,0.0,0.0,0.0,0.0,0.0,0.0,0.0,-4.1459,-4.2185,-4.3159,-4.4518,-4.4618,-4.4593,-4.4518,-4.384,-4.3152,0.0,0.0,0.0,0.0,0.0,0.0,0.0,0.0,0.0,0.0,0.0,0.0,0.0,0.0,0.0,0.0,0.0,0.0,0.0,0.0,0.0,0.0,0.0,0.0,0.0,0.0,0.0,0.0,0.0,0.0,0.0,0.0,0.0,0.0,0.0,0.0,0.0,0.0,0.0,0.0,0.0,-3.9873,-4.0849,-4.0124,-3.9195,0.0,0.0,-3.9396,-3.9396,-3.9823,0.0,0.0,0.0,0.0,0.0,0.0,0.0,0.0,0.0,0.0,0.0,0.0,0.0,0.0,0.0,0.0,0.0,0.0,0.0,0.0,0.0,0.0,0.0,0.0,0.0,0.0,0.0,0.0,0.0,0.0,0.0,0.0,0.0,0.0,0.0,0.0,0.0,0.0,0.0,0.0,0.0,0.0,0.0,0.0,0.0,0.0,0.0,0.0,0.0,0.0,0.0,0.0,0.0,0.0,0.0,-4.0006,-4.2342,-4.3396,-4.4503,-4.5522,-4.5573,-4.5422,-4.5121,-4.4442,-4.3676,0.0,0.0,0.0,0.0,0.0,0.0,0.0,0.0,0.0,0.0,0.0,0.0,0.0,0.0,0.0,0.0,0.0,0.0,0.0,0.0,0.0,0.0,0.0,0.0,0.0,0.0,0.0,0.0,0.0,0.0,0.0,0.0,0.0,0.0,0.0,0.0,0.0,0.0,0.0,0.0,0.0,0.0,-4.1656,-4.1404,0.0,0.0,0.0,-4.0978,-4.0676,0.0,0.0,0.0,0.0,0.0,0.0,0.0,0.0,0.0,0.0,0.0,0.0,0.0,0.0,0.0,0.0,0.0,0.0,0.0,0.0,0.0,0.0,0.0,0.0,0.0,0.0,0.0,0.0,0.0,0.0,0.0,0.0,0.0,0.0,0.0,0.0,0.0,0.0,0.0,0.0,0.0,0.0,0.0,0.0,0.0,0.0,0.0,0.0,0.0,0.0,0.0,0.0,0.0,0.0,0.0,0.0,0.0,-4.3078,-4.4432,-4.5489,-4.6276,-4.6326,-4.61,-4.5673,-4.5063,0.0,0.0,0.0,0.0,0.0,0.0,0.0,0.0,0.0,0.0,0.0,0.0,0.0,0.0,0.0,0.0,0.0,0.0,0.0,0.0,0.0,0.0,0.0,0.0,0.0,0.0,0.0,-2.8747,0.0,0.0,0.0,0.0,0.0,0.0,0.0,0.0,0.0,0.0,0.0,0.0,0.0,0.0,-4.1329,-4.2464,-4.274,-4.2841,0.0,0.0,-4.2635,-4.2233,-4.2986,-4.2911,0.0,0.0,0.0,0.0,0.0,0.0,0.0,0.0,0.0,0.0,0.0,0.0,0.0,0.0,0.0,0.0,0.0,0.0,0.0,0.0,0.0,0.0,0.0,0.0,0.0,0.0,0.0,0.0,0.0,0.0,0.0,0.0,0.0,0.0,0.0,0.0,0.0,0.0,0.0,0.0,0.0,0.0,0.0,0.0,0.0,0.0,0.0,0.0,0.0,0.0,0.0,0.0,0.0,0.0,-4.1039,-4.3637,-4.4638,-4.5464,-4.625,-4.6326,-4.6301,-4.6225,-4.5482,-4.4642,0.0,0.0,0.0,0.0,0.0,0.0,0.0,0.0,0.0,0.0,0.0,0.0,0.0,0.0,0.0,0.0,0.0,0.0,0.0,0.0,0.0,0.0,0.0,0.0,0.0,0.0,0.0,0.0,0.0,0.0,0.0,0.0,0.0,0.0,0.0,0.0,0.0,0.0,0.0,0.0,0.0,-4.2434,-4.3539,-4.4141,-4.4468,0.0,0.0,-4.4443,-4.4392,-4.492,-4.4744,-4.3011,0.0,0.0,0.0,0.0,0.0,0.0,0.0,0.0,0.0,0.0,0.0,0.0,0.0,0.0,0.0,0.0,0.0,0.0,0.0,0.0,0.0,0.0,0.0,0.0,0.0,0.0,0.0,0.0,0.0,0.0,0.0,0.0,0.0,0.0,0.0,0.0,0.0,0.0,0.0,0.0,0.0,0.0,0.0,0.0,0.0,0.0,0.0,0.0,0.0,0.0,0.0,0.0,0.0,-4.1197,-4.3737,-4.4843,-4.5577,-4.6045,-4.6245,-4.6326,-4.6326,-4.5534,-4.4822,0.0,0.0,0.0,0.0,0.0,0.0,0.0,0.0,0.0,0.0,0.0,0.0,0.0,0.0,0.0,0.0,0.0,0.0,0.0,0.0,0.0,0.0,0.0,0.0,0.0,0.0,0.0,0.0,-3.4614,-3.5127,-3.5182,0.0,0.0,0.0,0.0,0.0,0.0,0.0,0.0,0.0,0.0,-4.3564,-4.4694,-4.5598,0.0,0.0,-4.6115,-4.605,-4.5723,-4.5849,-4.5422,-4.3765,-4.2108,0.0,0.0,0.0,0.0,0.0,0.0,0.0,0.0,0.0,0.0,0.0,0.0,0.0,0.0,0.0,0.0,0.0,0.0,0.0,0.0,0.0,0.0,0.0,0.0,0.0,0.0,0.0,0.0,0.0,0.0,0.0,0.0,0.0,0.0,0.0,0.0,0.0,0.0,0.0,0.0,0.0,0.0,0.0,0.0,0.0,0.0,0.0,0.0,0.0,0.0,0.0,0.0,-4.1351,-4.3904,-4.4981,-4.5668,-4.5994,-4.622,-4.6326,-4.6276,-4.5635,-4.5256,0.0,0.0,0.0,0.0,0.0,0.0,0.0,0.0,0.0,0.0,0.0,0.0,0.0,0.0,0.0,0.0,0.0,0.0,0.0,0.0,0.0,0.0,0.0,0.0,0.0,0.0,0.0,0.0,-3.6096,-3.6081,-3.5332,0.0,0.0,0.0,0.0,0.0,0.0,0.0,0.0,0.0,0.0,-4.4719,-4.5824,-4.6778,-4.7305,-4.7154,-4.7068,-4.6892,-4.6401,-4.6326,-4.5849,-4.4518,0.0,0.0,0.0,0.0,0.0,0.0,0.0,0.0,0.0,0.0,0.0,0.0,0.0,0.0,0.0,0.0,0.0,0.0,0.0,0.0,0.0,0.0,0.0,0.0,0.0,0.0,0.0,0.0,0.0,0.0,-3.6417,0.0,0.0,0.0,0.0,0.0,0.0,0.0,0.0,0.0,0.0,0.0,0.0,0.0,0.0,0.0,0.0,0.0,0.0,0.0,0.0,0.0,0.0,-4.1453,-4.4148,-4.5028,-4.573,-4.6285,-4.6301,-4.6361,-4.6361,-4.6079,-4.6228,-4.6894,0.0,0.0,0.0,0.0,0.0,0.0,0.0,0.0,0.0,0.0,0.0,0.0,0.0,0.0,0.0,0.0,0.0,0.0,0.0,0.0,0.0,0.0,0.0,0.0,0.0,0.0,-3.5232,-3.5894,-3.5981,0.0,0.0,0.0,0.0,0.0,0.0,0.0,0.0,0.0,0.0,-4.4367,-4.5849,-4.6954,-4.7556,-4.7757,-4.7218,-4.7118,-4.6979,-4.6451,-4.6351,-4.6125,0.0,0.0,0.0,0.0,0.0,0.0,0.0,0.0,0.0,0.0,0.0,0.0,0.0,0.0,0.0,0.0,0.0,0.0,0.0,0.0,0.0,0.0,0.0,0.0,0.0,0.0,0.0,-4.0876,-4.0008,0.0,0.0,0.0,0.0,0.0,0.0,0.0,0.0,0.0,0.0,0.0,-4.7549,-4.695,0.0,0.0,0.0,0.0,0.0,0.0,0.0,0.0,0.0,0.0,0.0,0.0,-4.1838,-4.3859,-4.4981,-4.5668,-4.6079,-4.7177,-4.7769,-4.7743,-4.8462,-4.8301,-4.712,0.0,0.0,0.0,0.0,0.0,0.0,0.0,0.0,0.0,0.0,0.0,0.0,0.0,0.0,0.0,0.0,0.0,0.0,0.0,0.0,0.0,0.0,0.0,0.0,0.0,-3.8004,0.0,0.0,0.0,0.0,0.0,0.0,0.0,0.0,0.0,0.0,0.0,-4.1986,-4.4342,-4.5773,-4.6979,-4.8083,-4.8686,-4.9088,0.0,0.0,0.0,0.0,0.0,0.0,0.0,0.0,0.0,0.0,0.0,0.0,0.0,0.0,-4.2007,-3.9746,-3.9546,-3.9546,-3.9144,0.0,0.0,0.0,0.0,0.0,0.0,0.0,0.0,0.0,0.0,0.0,0.0,0.0,0.0,-4.4107,0.0,-4.2641,0.0,0.0,0.0,0.0,0.0,0.0,0.0,0.0,-4.8117,-4.9613,-5.0647,-5.0182,-5.0002,0.0,-4.8177,-4.5903,0.0,0.0,0.0,0.0,0.0,0.0,0.0,0.0,-4.2343,-4.4085,-4.5145,-4.5994,-4.6534,-4.7922,-4.882,-4.9137,-5.0381,-5.02,-4.8395,-4.7526,-4.5616,0.0,0.0,0.0,0.0,0.0,0.0,0.0,0.0,0.0,0.0,0.0,0.0,0.0,0.0,0.0,0.0,0.0,0.0,0.0,0.0,0.0,0.0,0.0,-4.0067,0.0,0.0,0.0,0.0,0.0,0.0,0.0,0.0,0.0,-4.0402,-4.2057,-4.4123,-4.6075,-4.728,-4.8259,-4.8962,0.0,0.0,0.0,0.0,0.0,0.0,0.0,-4.8335,-4.7832,-4.7456,-4.7255,-4.7431,-4.7305,-4.7179,-4.7154,0.0,0.0,-4.3582,-4.3363,-4.3413,-4.2886,-4.288,-4.3162,-4.3539,-4.3651,-4.3879,0.0,0.0,0.0,0.0,0.0,0.0,0.0,0.0,-4.7459,-4.71,0.0,-4.6369,0.0,0.0,0.0,0.0,0.0,-4.5484,0.0,0.0,-5.2546,-5.3832,-5.3234,-5.3253,-5.3204,-5.3133,-5.069,-4.9793,-5.0076,-4.713,0.0,0.0,0.0,0.0,0.0,0.0,-4.3155,-4.4943,-4.5868,-4.6756,-4.7876,-4.8779,-4.9646,-5.0545,-5.192,-5.2054,-5.0768,-4.9563,-4.8048,-4.6135,-4.2988,0.0,0.0,0.0,0.0,0.0,0.0,0.0,0.0,0.0,0.0,0.0,0.0,0.0,0.0,0.0,0.0,0.0,0.0,0.0,0.0,-4.2482,0.0,0.0,0.0,0.0,0.0,0.0,0.0,0.0,0.0,0.0,-4.3212,-4.4543,-4.6125,-4.7732,0.0,0.0,0.0,0.0,-5.087,-4.9866,-5.0117,-5.0268,-4.9741,-4.964,-4.9816,-5.0293,0.0,0.0,-4.9766,-4.9238,-4.8937,-4.8912,-4.9766,-4.9665,-4.7029,-4.6527,-4.6326,-4.5849,-4.6125,-4.6451,-4.6502,-4.6878,-4.7319,-4.9794,0.0,0.0,0.0,0.0,-4.8401,-4.9359,-5.0122,-5.0601,-5.0451,-4.9793,-4.9269,0.0,0.0,0.0,0.0,0.0,0.0,-4.9494,-5.1409,-5.2815,-5.3862,-5.461,-5.461,-5.461,-5.4581,-5.3862,-5.3593,-5.3713,-5.2815,-5.0152,-4.5933,0.0,0.0,0.0,0.0,-4.7461,-4.8957,-4.9993,-5.0734,-5.1279,-5.2519,-5.3852,-5.5124,-5.5342,-5.4252,-5.1488,-5.0906,-4.8842,-4.521,-4.4652,0.0,0.0,0.0,0.0,0.0,0.0,0.0,0.0,0.0,0.0,0.0,0.0,0.0,0.0,0.0,0.0,0.0,0.0,0.0,-4.4428,-4.4697,-4.3922,0.0,0.0,0.0,0.0,0.0,0.0,0.0,0.0,0.0,-4.7004,-4.6828,-4.7255,0.0,0.0,-4.9289,-5.0067,-5.0469,-5.0845,-5.1322,-5.1172,0.0,-5.082,-5.0795,-5.0695,-5.0469,-5.1096,-5.1574,-5.1423,-5.1574,-5.1724,-5.1724,-5.2,-5.1925,-5.1222,-5.0368,-4.9816,-4.9665,-4.9766,-4.9841,-4.9866,-4.9992,-5.0117,-5.2815,-5.093,-4.9883,-4.9613,-4.9942,-5.096,-5.1947,-5.2815,-5.3234,-5.3025,-5.2396,-5.2276,-5.1169,-4.9374,-4.8087,0.0,0.0,0.0,-5.1498,-5.3384,-5.3803,-5.4431,-5.5179,-5.5209,-5.5209,-5.5179,-5.491,-5.5059,-5.5568,-5.4929,-5.3375,-5.084,0.0,0.0,-4.8535,-4.9121,-5.0022,-5.1259,-5.2085,-5.2742,-5.3303,-5.4774,-5.6084,-5.7042,-5.6809,-5.5209,-5.2181,-5.2043,-5.0005,-4.5755,-4.6404,-4.5768,0.0,0.0,0.0,0.0,0.0,0.0,0.0,0.0,0.0,0.0,0.0,-4.0586,-4.0167,0.0,0.0,0.0,-4.4996,-4.6337,-4.7118,-4.6671,0.0,0.0,0.0,0.0,0.0,0.0,0.0,-4.4493,-4.6476,-4.8209,-4.9264,-4.8862,-4.8887,-5.0092,-5.0167,-5.0268,-5.0695,0.0,-5.1574,-5.2051,-5.2176,-5.2251,-5.2251,-5.2427,-5.2452,-5.2126,-5.2603,-5.3055,-5.308,-5.3356,-5.3482,-5.3306,-5.3231,-5.3231,-5.3231,-5.2528,-5.185,-5.1649,-5.1599,-5.1599,-5.1599,-5.1624,-5.1674,-5.5209,-5.497,-5.2546,-5.1887,-5.2486,-5.3084,-5.4042,-5.5179,-5.5179,-5.485,-5.4341,-5.491,-5.3832,-5.1468,-5.0272,0.0,-5.2456,-5.2426,-5.3414,-5.5179,-5.5209,-5.5209,-5.5209,-5.5209,-5.5209,-5.5179,-5.461,-5.4999,-5.6077,-5.4696,-5.4726,-5.6166,-5.3803,-5.2133,-5.1375,-5.1199,-5.1606,-5.2648,-5.3137,-5.3599,-5.431,-5.5966,-5.6928,-5.7063,-5.6905,-5.5554,-5.2906,-5.3079,-5.1534,-4.7809,-4.8486,-4.8354,-4.6774,0.0,0.0,0.0,0.0,0.0,0.0,0.0,0.0,0.0,0.0,0.0,0.0,0.0,0.0,-4.62,-4.9272,0.0,-5.0299,-4.8341,0.0,0.0,0.0,-4.3264,-4.396,-4.5087,-4.616,-4.7154,0.0,0.0,-5.0419,-5.0544,-5.0795,-5.1398,-5.18,-5.1875,-5.1398,-5.2226,-5.2754,-5.2352,-5.3105,-5.3733,-5.3683,-5.4084,-5.4336,-5.431,-5.4561,-5.4461,-5.4461,-5.4486,-5.431,-5.3884,-5.3758,-5.3783,-5.3783,-5.3381,-5.2904,-5.2427,-5.2251,-5.2176,-5.2176,-5.2226,-5.2402,-5.5209,-5.5149,-5.4491,-5.4341,-5.4491,-5.464,-5.488,-5.5179,-5.5209,-5.5089,-5.497,-5.5119,-5.485,-5.4221,-5.3922,-5.4042,-5.4491,-5.4491,-5.473,-5.5179,-5.5209,-5.5209,-5.5209,-5.5209,-5.5209,-5.5209,-5.5538,-5.5867,-5.6166,-5.6035,-5.6169,-5.6519,-5.5924,-5.5402,-5.4979,-5.5343,-5.5902,-5.668,-5.7291,-5.713,-5.6185,-5.7471,-5.7778,-5.6863,-5.7504,-5.6965,-5.5165,-5.4994,-5.381,-5.1564,-5.2463,-5.2525,-5.1123,-5.0522,0.0,0.0,0.0,0.0,0.0,0.0,0.0,0.0,0.0,-4.4297,-4.3952,0.0,-4.8195,0.0,-4.9418,-5.0593,-4.9827,-4.9146,0.0,0.0,-4.6638,-4.5882,-4.6148,-4.7351,-4.8309,-4.8748,-4.9748,-5.0705,-5.1574,-5.1699,-5.2051,-5.2955,-5.2176,-5.1574,-5.1875,-5.2477,-5.303,-5.3306,-5.3909,-5.4361,-5.4386,-5.4461,-5.4587,-5.4561,-5.4587,-5.4561,-5.4561,-5.4561,-5.4511,-5.4386,-5.4361,-5.4361,-5.4361,-5.426,-5.4135,-5.3959,-5.3306,-5.2729,-5.2729,-5.303,-5.3356,-5.5209,-5.5209,-5.5209,-5.5209,-5.5209,-5.5209,-5.5209,-5.5209,-5.5209,-5.5209,-5.5209,-5.5209,-5.5209,-5.5209,-5.5209,-5.5209,-5.5209,-5.5209,-5.5209,-5.5209,-5.5209,-5.5209,-5.5209,-5.5209,-5.5359,-5.5628,-5.5987,-5.6466,-5.7034,-5.7107,-5.7327,-5.7595,-5.7624,-5.747,-5.7325,-5.749,-5.7752,-5.8112,-5.806,-5.7328,-5.5993,-5.7076,-5.7044,-5.5993,-5.6895,-5.672,-5.5309,-5.5158,-5.4231,-5.2563,-5.3687,-5.3872,-5.2644,-5.2107,-5.0696,0.0,0.0,0.0,0.0,0.0,0.0,0.0,0.0,0.0,0.0,0.0,-5.0738,-4.987,-5.1757,-5.2238,-5.021,-4.9791,-4.9558,-4.9238,-4.8648,-4.836,-4.8558,-4.9456,-5.0115,-5.0232,-5.1285,-5.2219,-5.2852,-5.311,-5.3476,-5.4194,-5.3445,-5.2854,-5.3155,-5.3482,-5.3758,-5.4059,-5.4561,-5.5039,-5.5239,-5.529,-5.529,-5.5315,-5.529,-5.529,-5.529,-5.529,-5.5239,-5.4988,-5.4938,-5.4938,-5.4913,-5.4712,-5.4637,-5.4762,-5.426,-5.3733,-5.3658,-5.3884,-5.4084,-5.5209,-5.5209,-5.5209,-5.5209,-5.5209,-5.5209,-5.5209,-5.5209,-5.5209,-5.5209,-5.5209,-5.5209,-5.5209,-5.5209,-5.5209,-5.5209,-5.5209,-5.5209,-5.5209,-5.5209,-5.5209,-5.5209,-5.5209,-5.5269,-5.5628,-5.6218,-5.6346,-5.7004,-5.8058,-5.791,-5.8129,-5.8664,-5.8694,-5.8634,-5.86,-5.834,-5.8124,-5.7964,-5.7149,-5.6079,-5.4741,-5.5561,-5.568,-5.4883,-5.5733,-5.5817,-5.4912,-5.4895,-5.4273,-5.2875,-5.3942,-5.4107,-5.2905,-5.2336,-5.132,0.0,-4.7959,0.0,0.0,0.0,0.0,0.0,0.0,0.0,0.0,-5.1385,-5.2607,-5.2944,-5.4573,-5.4274,-5.104,-5.036,-5.0342,-5.0643,-5.0659,-5.0831,-5.1186,-5.1665,-5.2078,-5.2168,-5.3043,-5.3827,-5.4185,-5.4657,-5.5172,-5.5574,-5.5662,-5.5637,-5.5395,-5.5016,-5.4637,-5.4758,-5.5139,-5.5641,-5.6018,-5.6143,-5.6143,-5.6168,-5.6118,-5.6219,-5.6143,-5.6168,-5.6018,-5.5616,-5.5491,-5.5491,-5.5491,-5.5114,-5.4963,-5.5415,-5.5089,-5.4712,-5.4536,-5.4587,-5.4662,-5.5209,-5.5209,-5.5209,-5.5209,-5.5209,-5.5209,-5.5209,-5.5209,-5.5209,-5.5209,-5.5209,-5.5209,-5.5209,-5.5209,-5.5209,-5.5209,-5.5209,-5.5209,-5.5209,-5.5209,-5.5209,-5.5209,-5.5209,-5.5748,-5.6098,-5.6278,-5.7244,-5.7872,-5.8141,-5.8411,-5.8575,-5.8664,-5.8694,-5.8397,-5.7951,0.0,0.0,0.0,-5.7214,-5.605,-5.3877,-5.4499,-5.4648,-5.4248,-5.511,0.0,-5.6734,-5.7009,-5.6939,-5.6365,-5.6322,0.0,0.0,0.0,0.0,0.0,0.0,0.0,0.0,0.0,0.0,0.0,-5.0966,-5.197,-5.188,-5.4541,-5.5881,-5.4997,-5.4781,-5.3779,-5.1502,-5.0776,-5.0675,-5.1241,-5.247,-5.3619,-5.4459,-5.4961,-5.5532,-5.6263,-5.5584,-5.5117,-5.5529,-5.6451,-5.7399,-5.7985,-5.8967,-5.963,-5.9749,-5.724,-5.5383,-5.5265,-5.5764,-5.6068,-5.6194,-5.6244,-5.6319,-5.6219,-5.6219,-5.6219,-5.6244,-5.6219,-5.6219,-5.6043,-5.6068,-5.6043,-5.6043,-5.5968,-5.5867,-5.6043,-5.5968,-5.5641,-5.4787,-5.4938,-5.5239,-5.5209,0.0,-5.5209,-5.5209,0.0,-5.5209,-5.5388,-5.5688,-5.5688,-5.5837,-5.6137,-5.6137,-5.6137,-5.6137,-5.6137,-5.5957,-5.5688,-5.5688,-5.5508,-5.5209,-5.5538,-5.5688,-5.5688,-5.6316,-5.6825,-5.7154,-5.7812,-5.8291,-5.8567,-5.8787,-5.8828,-5.8694,-5.8828,-5.8679,-5.8218,-5.8679,-5.8055,-5.6366,-5.6165,-5.5122,-5.3207,-5.446,-5.4986,-5.456,-5.5736,0.0,0.0,0.0,0.0,0.0,0.0,0.0,0.0,0.0,0.0,-5.1635,-5.0617,-5.0375,-5.107,-5.0934,-5.1487,-5.3095,-5.4397,-5.5112,-5.5076,-5.6161,-5.6336,-5.5095,-5.4737,-5.3823,-5.1948,-5.1498,-5.2052,-5.3448,-5.4394,-5.5491,-5.7066,-5.7612,-5.7874,-5.8291,-5.8146,-5.7972,-5.8308,-5.9049,-5.9859,-6.0321,-6.0819,-6.1331,-6.1204,-5.9567,-5.7974,-5.7061,-5.6681,-5.662,-5.6646,-5.6897,-5.7047,-5.7022,-5.6796,-5.6646,-5.662,-5.6394,-5.6219,-5.6219,-5.6219,-5.6219,-5.6219,-5.6219,-5.6294,-5.652,-5.6394,-5.6319,-5.6118,-5.5993,-5.5792,-5.5359,-5.5359,-5.5239,-5.5209,-5.5209,-5.5329,-5.5807,-5.6496,0.0,0.0,0.0,-5.7094,-5.7094,-5.7094,-5.7094,-5.6825,-5.6398,-5.6316,-5.6047,-5.5568,-5.6077,-5.6398,-5.6376,-5.6974,-5.7573,-5.8112,-5.8231,-5.859,-5.9099,-5.9099,-5.8991,-5.8773,-5.8991,-5.8936,-5.8748,-5.85,-5.7499,-5.5761,-5.5355,-5.456,-5.3173,-5.4884,-5.5671,-5.5256,-5.6623,-5.7568,-5.7859,-5.6509,-5.5909,-5.6165,-5.4226,-5.311,-5.2975,-5.2544,-5.2265,-5.2058,-5.177,-5.2436,-5.4199,-5.428,-5.5165,-5.7238,-5.6875,-5.6953,-5.8002,-5.7186,-5.6005,-5.4624,-5.4921,-5.4521,-5.2694,-5.3074,-5.4115,-5.6124,-5.6641,-5.7764,-5.9663,-6.0075,-6.0246,-6.0297,-6.0666,-6.0969,-6.1183,-6.1893,-6.2459,-6.282,-6.3131,-6.2865,-6.2638,-6.1761,-6.0168,-5.8648,-5.7857,-5.7341,-5.7097,-5.7474,-5.7876,-5.7775,-5.7449,-5.7173,-5.6997,-5.6671,-5.6344,-5.6219,-5.6269,-5.6369,-5.6369,-5.6495,-5.6646,-5.7097,-5.6846,-5.6771,-5.7549,-5.7173,-5.652,-5.6098,-5.5987,-5.5418,-5.5209,-5.5239,-5.5807,-5.6735,-5.7782,-5.7214,-5.7034,-5.7094,-5.7094,-5.7094,-5.7094,-5.7094,-5.7064,-5.6944,-5.6944,-5.6915,-5.6825,-5.6915,-5.6974,-5.7004,-5.7663,-5.8022,-5.8118,-5.868,-5.9009,-5.9099,-5.9099,-5.9099,-5.9045,-5.9099,-5.8936,-5.8694,-5.7889,-5.716,-5.6594,-5.6566,-5.6021,-5.506,-5.5381,-5.5751,-5.6198,-5.6991,-5.7019,-5.6279,-5.6708,-5.6024,-5.4071,-5.3752,-5.3105,-5.1944,-5.176,-5.1554,-5.1393,-5.2766,-5.3862,-5.4515,-5.5904,-5.7633,-5.9328,-5.7154,-5.6587,-5.9121,-5.8039,-5.6424,-5.4767,-5.5905,-5.6243,-5.4755,-5.6182,-5.7508,-5.8307,-6.0024,-6.1639,-6.2583,-6.2952,-6.3381,-6.3844,-6.3098,-6.253,-6.2849,-6.4136,-6.5153,-6.5557,-6.63,-6.7604,-6.6569,-6.3791,-6.0756,-5.9262,-5.8889,-5.8315,-5.7495,-5.7549,-5.7951,-5.7901,-5.7876,-5.7625,-5.7248,-5.7047,-5.6796,-5.6319,-5.6646,-5.6897,-5.6922,-5.7349,-5.7575,-5.775,-5.7625,-5.7675,-5.7976,-5.7775,-5.7474,-5.6218,-5.6158,-5.5478,-5.5209,-5.5269,-5.6256,-5.7214,-5.8112,-5.8171,-5.8171,-5.8171,-5.8171,-5.8201,-5.8171,-5.8171,-5.7962,-5.7663,-5.7663,-5.7453,-5.7124,-5.7483,-5.7663,-5.7723,-5.8351,-5.865,-5.868,-5.8949,-5.9099,-5.9099,-5.9099,-5.9099,-5.9099,-5.9099,-5.8936,-5.8694,-5.8604,-5.8473,-5.8361,-5.7824,-5.7168,-5.6503,-5.76,-5.8408,-5.875,-5.9335,-5.9132,-5.8011,-5.7479,-5.6256,-5.4101,-5.311,-5.2296,-5.1915,-5.2764,-5.325,-5.3313,-5.5005,-5.6519,-5.7683,-5.9757,-6.1467,-6.2588,-6.0505,-5.9578,-6.0955,-5.7444,-5.5068,-5.4735,-5.5943,-5.6796,-5.67,-5.797,-5.9442,-6.0965,-6.2109,-6.3395,-6.4949,-6.5424,-6.5657,-6.5952,-6.548,-6.5216,-6.5566,-6.6461,-6.7225,-6.7584,-6.8508,-6.894,-6.8814,-6.6785,-6.4064,-6.1639,-6.0713,-5.9705,-5.8302,-5.8403,-5.873,-5.8755,-5.8529,-5.8278,-5.7951,-5.775,-5.7424,-5.7198,-5.7349,-5.7474,-5.7499,-5.77,-5.7976,-5.8278,-5.8052,-5.8102,-5.8529,-5.8554,-5.8152,-5.6428,-5.6316,-5.5508,-5.5359,-5.5718,-5.6855,-5.7723,-5.8381,-5.889,-5.9099,-5.9099,-5.9099,-5.9099,-5.9099,-5.9099,-5.883,-5.8411,-5.8351,-5.8052,-5.7633,-5.8112,-5.8351,-5.8411,-5.9009,-5.9249,-5.9159,-5.9249,-5.9249,-5.9129,-5.9099,-5.9099,-5.9099,-5.9099,-5.9026,-5.8902,-5.9517,-5.9844,-5.9852,-5.9352,-5.8753,-5.8119,-5.9795,-6.0757,-6.0823,-6.1465,-6.094,-5.9205,-5.8079,-5.6454,-5.409,-5.2628,-5.2164,-5.2668,-5.399,-5.5024,-5.5681,-5.7425,-5.9408,-6.1367,-6.318,-6.4455,-6.4905,-6.335,-6.2299,-6.1877,-5.7922,-5.5307,-5.5853,-5.7106,-5.8187,-5.913,-6.0308,-6.1603,-6.3603,-6.3989,-6.4828,-6.6606,-6.7119,-6.7208,-6.7208,-6.7358,-6.7625,-6.8076,-6.8345,-6.8734,-6.9239,-6.9423,-6.9423,-6.9423,-6.9232,-6.7626,-6.5021,-6.3008,-6.1509,-5.974,-5.9413,-5.9537,-5.9483,-5.9156,-5.8855,-5.8654,-5.8303,-5.8027,-5.7901,-5.7976,-5.8077,-5.8077,-5.8227,-5.8453,-5.8805,-5.8629,-5.8579,-5.9207,-5.9131,-5.8654,-5.7004,-5.6825,-5.5688,-5.5867,-5.6915,-5.7693,-5.8381,-5.8979,-5.9099,-5.9099,-5.9099,-5.9099,-5.9099,-5.9099,-5.9099,-5.9069,-5.8979,-5.9009,-5.8949,-5.889,-5.8979,-5.9009,-5.9039,-5.9668,-5.9668,-5.9249,-5.9668,-5.9608,-5.9189,-5.9159,-5.9129,-5.9099,-5.9099,-5.9349,-5.9636,-5.9921,-6.0249,-6.0535,-6.13,-6.1243,-6.0368,-6.0758,-6.1084,-6.1143,-6.2025,-6.0793,-5.7519,-5.7936,-5.644,-5.2746,-5.2775,-5.3426,-5.442,-5.4772,-5.5551,-5.7108,-5.9486,-6.1993,-6.4219,-6.4785,-6.4964,-6.4875,-6.3852,-6.2939,-6.2629,-6.1238,-5.9886,-5.9533,-6.0631,-6.1527,-6.2009,-6.3793,-6.5079,-6.5469,-6.6157,-6.6818,-6.7059,-6.7508,-6.7867,-6.7929,-6.8345,-6.8824,-6.8914,-6.9363,-6.9961,-7.044,-7.05,-7.05,-7.053,-7.0465,-6.9916,-6.7708,-6.5725,-6.352,-6.1621,-6.0528,-5.9972,-5.956,-5.9458,-5.9232,-5.8905,-5.873,-5.8529,-5.8328,-5.8353,-5.8629,-5.873,-5.8981,-5.9282,-5.9257,-5.9257,-5.9332,-5.9483,-5.9433,-5.9006,-5.7094,-5.6974,-5.5718,-5.5927,-5.7124,-5.7842,-5.8501,-5.9099,-5.9099,-5.9099,-5.9099,-5.9099,-5.9099,-5.9099,-5.9099,-5.9099,-5.9099,-5.9099,-5.9099,-5.9099,-5.9099,-5.9308,-5.9668,-5.9518,-5.9548,-5.9638,-5.9578,-5.9578,-5.9727,-6.0086,-6.0296,-6.0296,-6.0296,-6.039,-6.0548,-6.1018,-6.1377,-6.1533,-6.2132,-6.2253,-6.2159,-6.2223,-6.2199,-6.1996,-6.1851,-6.0521,-5.794,-5.7411,-5.6133,-5.4143,-5.4272,-5.5139,-5.6789,-5.7958,-5.9087,-6.0215,-6.2258,-6.404,-6.5473,-6.5592,-6.5772,-6.6161,-6.5644,-6.5308,-6.5185,-6.4784,-6.4301,-6.3954,-6.3502,-6.3538,-6.439,-6.5738,-6.658,-6.667,-6.7178,-6.7567,-6.7597,-6.8166,-6.8585,-6.8615,-6.8824,-6.9183,-6.9572,-7.0141,-7.059,-7.0859,-7.0919,-7.0919,-7.0919,-7.0919,-7.0629,-6.9752,-6.8152,-6.5712,-6.3043,-6.101,-6.0227,-5.9869,-5.9637,-5.9357,-5.9334,-5.9182,-5.9081,-5.883,-5.8981,-5.9131,-5.9182,-5.9282,-5.9508,-5.9508,-5.9508,-5.9508,-5.9508,-5.9508,-5.9257,-5.7214,-5.7214,-5.6346,-5.6526,-5.7423,-5.8112,-5.865,-5.9069,-5.9099,-5.9099,-5.9099,-5.9099,-5.9099,-5.9099,-5.9099,-5.9099,-5.9099,-5.9099,-5.9099,-5.9129,-5.9279,-5.9638,-6.0027,-5.9847,-5.9817,-5.9967,-5.9608,-5.9638,-6.0116,-6.0775,-6.1104,-6.1104,-6.1104,-6.1194,-6.1403,-6.1882,-6.2181,-6.2391,-6.2639,-6.2847,-6.3079,-6.3137,-6.2963,-6.2673,-6.2028,-6.0727,-5.8863,-5.7998,-5.7058,-5.6045,-5.6217,-5.7197,-5.9107,-6.0627,-6.2018,-6.317,-6.4516,-6.5592,-6.6221,-6.6281,-6.649,-6.6909,-6.6999,-6.7089,-6.7208,-6.7268,-6.7358,-6.7324,-6.6192,-6.5834,-6.6427,-6.7148,-6.7508,-6.7567,-6.8016,-6.8256,-6.8286,-6.8854,-6.9273,-6.9273,-6.9512,-6.9692,-7.0171,-7.059,-7.0889,-7.0889,-7.0919,-7.0919,-7.0919,-7.0919,-7.0889,-7.0824,-6.9553,-6.7439,-6.4337,-6.2904,-6.1617,-6.0787,-6.0609,-6.0457,-6.0074,-5.992,-5.9483,-5.9207,-5.9433,-5.9483,-5.9408,-5.9458,-5.9508,-5.9508,-5.9508,-5.9508,-5.9508,-5.9508,-5.9508,-5.7483,-5.7969,-5.7992,-5.7932,-5.8112,-5.874,-5.9039,-5.9099,-5.9099,-5.9099,-5.9099,-5.9099,-5.9099,-5.9099,-5.9099,-5.9099,-5.9099,-5.9099,-5.9099,-5.9159,-5.9727,-6.0057,-6.0116,-6.0715,-6.0685,-6.0296,-6.0116,-6.0116,-6.0206,-6.0835,-6.1104,-6.1164,-6.1224,-6.1493,-6.1972,-6.2121,-6.2421,-6.2929,-6.3079,-6.3079,-6.3079,-6.3137,-6.3109,-6.3021,-6.2963,-6.1909,-6.0323,-6.058,-5.9797,-5.7707,-5.8519,-5.973,-6.1254,-6.1945,-6.3378,-6.5381,-6.5861,-6.6251,-6.6819,-6.6879,-6.6939,-6.6999,-6.7059,-6.7268,-6.7777,-6.7897,-6.8166,-6.8794,-6.8579,-6.834,-6.8046,-6.8345,-6.8734,-6.8764,-6.8884,-6.8944,-6.8974,-6.9512,-6.9901,-6.9991,-7.035,-7.062,-7.0799,-7.0889,-7.0919,-7.0919,-7.0919,-7.0919,-7.0919,-7.0919,-7.0919,-7.0629,-6.9715,-6.8015,-6.609,-6.4813,-6.4075,-6.3078,-6.229,-6.1966,-6.1316,-6.066,-6.0074,-5.9637,-5.9869,-5.9869,-5.9637,-5.9508,-5.9508,-5.9508,-5.9508,-5.9508,-5.9508,-5.9508,-5.9508,-5.7633,-5.7513,-5.7932,-5.8141,-5.8201,-5.883,-5.9099,-5.9099,-5.9099,-5.9099,-5.9099,-5.9099,-5.9099,-5.9099,-5.9099,-5.9099,-5.9099,-5.9099,-5.9099,-5.9189,-5.9787,-6.0326,-6.0745,-6.1014,-6.1253,-6.1313,-6.0954,-6.0984,-6.1403,-6.2061,-6.2361,-6.2361,-6.2361,-6.251,-6.269,-6.272,-6.2869,-6.3079,-6.3438,-6.3498,-6.3199,-6.3468,-6.3498,-6.3109,-6.2263,-6.1467,-6.0817,-6.0209,-5.9953,-6.0431,-6.0782,-6.2,-6.415,-6.4926,-6.5646,-6.6489,-6.664,-6.6729,-6.6939,-6.6999,-6.6999,-6.7029,-6.7388,-6.7717,-6.7986,-6.8375,-6.8734,-6.9004,-6.9423,-6.9453,-6.9303,-6.9123,-6.9004,-6.9064,-6.9393,-6.9632,-6.9752,-7.0171,-7.056,-7.059,-7.0799,-7.0889,-7.0919,-7.0919,-7.0919,-7.0919,-7.0919,-7.0919,-7.0919,-7.0919,-7.0919,-7.0824,-7.0403,-6.9516,-6.7947,-6.6468,-6.534,-6.4625,-6.3857,-6.3078,-6.2338,-6.2115,-6.1617,-6.0761,-6.0685,-6.0736,-6.0507,-5.9714,-5.9714,-5.9508,-5.9508,-5.9508,-5.9508,-5.9508,-5.9508,-5.8022,-5.7573,-5.8171,-5.8441,-5.8471,-5.8919,-5.9099,-5.9099,-5.9099,-5.9099,-5.9099,-5.9099,-5.9099,-5.9099,-5.9099,-5.9099,-5.9099,-5.9099,-5.9099,-5.9159,-5.9787,-6.0446,-6.1014,-6.1104,-6.1463,-6.1942,-6.1642,-6.1672,-6.2121,-6.278,-6.3137,-6.3107,-6.3137,-6.3137,-6.3109,-6.3258,-6.3378,-6.3468,-6.3797,-6.3857,-6.3737,-6.3887,-6.3797,-6.3322,-6.2499,-6.1967,-6.1732,-6.107,-6.121,-6.2462,-6.3053,-6.4211,-6.6099,-6.6759,-6.6999,-6.6999,-6.6999,-6.6999,-6.6999,-6.6999,-6.7089,-6.7298,-6.7717,-6.8106,-6.8555,-6.9064,-6.9363,-6.9662,-6.9961,-7.029,-7.0201,-6.9871,-6.9632,-6.9662,-7.0021,-7.026,-7.029,-7.0649,-7.0859,-7.0859,-7.0889,-7.0919,-7.0919,-7.0919,-7.0919,-7.0919,-7.0919,-7.0919,-7.0919,-7.0919,-7.0919,-7.0919,-7.0824,-7.0403,-6.9582,-6.8586,-6.7329,-6.6496,-6.5766,-6.4769,-6.3784,-6.3519,-6.3005,-6.2093,-6.1643,-6.1617,-6.1165,-6.0304,-5.9792,-5.9637,-5.9508,-5.9508,-5.9508,-5.9508,-5.9508,-5.871,-5.8261,-5.883,-5.9039,-5.9009,-5.9069,-5.9099,-5.9099,-5.9099,-5.9099,-5.9099,-5.9099,-5.9099,-5.9099,-5.9099,-5.9099,-5.9099,-5.9099,-5.9159,-5.9279,-5.9847,-6.0535,-6.1164,-6.1313,-6.1642,-6.2181,-6.2121,-6.2121,-6.2241,-6.278,-6.3137,-6.3137,-6.3137,-6.3109,-6.3166,-6.3647,-6.3947,-6.3977,-6.4096,-6.4366,-6.4844,-6.4425,-6.4156,-6.4036,-6.3889,-6.3592,-6.3141,-6.3502,-6.3653,-6.4009,-6.5114,-6.619,-6.6789,-6.6969,-6.6999,-6.7059,-6.7029,-6.6999,-6.7029,-6.7029,-6.7268,-6.7747,-6.7986,-6.8585,-6.9512,-6.9901,-7.0171,-7.056,-7.0739,-7.0859,-7.0829,-7.0739,-7.0709,-7.0859,-7.0769,-7.0799,-7.0829,-7.0889,-7.0919,-7.0919,-7.0919,-7.0919,-7.0919,-7.0919,-7.0919,-7.0919,-7.0919,-7.0919,-7.0919,-7.0919,-7.0919,-7.0919,-7.0919,-7.0694,-7.0759,-7.0694,-6.9612,-6.8644,-6.7907,-6.7053,-6.5766,-6.5225,-6.4509,-6.3665,-6.2736,-6.2635,-6.2609,-6.1666,-6.0457,-6.015,-5.9869,-5.9637,-5.9508,-5.9508,-5.9508,-5.8979,-5.883,-5.9009,-5.9099,-5.9099,-5.9099,-5.9099,-5.9099,-5.9099,-5.9099,-5.9099,-5.9099,-5.9099,-5.9099,-5.9099,-5.9099,-5.9099,-5.9129,-5.9338,-5.9847,-6.0475,-6.1104,-6.1762,-6.2241,-6.257,-6.275,-6.278,-6.278,-6.278,-6.2989,-6.3137,-6.3137,-6.3137,-6.3318,-6.3677,-6.3917,-6.4006,-6.4096,-6.4934,-6.5084,-6.4515,-6.5054,-6.5173,-6.4755,-6.4725,-6.4605,-6.4425,-6.4156,-6.4246,-6.4695,-6.5533,-6.6311,-6.6849,-6.6999,-6.7208,-6.7567,-6.7208,-6.7238,-6.7537,-6.7238,-6.7268,-6.7897,-6.8375,-6.9064,-6.9871,-7.038,-7.0679,-7.0889,-7.0919,-7.0919,-7.0919,-7.0919,-7.0919,-7.0919,-7.0919,-7.0919,-7.0919,-7.0919,-7.0919,-7.0919,-7.0919,-7.0919,-7.0919,-7.0919,-7.0919,-7.0919,-7.0919,-7.0919,-7.0919,-7.0919,-7.0919,-7.0919,-7.0919,-7.0919,-7.0919,-7.0919,-7.0367,-6.9678,-6.9182,-6.8451,-6.7398,-6.6706,-6.6005,-6.5368,-6.4364,-6.3857,-6.3757,-6.2951,-6.1816,-6.0888,-6.0736,-6.0304,-5.9714,-5.9508,-5.9508,-5.9099,-5.9099,-5.9099,-5.9099,-5.9099,-5.9099,-5.9099,-5.9159,-5.9368,-5.9338,-5.9189,-5.9368,-5.9308,-5.9129,-5.9099,-5.9099,-5.9129,-5.9338,-5.9817,-6.0386,-6.0565,-6.1224,-6.2061,-6.278,-6.3137,-6.3137,-6.3137,-6.3137,-6.3137,-6.3137,-6.3137,-6.3137,-6.3137,-6.3378,-6.3947,-6.4036,-6.4186,-6.4755,-6.5323,-6.5473,-6.5293,-6.5712,-6.5832,-6.5443,-6.5413,-6.5263,-6.5054,-6.4814,-6.4934,-6.5413,-6.6011,-6.658,-6.6939,-6.6999,-6.7268,-6.7687,-6.7448,-6.7268,-6.7869,-6.7358,-6.7418,-6.8196,-6.8764,-6.9423,-7.0141,-7.0739,-7.0889,-7.0919,-7.0919,-7.0919,-7.0919,-7.0919,-7.0919,-7.0919,-7.0919,-7.0919,-7.0919,-7.0919,-7.0919,-7.0919,-7.0919,-7.0919,-7.0919,-7.0919,-7.0919,-7.0919,-7.0919,-7.0919,-7.0919,-7.0919,-7.0919,-7.0919,-7.0919,-7.0919,-7.0919,-7.0919,-7.0919,-7.0498,-7.0075,-6.9286,-6.8383,-6.8112,-6.7604,-6.726,-6.6496,-6.6258,-6.609,-6.4481,-6.3199,-6.2561,-6.1842,-6.0888,-6.0227,-5.9637,-5.9483,-5.9099,-5.9099,-5.9099,-5.9099,-5.9129,-5.9189,-5.9249,-5.9279,-5.9757,-5.9697,-5.9428,-5.9638,-5.9608,-5.9189,-5.9099,-5.9099,-5.9219,-5.9727,-6.0356,-6.0745,-6.0745,-6.1104,-6.2241,-6.2839,-6.3137,-6.3137,-6.3137,-6.3137,-6.3137,-6.3137,-6.3137,-6.3137,-6.3166,-6.3378,-6.3887,-6.4006,-6.4575,-6.5443,-6.5353,-6.5742,-6.661,-6.637,-6.6101,-6.6071,-6.6041,-6.5832,-6.5473,-6.5742,-6.6011,-6.6131,-6.661,-6.6969,-6.7059,-6.7059,-6.7388,-6.8078,-6.7418,-6.7448,-6.7687,-6.7358,-6.7537,-6.8704,-6.8974,-6.9542,-7.059,-7.0859,-7.0919,-7.0919,-7.0919,-7.0919,-7.0919,-7.0919,-7.0919,-7.0919,-7.0919,-7.0919,-7.0919,-7.0919,-7.0919,-7.0919,-7.0919,-7.0919,-7.0919,-7.0919,-7.0919,-7.0919,-7.0919,-7.0919,-7.0919,-7.0919,-7.0919,-7.0919,-7.0919,-7.0919,-7.0919,-7.0919,-7.0919,-7.0759,-7.0563,-7.0075,-6.9516,-6.9286,-6.922,-6.8885,-6.8315,-6.8248,-6.781,-6.6188,-6.4984,-6.4265,-6.3172,-6.1741,-6.0964,-6.0533,-5.9819,-5.9099,-5.9099,-5.9099,-5.9099,-5.9189,-5.9608,-5.9817,-5.9817,-5.9997,-5.9997,-5.9787,-5.9488,-5.9308,-5.9129,-5.9099,-5.9099,-5.9308,-5.9817,-6.0446,-6.1104,-6.1493,-6.2002,-6.269,-6.2959,-6.3137,-6.3137,-6.3137,-6.3137,-6.3137,-6.3137,-6.3137,-6.3137,-6.3137,-6.3378,-6.3917,-6.4006,-6.4425,-6.5233,-6.5652,-6.5862,-6.6251,-6.664,-6.6729,-6.6729,-6.67,-6.661,-6.646,-6.664,-6.6729,-6.6729,-6.6879,-6.7238,-6.7657,-6.7717,-6.7986,-6.8435,-6.8076,-6.7747,-6.7807,-6.7388,-6.7687,-6.8794,-6.9064,-6.9572,-7.0769,-7.0919,-7.0919,-7.0919,-7.0919,-7.0919,-7.0919,-7.0919,-7.0919,-7.0919,-7.0919,-7.0919,-7.0919,-7.0919,-7.0919,-7.0919,-7.0919,-7.0919,-7.0919,-7.0919,-7.0919,-7.0919,-7.0919,-7.0919,-7.0919,-7.0919,-7.0919,-7.0919,-7.0919,-7.0919,-7.0919,-7.0919,-7.0919,-7.0919,-7.0759,-7.0694,-7.0433,-7.0337,-7.0337,-7.0272,-6.922,-6.8952,-6.875,-6.7947,-6.7025,-6.5949,-6.517,-6.4093,-6.2757,-6.204,-6.0831,-5.9099,-5.9099,-5.9099,-5.9099,-5.9189,-5.9787,-6.0086,-6.0146,-6.0416,-6.0326,-6.0057,-5.9697,-5.9368,-5.9129,-5.9099,-5.9279,-5.9578,-6.0206,-6.0894,-6.1553,-6.2181,-6.269,-6.3019,-6.3137,-6.3137,-6.3137,-6.3137,-6.3137,-6.3137,-6.3137,-6.3137,-6.3137,-6.3137,-6.3408,-6.3977,-6.4036,-6.4485,-6.5323,-6.5832,-6.6101,-6.643,-6.6789,-6.6939,-6.6999,-6.6999,-6.6999,-6.6999,-6.7238,-6.7388,-6.7388,-6.7448,-6.7717,-6.8315,-6.8405,-6.8585,-6.8974,-6.8375,-6.7956,-6.7926,-6.7597,-6.7926,-6.8794,-6.9183,-6.9901,-7.0649,-7.0919,-7.0919,-7.0919,-7.0919,-7.0919,-7.0919,-7.0919,-7.0919,-7.0919,-7.0919,-7.0919,-7.0919,-7.0919,-7.0919,-7.0919,-7.0919,-7.0919,-7.0919,-7.0919,-7.0919,-7.0919,-7.0919,-7.0919,-7.0919,-7.0919,-7.0919,-7.0919,-7.0919,-7.0919,-7.0919,-7.0919,-7.0919,-7.0919,-7.0919,-7.0919,-7.0919,-7.0919,-7.0824,-7.0629,-7.0009,-6.9582,-6.9516,-6.9286,-6.8654,-6.781,-6.7232,-6.623,-6.4769,-6.3431,-6.2212,-5.9099,-5.9099,-5.9099,-5.9099,-5.9219,-5.9877,-6.0176,-6.0206,-6.0775,-6.0685,-6.0146,-5.9997,-5.9548,-5.9129,-5.9279,-5.9518,-6.0116,-6.0835,-6.1553,-6.2181,-6.272,-6.3107,-6.3107,-6.3137,-6.3137,-6.3137,-6.3137,-6.3137,-6.3137,-6.3137,-6.3137,-6.3137,-6.3137,-6.3348,-6.3737,-6.3947,-6.4695,-6.5562,-6.5892,-6.6311,-6.6759,-6.6969,-6.6999,-6.6999,-6.6999,-6.6999,-6.7148,-6.7537,-6.7956,-6.8076,-6.8076,-6.8435,-6.8974,-6.9064,-6.8974,-6.8854,-6.8375,-6.7986,-6.7986,-6.7926,-6.8286,-6.9064,-6.9662,-7.0231,-7.0739,-7.0919,-7.0919,-7.0919,-7.0919,-7.0919,-7.0919,-7.0919,-7.0919,-7.0919,-7.0919,-7.0919,-7.0919,-7.0919,-7.0919,-7.0919,-7.0919,-7.0919,-7.0919,-7.0919,-7.0919,-7.0919,-7.0919,-7.0919,-7.0919,-7.0919,-7.0919,-7.0919,-7.0919,-7.0919,-7.0919,-7.0919,-7.0919,-7.0919,-7.0919,-7.0919,-7.0919,-7.0919,-7.0919,-7.0694,-7.0337,-7.0272,-7.0498,-7.0206,-6.9715,-6.9353,-6.8721,-6.7507,-6.6132,-6.5064,-6.3864,-5.9099,-5.9099,-5.9099,-5.9099,-5.9308,-6.0356,-6.0565,-6.0176,-6.0805,-6.0685,-6.0086,-5.9548,-5.9279,-5.9129,-5.9578,-5.9967,-6.0296,-6.1313,-6.2241,-6.2839,-6.2959,-6.3137,-6.3137,-6.3137,-6.3137,-6.3137,-6.3137,-6.3137,-6.3137,-6.3137,-6.3137,-6.3137,-6.3137,-6.3196,-6.3348,-6.3917,-6.4366,-6.5203,-6.5772,-6.637,-6.6849,-6.6999,-6.6999,-6.6999,-6.6999,-6.6999,-6.7119,-6.7627,-6.8226,-6.8615,-6.8824,-6.9093,-6.9542,-6.9303,-6.9064,-6.8854,-6.8405,-6.8016,-6.7986,-6.8076,-6.8495,-6.9572,-6.9931,-7.026,-7.0829,-7.0919,-7.0919,-7.0919,-7.0919,-7.0919,-7.0919,-7.0919,-7.0919,-7.0919,-7.0919,-7.0919,-7.0919,-7.0919,-7.0919,-7.0919,-7.0919,-7.0919,-7.0919,-7.0919,-7.0919,-7.0919,-7.0919,-7.0919,-7.0919,-7.0919,-7.0919,-7.0919,-7.0919,-7.0919,-7.0919,-7.0919,-7.0919,-7.0919,-7.0919,-7.0919,-7.0919,-7.0919,-7.0919,-7.0919,-7.0824,-7.0919,-7.0919,-7.0824,-7.0337,-7.0206,-7.0045,-6.9057,-6.7928,-6.6793,-6.5502,-5.9099,-5.9099,-5.9099,-5.9279,-5.9668,-6.0326,-6.0625,-6.0565,-6.0565,-6.0446,-5.9997,-5.9398,-5.9129,-5.9159,-5.9787,-6.0206,-6.0835,-6.1912,-6.272,-6.3019,-6.3137,-6.3137,-6.3137,-6.3137,-6.3137,-6.3137,-6.3137,-6.3137,-6.3137,-6.3137,-6.3137,-6.3137,-6.3137,-6.3288,-6.3588,-6.4156,-6.4844,-6.5533,-6.6131,-6.667,-6.6939,-6.6999,-6.6999,-6.6999,-6.6999,-6.6999,-6.7029,-6.7627,-6.8106,-6.8555,-6.9123,-6.9722,-7.0171,-6.9812,-6.9363,-6.8974,-6.8704,-6.8256,-6.8136,-6.8585,-6.9243,-6.9931,-7.0231,-7.053,-7.0829,-7.0919,-7.0919,-7.0919,-7.0919,-7.0919,-7.0919,-7.0919,-7.0919,-7.0919,-7.0919,-7.0919,-7.0919,-7.0919,-7.0919,-7.0919,-7.0919,-7.0919,-7.0919,-7.0919,-7.0919,-7.0919,-7.0919,-7.0919,-7.0919,-7.0919,-7.0919,-7.0919,-7.0919,-7.0919,-7.0919,-7.0919,-7.0919,-7.0919,-7.0919,-7.0919,-7.0919,-7.0919,-7.0919,-7.0919,-7.0919,-7.0919,-7.0919,-7.0919,-7.0919,-7.0694,-7.0468,-7.0272,-6.9722,-6.8354,-6.709,-5.9153,-5.9099,-5.9099,-5.9488,-6.0027,-6.0086,-6.0416,-6.0775,-6.0356,-6.0057,-5.9847,-5.9338,-5.9099,-5.9249,-5.9787,-6.0475,-6.1373,-6.2181,-6.281,-6.3049,-6.3137,-6.3137,-6.3137,-6.3137,-6.3137,-6.3137,-6.3137,-6.3137,-6.3137,-6.3137,-6.3137,-6.3137,-6.3137,-6.3378,-6.3977,-6.4665,-6.5263,-6.5892,-6.655,-6.6909,-6.6969,-6.6999,-6.6999,-6.6999,-6.6999,-6.6999,-6.7119,-6.7567,-6.7986,-6.8046,-6.9183,-6.9991,-7.032,-7.0141,-6.9542,-6.8884,-6.8675,-6.8525,-6.8525,-6.9183,-6.9931,-7.0081,-7.056,-7.0829,-7.0889,-7.0919,-7.0919,-7.0919,-7.0919,-7.0919,-7.0919,-7.0919,-7.0919,-7.0919,-7.0919,-7.0919,-7.0919,-7.0919,-7.0919,-7.0919,-7.0919,-7.0919,-7.0919,-7.0919,-7.0919,-7.0919,-7.0919,-7.0919,-7.0919,-7.0919,-7.0919,-7.0919,-7.0919,-7.0919,-7.0919,-7.0919,-7.0919,-7.0919,-7.0919,-7.0919,-7.0919,-7.0919,-7.0919,-7.0919,-7.0919,-7.0919,-7.0919,-7.0919,-7.0919,-7.0919,-7.0824,-7.0629,-7.0177,-6.9722,-6.8544,-5.9315,-5.9099,-5.9099,-5.9488,-6.0027,-6.0057,-6.0146,-6.0236,-6.0146,-5.9757,-5.9308,-5.9159,-5.9099,-5.9279,-5.9787,-6.0745,-6.1702,-6.2271,-6.263,-6.2989,-6.3137,-6.3137,-6.3137,-6.3137,-6.3137,-6.3137,-6.3137,-6.3137,-6.3137,-6.3137,-6.3137,-6.3137,-6.3137,-6.3408,-6.4096,-6.4695,-6.5383,-6.6101,-6.67,-6.6969,-6.6999,-6.6999,-6.6999,-6.6999,-6.6999,-6.6999,-6.7119,-6.7597,-6.7986,-6.8046,-6.8734,-6.9123,-6.9273,-6.9183,-6.8854,-6.8495,-6.8345,-6.8465,-6.8884,-6.9542,-7.0201,-7.062,-7.0829,-7.0889,-7.0919,-7.0919,-7.0919,-7.0919,-7.0919,-7.0919,-7.0919,-7.0919,-7.0919,-7.0919,-7.0919,-7.0919,-7.0919,-7.0919,-7.0919,-7.0919,-7.0919,-7.0919,-7.0919,-7.0919,-7.0919,-7.0919,-7.0919,-7.0919,-7.0919,-7.0919,-7.0919,-7.0919,-7.0919,-7.0919,-7.0919,-7.0919,-7.0919,-7.0919,-7.0919,-7.0919,-7.0919,-7.0919,-7.0919,-7.0919,-7.0919,-7.0919,-7.0919,-7.0919,-7.0919,-7.0919,-7.0919,-7.0919,-7.0504,-7.0117,-6.9538,-5.9315,-5.9099,-5.9099,-5.9488,-5.9967,-5.9697,-5.9787,-6.0027,-5.9727,-5.9398,-5.9189,-5.9099,-5.9099,-5.9279,-5.9787,-6.0835,-6.1792,-6.2091,-6.248,-6.2959,-6.3137,-6.3137,-6.3137,-6.3137,-6.3137,-6.3137,-6.3137,-6.3137,-6.3137,-6.3137,-6.3137,-6.3137,-6.3137,-6.3558,-6.4366,-6.4874,-6.5592,-6.634,-6.6819,-6.6999,-6.6999,-6.6999,-6.6999,-6.6999,-6.6999,-6.6999,-6.7059,-6.7208,-6.7448,-6.7567,-6.8106,-6.8196,-6.8196,-6.8315,-6.8495,-6.8495,-6.8495,-6.8794,-6.9453,-7.0081,-7.059,-7.0829,-7.0919,-7.0919,-7.0919,-7.0919,-7.0919,-7.0919,-7.0919,-7.0919,-7.0919,-7.0919,-7.0919,-7.0919,-7.0919,-7.0919,-7.0919,-7.0919,-7.0919,-7.0919,-7.0919,-7.0919,-7.0919,-7.0919,-7.0919,-7.0919,-7.0919,-7.0919,-7.0919,-7.0919,-7.0919,-7.0919,-7.0919,-7.0919,-7.0919,-7.0919,-7.0919,-7.0919,-7.0919,-7.0919,-7.0919,-7.0919,-7.0919,-7.0919,-7.0919,-7.0919,-7.0919,-7.0919,-7.0919,-7.0919,-7.0919,-7.0889,-7.0829,-7.0509,-6.9933,-5.9422,-5.9099,-5.9099,-5.9578,-6.0086,-5.9428,-5.9578,-6.0027,-5.9458,-5.9129,-5.9099,-5.9099,-5.9099,-5.9249,-5.9727,-6.0595,-6.1822,-6.1882,-6.2301,-6.2959,-6.3137,-6.3137,-6.3137,-6.3137,-6.3137,-6.3137,-6.3137,-6.3137,-6.3137,-6.3137,-6.3137,-6.3139,-6.3169,-6.3827,-6.4784,-6.5144,-6.5981,-6.661,-6.6999,-6.6999,-6.6999,-6.6999,-6.6999,-6.6999,-6.6999,-6.6999,-6.6999,-6.7029,-6.7059,-6.7178,-6.7448,-6.7627,-6.7388,-6.7687,-6.8345,-6.9004,-6.9064,-6.9363,-6.9901,-7.05,-7.0829,-7.0919,-7.0919,-7.0919,-7.0919,-7.0919,-7.0919,-7.0919,-7.0919,-7.0919,-7.0919,-7.0919,-7.0919,-7.0919,-7.0919,-7.0919,-7.0919,-7.0919,-7.0919,-7.0919,-7.0919,-7.0919,-7.0919,-7.0919,-7.0919,-7.0919,-7.0919,-7.0919,-7.0919,-7.0919,-7.0919,-7.0919,-7.0919,-7.0919,-7.0919,-7.0919,-7.0919,-7.0919,-7.0919,-7.0919,-7.0919,-7.0919,-7.0919,-7.0919,-7.0919,-7.0919,-7.0919,-7.0919,-7.0919,-7.0919,-7.0919,-7.0889,-7.0859,-7.0859,-7.0539,-5.9613,-5.9099,-5.9099,-5.9847,-6.0655,-5.9638,-5.9847,-6.0745,-5.9668,-5.9129,-5.9189,-5.9153,-5.9207,-5.9267,-5.9219,-6.0057,-6.0954,-6.1463,-6.2061,-6.2959,-6.3137,-6.3137,-6.3137,-6.3137,-6.3137,-6.3137,-6.3137,-6.3137,-6.3137,-6.3137,-6.3166,-6.3199,-6.3647,-6.4306,-6.5114,-6.5562,-6.6281,-6.6849,-6.6999,-6.6999,-6.6999,-6.6999,-6.6999,-6.6999,-6.6999,-6.6999,-6.6999,-6.6999,-6.6999,-6.6999,-6.7059,-6.7358,-6.7747,-6.7959,-6.8675,-6.9273,-6.9453,-6.9303,-6.9991,-7.059,-7.0919,-7.0919,-7.0919,-7.0919,-7.0919,-7.0919,-7.0919,-7.0919,-7.0919,-7.0919,-7.0919,-7.0919,-7.0919,-7.0919,-7.0919,-7.0919,-7.0919,-7.0919,-7.0919,-7.0919,-7.0919,-7.0919,-7.0919,-7.0919,-7.0919,-7.0919,-7.0919,-7.0919,-7.0919,-7.0919,-7.0919,-7.0919,-7.0919,-7.0919,-7.0919,-7.0919,-7.0919,-7.0919,-7.0919,-7.0919,-7.0919,-7.0919,-7.0919,-7.0919,-7.0919,-7.0919,-7.0919,-7.0919,-7.0919,-7.0919,-7.0919,-7.0919,-7.0889,-7.0919,-7.0919,-6.0399,-5.9315,-5.9315,-5.9801,-6.0416,-5.9877,-6.0206,-6.0775,-6.0086,-5.9668,-5.9711,-5.994,-6.0,-5.988,-5.9807,-6.0206,-6.1044,-6.1463,-6.2151,-6.2899,-6.3137,-6.3137,-6.3137,-6.3137,-6.3137,-6.3137,-6.3137,-6.3137,-6.3137,-6.3196,-6.3199,-6.3617,-6.3917,-6.4575,-6.5413,-6.5862,-6.637,-6.6789,-6.6999,-6.6999,-6.6999,-6.6999,-6.6999,-6.6999,-6.6999,-6.6999,-6.6999,-6.6999,-6.6999,-6.6999,-6.6999,-6.7298,-6.7777,-6.8076,-6.8555,-6.9752,-6.9752,-6.9871,-7.044,-7.0769,-7.0859,-7.0919,-7.0919,-7.0919,-7.0919,-7.0919,-7.0919,-7.0919,-7.0919,-7.0919,-7.0919,-7.0919,-7.0919,-7.0919,-7.0919,-7.0919,-7.0919,-7.0919,-7.0919,-7.0919,-7.0919,-7.0919,-7.0919,-7.0919,-7.0919,-7.0919,-7.0919,-7.0919,-7.0919,-7.0919,-7.0919,-7.0919,-7.0919,-7.0919,-7.0919,-7.0919,-7.0919,-7.0919,-7.0919,-7.0919,-7.0919,-7.0919,-7.0919,-7.0919,-7.0919,-7.0919,-7.0919,-7.0919,-7.0919,-7.0919,-7.0919,-7.0919,-7.0919,-7.0919,-7.0824,-6.1539,-6.0494,-6.0368,-6.0487,-6.0705,-6.0584,-6.0842,-6.1224,-6.0416,-6.0057,-6.0096,-6.0175,-6.0324,-6.0463,-6.0259,-6.0535,-6.1403,-6.1882,-6.248,-6.2899,-6.3137,-6.3137,-6.3137,-6.3137,-6.3137,-6.3137,-6.3137,-6.3137,-6.3196,-6.3288,-6.3588,-6.4006,-6.4216,-6.4904,-6.5742,-6.6221,-6.661,-6.6909,-6.6999,-6.6999,-6.6999,-6.6999,-6.6999,-6.6999,-6.6999,-6.6999,-6.6999,-6.7238,-6.7268,-6.6999,-6.7478,-6.7897,-6.8256,-6.8615,-6.9153,-7.0051,-7.0201,-7.038,-7.0679,-7.0889,-7.0919,-7.0919,-7.0919,-7.0919,-7.0919,-7.0919,-7.0919,-7.0919,-7.0919,-7.0919,-7.0919,-7.0919,-7.0919,-7.0919,-7.0919,-7.0919,-7.0919,-7.0919,-7.0919,-7.0919,-7.0919,-7.0919,-7.0919,-7.0919,-7.0919,-7.0919,-7.0919,-7.0919,-7.0919,-7.0919,-7.0919,-7.0919,-7.0919,-7.0919,-7.0919,-7.0919,-7.0919,-7.0919,-7.0919,-7.0919,-7.0919,-7.0919,-7.0919,-7.0919,-7.0919,-7.0919,-7.0919,-7.0919,-7.0919,-7.0919,-7.0919,-7.0919,-7.0919,-7.0919,-7.0824,-6.3228,-6.3084,-6.2617,-6.241,-6.2396,-6.1835,-6.174,-6.1882,-6.0655,-6.0141,-6.0096,-5.9675,-5.9891,-6.018,-6.0566,-6.098,-6.2028,-6.2061,-6.254,-6.2929,-6.3137,-6.3137,-6.3137,-6.3137,-6.3137,-6.3137,-6.3137,-6.3137,-6.3228,-6.3647,-6.3857,-6.4066,-6.4725,-6.5353,-6.6011,-6.655,-6.6759,-6.6999,-6.6999,-6.6999,-6.6999,-6.6999,-6.6999,-6.6999,-6.6999,-6.6999,-6.6999,-6.7418,-6.7478,-6.7059,-6.7867,-6.8525,-6.8734,-6.9243,-6.9901,-7.047,-7.0679,-7.0769,-7.0889,-7.0919,-7.0919,-7.0919,-7.0919,-7.0919,-7.0919,-7.0919,-7.0919,-7.0919,-7.0919,-7.0919,-7.0919,-7.0919,-7.0919,-7.0919,-7.0919,-7.0919,-7.0919,-7.0919,-7.0919,-7.0919,-7.0919,-7.0919,-7.0919,-7.0919,-7.0919,-7.0919,-7.0919,-7.0919,-7.0919,-7.0919,-7.0919,-7.0919,-7.0919,-7.0919,-7.0919,-7.0919,-7.0919,-7.0919,-7.0919,-7.0919,-7.0919,-7.0919,-7.0919,-7.0919,-7.0919,-7.0919,-7.0919,-7.0919,-7.0919,-7.0919,-7.0919,-7.0919,-7.0919,-7.0919,-7.0919,-6.4844,-6.5281,-6.5102,-6.4176,-6.2831,-6.2637,-6.2591,-6.2445,-6.1313,-6.0615,-6.0449,-6.0654,-6.1239,-6.1765,-6.1569,-6.1971,-6.2991,-6.2825,-6.2924,-6.2989,-6.3137,-6.3137,-6.3137,-6.3137,-6.3137,-6.3079,-6.3079,-6.3318,-6.3677,-6.4006,-6.4635,-6.5084,-6.5473,-6.5981,-6.655,-6.6819,-6.6939,-6.6999,-6.6999,-6.6999,-6.6999,-6.6999,-6.6999,-6.6999,-6.6999,-6.6999,-6.7029,-6.7208,-6.7178,-6.7328,-6.7986,-6.8555,-6.9064,-6.9662,-7.029,-7.0799,-7.0889,-7.0919,-7.0919,-7.0919,-7.0919,-7.0919,-7.0919,-7.0919,-7.0919,-7.0919,-7.0919,-7.0919,-7.0919,-7.0919,-7.0919,-7.0919,-7.0919,-7.0919,-7.0919,-7.0919,-7.0919,-7.0919,-7.0919,-7.0919,-7.0919,-7.0919,-7.0919,-7.0919,-7.0919,-7.0919,-7.0919,-7.0919,-7.0919,-7.0919,-7.0919,-7.0919,-7.0919,-7.0919,-7.0919,-7.0919,-7.0919,-7.0919,-7.0919,-7.0919,-7.0919,-7.0919,-7.0919,-7.0919,-7.0919,-7.0919,-7.0919,-7.0919,-7.0919,-7.0919,-7.0919,-7.0919,-7.0919,-7.0919,-7.0919,-6.6095,-6.6592,-6.6592,-6.5351,-6.3452,-6.3444,-6.3426,-6.3183,-6.2168,-6.1278,-6.0866,-6.1566,-6.2395,-6.2955,-6.3056,-6.3163,-6.3764,-6.3685,-6.3361,-6.3252,-6.3137,-6.3137,-6.3137,-6.3137,-6.3137,-6.3109,-6.3348,-6.3647,-6.3947,-6.4366,-6.5084,-6.5742,-6.6221,-6.658,-6.6789,-6.6999,-6.6999,-6.6999,-6.6999,-6.6999,-6.6999,-6.6999,-6.6999,-6.6999,-6.6999,-6.6999,-6.7089,-6.7268,-6.7268,-6.7478,-6.7986,-6.8675,-6.9213,-6.9752,-7.041,-7.0739,-7.0919,-7.0919,-7.0919,-7.0919,-7.0919,-7.0919,-7.0919,-7.0919,-7.0919,-7.0919,-7.0919,-7.0919,-7.0919,-7.0919,-7.0919,-7.0919,-7.0919,-7.0919,-7.0919,-7.0919,-7.0919,-7.0919,-7.0919,-7.0919,-7.0919,-7.0919,-7.0919,-7.0919,-7.0919,-7.0919,-7.0919,-7.0919,-7.0919,-7.0919,-7.0919,-7.0919,-7.0919,-7.0919,-7.0919,-7.0919,-7.0919,-7.0919,-7.0919,-7.0919,-7.0919,-7.0919,-7.0919,-7.0919,-7.0919,-7.0919,-7.0919,-7.0919,-7.0919,-7.0919,-7.0919,-7.0919,-7.0919,-7.0919,-7.0919,-6.677,-6.677,-6.6804,-6.5712,-6.4171,-6.4429,-6.4444,-6.415,-6.314,-6.2174,-6.1566,-6.2125,-6.2882,-6.361,-6.4209,-6.463,-6.487,-6.4727,-6.4097,-6.3478,-6.3194,-6.3137,-6.3137,-6.3137,-6.3169,-6.3228,-6.3558,-6.3887,-6.4216,-6.5114,-6.5832,-6.6191,-6.658,-6.6879,-6.6969,-6.6999,-6.6999,-6.6999,-6.6999,-6.6999,-6.6999,-6.6999,-6.6999,-6.6999,-6.6999,-6.6999,-6.7059,-6.7358,-6.7328,-6.7268,-6.8615,-6.9183,-6.9123,-7.0171,-7.0739,-7.0889,-7.0919,-7.0919,-7.0919,-7.0919,-7.0919,-7.0919,-7.0919,-7.0919,-7.0919,-7.0919,-7.0919,-7.0919,-7.0919,-7.0919,-7.0919,-7.0919,-7.0919,-7.0919,-7.0919,-7.0919,-7.0919,-7.0919,-7.0919,-7.0919,-7.0919,-7.0919,-7.0919,-7.0919,-7.0919,-7.0919,-7.0919,-7.0919,-7.0919,-7.0919,-7.0919,-7.0919,-7.0919,-7.0919,-7.0919,-7.0919,-7.0919,-7.0919,-7.0919,-7.0919,-7.0919,-7.0919,-7.0919,-7.0919,-7.0919,-7.0919,-7.0919,-7.0919,-7.1068,-7.1218,-7.0949,-7.0919,-7.0919,-7.0919,-7.0919,-6.6812,-6.6846,-6.7354,-6.6767,-6.5718,-6.5851,-6.565,-6.512,-6.4419,-6.3712,-6.349,-6.4328,-6.5428,-6.6085,-6.598,-6.6196,-6.6751,-6.5032,-6.432,-6.4097,-6.3421,-6.3194,-6.3137,-6.3169,-6.3318,-6.3647,-6.4006,-6.4635,-6.5383,-6.5922,-6.6311,-6.664,-6.6819,-6.6969,-6.6999,-6.6999,-6.6999,-6.6999,-6.6999,-6.6999,-6.6999,-6.6999,-6.6999,-6.6999,-6.6999,-6.6999,-6.6999,-6.7328,-6.7208,-6.7178,-6.8645,-6.9183,-6.9243,-7.0201,-7.0859,-7.0919,-7.0919,-7.0919,-7.0919,-7.0919,-7.0919,-7.0919,-7.0919,-7.0919,-7.0919,-7.0919,-7.0919,-7.0919,-7.0919,-7.0919,-7.0919,-7.0919,-7.0919,-7.0919,-7.0919,-7.0919,-7.0919,-7.0919,-7.0919,-7.0919,-7.0919,-7.0919,-7.0919,-7.0919,-7.0919,-7.0919,-7.0919,-7.0919,-7.0919,-7.0919,-7.0919,-7.0919,-7.0919,-7.0919,-7.0919,-7.0919,-7.0919,-7.0919,-7.0919,-7.0919,-7.0919,-7.0919,-7.0919,-7.0919,-7.0919,-7.0919,-7.1068,-7.1248,-7.1487,-7.1547,-7.1398,-7.1218,-7.1218,-7.1098,-7.0919,-6.6812,-6.688,-6.732,-6.7483,-6.729,-6.7188,-6.6744,-6.6108,-6.5883,-6.5505,-6.5203,-6.6302,-6.726,-6.759,-6.7433,-6.7125,-6.7687,-6.5759,-6.4265,-6.4153,-6.3508,-6.3194,-6.3166,-6.3288,-6.3617,-6.4036,-6.4605,-6.5233,-6.5862,-6.6221,-6.658,-6.6849,-6.6999,-6.6999,-6.6999,-6.6999,-6.6999,-6.6999,-6.6999,-6.6999,-6.6999,-6.6999,-6.6999,-6.6999,-6.6999,-6.6999,-6.6999,-6.6999,-6.6999,-6.7388,-6.8106,-6.8974,-6.9393,-7.0081,-7.0829,-7.0919,-7.0919,-7.0919,-7.0919,-7.0919,-7.0919,-7.0919,-7.0919,-7.0919,-7.0919,-7.0919,-7.0919,-7.0919,-7.0919,-7.0919,-7.0919,-7.0919,-7.0919,-7.0919,-7.0919,-7.0919,-7.0919,-7.0919,-7.0919,-7.0919,-7.0919,-7.0919,-7.0919,-7.0919,-7.0919,-7.0919,-7.0919,-7.0919,-7.0919,-7.0919,-7.0919,-7.0919,-7.0919,-7.0919,-7.0919,-7.0919,-7.0919,-7.0919,-7.0919,-7.0919,-7.0919,-7.0919,-7.0919,-7.0919,-7.0919,-7.1038,-7.1398,-7.1637,-7.2056,-7.2176,-7.2056,-7.1846,-7.1607,-7.1427,-7.1248,-6.6812,-6.6812,-6.688,-6.7751,-6.8827,-6.8294,-6.756,-6.6846,-6.7558,-6.7206,-6.6377,-6.7716,-6.8418,-6.8331,-6.7813,-6.7636,-6.7145,-6.5759,-6.4734,-6.3762,-6.3451,-6.3279,-6.3346,-6.3676,-6.3947,-6.4485,-6.5084,-6.5742,-6.6101,-6.652,-6.6879,-6.6969,-6.6999,-6.6999,-6.6999,-6.6999,-6.6999,-6.6999,-6.6999,-6.6999,-6.6999,-6.6999,-6.6999,-6.6999,-6.6999,-6.6999,-6.6999,-6.6999,-6.7059,-6.7508,-6.8256,-6.8824,-6.9453,-7.0231,-7.0679,-7.0919,-7.0919,-7.0919,-7.0919,-7.0919,-7.0919,-7.0919,-7.0919,-7.0919,-7.0919,-7.0919,-7.0919,-7.0919,-7.0919,-7.0919,-7.0919,-7.0919,-7.0919,-7.0919,-7.0919,-7.0919,-7.0919,-7.0919,-7.0919,-7.0919,-7.0919,-7.0919,-7.0919,-7.0919,-7.0919,-7.0919,-7.0919,-7.0919,-7.0919,-7.0919,-7.0919,-7.0919,-7.0919,-7.0919,-7.0919,-7.0919,-7.0919,-7.0919,-7.0919,-7.0919,-7.0919,-7.0919,-7.0919,-7.0919,-7.0979,-7.1218,-7.1816,-7.2355,-7.2834,-7.2864,-7.2864,-7.2624,-7.2445,-7.2116,-7.1906,-6.6812,-6.6914,-6.7963,-6.8707,-6.8992,-6.8719,-6.856,-6.8544,-6.7892,-6.7736,-6.8729,-6.9131,-6.9666,-7.0352,-7.001,-6.9713,-6.8732,-6.7553,-6.6606,-6.5467,-6.4071,-6.3508,-6.3549,-6.397,-6.4275,-6.4874,-6.5562,-6.6251,-6.658,-6.6939,-6.6939,-6.6999,-6.6999,-6.6999,-6.6999,-6.6999,-6.6999,-6.6999,-6.6999,-6.6999,-6.6999,-6.6999,-6.6999,-6.6999,-6.6999,-6.6999,-6.6999,-6.6999,-6.7148,-6.7777,-6.8495,-6.9123,-6.9782,-7.044,-7.0919,-7.0919,-7.0919,-7.0919,-7.0919,-7.0919,-7.0919,-7.0919,-7.0919,-7.0919,-7.0919,-7.0919,-7.0919,-7.0919,-7.0919,-7.0919,-7.0919,-7.0919,-7.0919,-7.0919,-7.0919,-7.0919,-7.0919,-7.0919,-7.0919,-7.0919,-7.0919,-7.0919,-7.0919,-7.0919,-7.0919,-7.0919,-7.0919,-7.0919,-7.0919,-7.0919,-7.0919,-7.0919,-7.0919,-7.0919,-7.0919,-7.0919,-7.0919,-7.0919,-7.0919,-7.0919,-7.0919,-7.0919,-7.0919,-7.1158,-7.1547,-7.1996,-7.2505,-7.3043,-7.3582,-7.3821,-7.3821,-7.3522,-7.3223,-7.2864,-7.2445,-6.6812,-6.6981,-6.8132,-6.8944,-6.9441,-6.9353,-6.9536,-6.9692,-6.8406,-6.864,-6.9906,-7.0277,-7.0738,-7.0985,-7.0436,-6.9949,-6.976,-6.7907,-6.6887,-6.6365,-6.5039,-6.5146,-6.5009,-6.4822,-6.5343,-6.5859,-6.6192,-6.646,-6.67,-6.667,-6.664,-6.6999,-6.6999,-6.6999,-6.6999,-6.6999,-6.6999,-6.6999,-6.6999,-6.6999,-6.6999,-6.6999,-6.6999,-6.6999,-6.6999,-6.6999,-6.6999,-6.6999,-6.7358,-6.7956,-6.8615,-6.9303,-6.9931,-7.056,-7.0889,-7.0919,-7.0919,-7.0919,-7.0919,-7.0919,-7.0919,-7.0919,-7.0919,-7.0919,-7.0919,-7.0919,-7.0919,-7.0919,-7.0919,-7.0919,-7.0919,-7.0919,-7.0919,-7.0919,-7.0919,-7.0919,-7.0919,-7.0919,-7.0919,-7.0919,-7.0919,-7.0919,-7.0919,-7.0919,-7.0919,-7.0919,-7.0919,-7.0919,-7.0919,-7.0919,-7.0919,-7.0919,-7.0919,-7.0919,-7.0919,-7.0919,-7.0919,-7.0919,-7.0919,-7.0919,-7.0949,-7.1248,-7.1517,-7.1906,-7.2355,-7.2804,-7.3253,-7.3821,-7.43,-7.445,-7.448,-7.427,-7.3911,-7.3582,-7.3103,-6.6846,-6.7015,-6.776,-6.9045,-7.0161,-7.0195,-7.04,-7.0759,-6.9412,-6.9332,-7.0242,-7.0962,-7.1199,-7.1098,-7.0389,-6.9902,-6.9537,-6.8355,-6.7705,-6.7298,-6.6117,-6.5989,-6.6299,-6.6432,-6.6092,-6.6907,-6.7214,-6.667,-6.6281,-6.637,-6.67,-6.6969,-6.6999,-6.6999,-6.6999,-6.6999,-6.6999,-6.6999,-6.6999,-6.6999,-6.6999,-6.6999,-6.6999,-6.6999,-6.6999,-6.6999,-6.6999,-6.7119,-6.7358,-6.8046,-6.8734,-6.9453,-7.0111,-7.059,-7.0829,-7.0919,-7.0919,-7.0919,-7.0919,-7.0919,-7.0919,-7.0919,-7.0919,-7.0919,-7.0919,-7.0919,-7.0919,-7.0919,-7.0919,-7.0919,-7.0919,-7.0919,-7.0919,-7.0919,-7.0919,-7.0919,-7.0919,-7.0919,-7.0919,-7.0919,-7.0919,-7.0919,-7.0919,-7.0919,-7.0919,-7.0919,-7.0919,-7.0919,-7.0919,-7.0919,-7.0919,-7.0919,-7.0919,-7.0919,-7.0919,-7.0919,-7.0919,-7.0919,-7.0919,-7.1098,-7.1248,-7.1697,-7.2206,-7.2654,-7.3073,-7.3522,-7.4001,-7.442,-7.4659,-7.4719,-7.4749,-7.4809,-7.4599,-7.421,-7.3762,-6.7151,-6.776,-6.9079,-7.0195,-7.0906,-7.0432,-7.0591,-7.112,-7.0242,-7.0197,-7.0749,-7.112,-7.1312,-7.1143,-7.0882,-7.062,-7.0309,-6.9394,-6.8976,-6.8466,-6.7448,-6.7174,-6.6988,-6.6893,-6.6577,-6.6493,-6.6642,-6.688,-6.6671,-6.6701,-6.6759,-6.6969,-6.6999,-6.6999,-6.6999,-6.6999,-6.6999,-6.6999,-6.6999,-6.6999,-6.6999,-6.6999,-6.6999,-6.6999,-6.6999,-6.6999,-6.7119,-6.7478,-6.8016,-6.8734,-6.9393,-7.0021,-7.0679,-7.0829,-7.0889,-7.0919,-7.0919,-7.0919,-7.0919,-7.0919,-7.0919,-7.0919,-7.0919,-7.0919,-7.0919,-7.0919,-7.0919,-7.0919,-7.0919,-7.0919,-7.0919,-7.0919,-7.0919,-7.0919,-7.0919,-7.0919,-7.0919,-7.0919,-7.0919,-7.0919,-7.0919,-7.0919,-7.0919,-7.0919,-7.0919,-7.0919,-7.0919,-7.0919,-7.0919,-7.0919,-7.0919,-7.0919,-7.0919,-7.0919,-7.0919,-7.0919,-7.0919,-7.0979,-7.1009,-7.1248,-7.1577,-7.2206,-7.2864,-7.3343,-7.3791,-7.4121,-7.439,-7.4659,-7.4839,-7.4869,-7.4869,-7.4869,-7.4869,-7.4569,-7.424,-6.7252,-6.8064,-6.9553,-7.0635,-7.1142,-7.0872,-7.0939,-7.1176,-7.0872,-7.0816,-7.1064,-7.1222,-7.1312,-7.1312,-7.1312,-7.1267,-7.1143,-7.0528,-7.053,-7.0181,-6.9432,-6.922,-6.8613,-6.7951,-6.773,-6.7481,-6.6794,-6.6763,-6.6822,-6.6793,-6.6732,-6.697,-6.6999,-6.6999,-6.6999,-6.6999,-6.6999,-6.6999,-6.6999,-6.6999,-6.6999,-6.6999,-6.6999,-6.6999,-6.6999,-6.6999,-6.7089,-6.7418,-6.7837,-6.8645,-6.9363,-7.0201,-7.0679,-7.0889,-7.0889,-7.0919,-7.0919,-7.0919,-7.0919,-7.0919,-7.0919,-7.0919,-7.0919,-7.0919,-7.0919,-7.0919,-7.0919,-7.0919,-7.0919,-7.0919,-7.0919,-7.0919,-7.0919,-7.0919,-7.0919,-7.0919,-7.0919,-7.0919,-7.0919,-7.0919,-7.0919,-7.0919,-7.0919,-7.0919,-7.0919,-7.0919,-7.0919,-7.0919,-7.0919,-7.0919,-7.0919,-7.0919,-7.0919,-7.0919,-7.0919,-7.0919,-7.0919,-7.0979,-7.1128,-7.1906,-7.2505,-7.2984,-7.3492,-7.3941,-7.427,-7.448,-7.4719,-7.4839,-7.4869,-7.4869,-7.4869,-7.4869,-7.4869,-7.4869,-7.4599,-6.7286,-6.8233,-6.962,-7.0635,-7.1244,-7.1312,-7.1312,-7.1312,-7.1278,-7.1278,-7.1267,-7.1267,-7.1312,-7.1312,-7.1098,-7.1222,-7.1153,-7.0876,-7.1442,-7.1812,-7.1298,-7.0743,-7.0329,-7.0026,-6.939,-6.8335,-6.7361,-6.6944,-6.6824,-6.6824,-6.6944,-6.7061,-6.6999,-6.6999,-6.6999,-6.6999,-6.6999,-6.6999,-6.6999,-6.6999,-6.6999,-6.6999,-6.6999,-6.6999,-6.6999,-6.6999,-6.6999,-6.7208,-6.7478,-6.8405,-6.9482,-7.026,-7.0709,-7.0919,-7.0919,-7.0919,-7.0919,-7.0919,-7.0919,-7.0919,-7.0919,-7.0919,-7.0919,-7.0919,-7.0919,-7.0919,-7.0919,-7.0919,-7.0919,-7.0919,-7.0919,-7.0919,-7.0919,-7.0919,-7.0919,-7.0919,-7.0919,-7.0919,-7.0919,-7.0919,-7.0919,-7.0919,-7.0919,-7.0919,-7.0919,-7.0919,-7.0919,-7.0919,-7.0919,-7.0919,-7.0919,-7.0919,-7.0919,-7.0919,-7.0919,-7.0949,-7.0979,-7.1278,-7.1577,-7.2595,-7.3402,-7.3762,-7.4121,-7.451,-7.4809,-7.4779,-7.4809,-7.4869,-7.4869,-7.4869,-7.4869,-7.4869,-7.4869,-7.4869,-7.4869,-6.7624,-6.8944,-6.9823,-7.0635,-7.1244,-7.1312,-7.1312,-7.1312,-7.1312,-7.1312,-7.1312,-7.1312,-7.1312,-7.1267,-7.0343,-7.0456,-7.1413,-7.1237,-7.1678,-7.2153,-7.2481,-7.195,-7.1278,-7.0844,-7.0291,-6.9007,-6.7688,-6.7094,-6.7184,-6.7276,-6.7306,-6.7365,-6.706,-6.6999,-6.6999,-6.6999,-6.6999,-6.6999,-6.6999,-6.6999,-6.6999,-6.6999,-6.6999,-6.6999,-6.6999,-6.6999,-6.7119,-6.7537,-6.8106,-6.8944,-6.9812,-7.047,-7.0829,-7.0919,-7.0919,-7.0919,-7.0919,-7.0919,-7.0919,-7.0919,-7.0919,-7.0919,-7.0919,-7.0919,-7.0919,-7.0919,-7.0919,-7.0919,-7.0919,-7.0919,-7.0919,-7.0919,-7.0919,-7.0919,-7.0919,-7.0919,-7.0919,-7.0919,-7.0919,-7.0919,-7.0919,-7.0919,-7.0919,-7.0919,-7.0919,-7.0919,-7.0919,-7.0919,-7.0919,-7.0919,-7.0919,-7.0919,-7.0919,-7.0919,-7.0919,-7.1068,-7.1158,-7.1487,-7.2026,-7.2954,-7.3762,-7.436,-7.4719,-7.4839,-7.4869,-7.4839,-7.4869,-7.4869,-7.4869,-7.4869,-7.4869,-7.4869,-7.4869,-7.4869,-7.4869]},{"header":{"parameterUnit":"m.s-1","parameterCategory":1,"la1":31.0,"la2":29.5877,"lo1":-88.7671,"lo2":-86.6584,"dx":0.0162,"dy":0.0185,"nx":115,"ny":88,"refTime":"2022-11-29T06:00:00:Z","depth":0,"parameterNumber":3,"parameterNumberName":"V-component_of_WINDS"},"data":[0.0,0.0,0.0,0.0,0.0,0.0,0.0,0.0,0.0,0.0,0.0,0.0,0.0,0.0,0.0,0.0,0.0,0.0,0.0,0.0,0.0,0.0,0.0,0.0,0.0,0.0,0.0,0.0,0.0,0.0,0.0,0.0,0.0,0.0,0.0,0.0,0.0,0.0,0.0,0.0,0.0,0.0,0.0,0.0,0.0,0.0,0.0,0.0,0.0,0.0,0.0,0.0,0.0,0.0,0.0,0.0,0.0,0.0,0.0,0.0,0.0,0.0,0.0,0.0,0.0,0.0,0.0,0.0,0.0,0.0,0.0,0.0,0.0,0.0,0.0,0.0,0.0,0.0,0.0,0.0,0.0,0.0,0.0,0.0,0.0,0.0,0.0,0.0,0.0,0.0,0.0,0.0,0.0,0.0,0.0,0.0,0.0,0.0,0.0,0.0,0.0,0.0,0.0,0.0,0.0,0.0,0.0,0.0,0.0,0.0,0.0,0.0,0.0,0.0,0.0,0.0,0.0,0.0,0.0,0.0,0.0,0.0,0.0,0.0,0.0,0.0,0.0,0.0,0.0,0.0,0.0,0.0,0.0,0.0,0.0,0.0,0.0,0.0,0.0,0.0,0.0,0.0,0.0,0.0,0.0,0.0,0.0,0.0,0.0,0.0,0.0,0.0,0.0,0.0,0.0,0.0,0.0,0.0,0.0,0.0,0.0,0.0,0.0,0.0,0.0,0.0,0.0,0.0,0.0,0.0,0.0,0.0,0.0,0.0,0.0,0.0,0.0,0.0,0.0,0.0,0.0,0.0,0.0,0.0,0.0,0.0,0.0,0.0,0.0,0.0,0.0,0.0,0.0,0.0,0.0,0.0,0.0,0.0,0.0,0.0,0.0,0.0,0.0,0.0,0.0,0.0,0.0,0.0,0.0,0.0,0.0,0.0,0.0,0.0,0.0,0.0,0.0,0.0,0.0,0.0,0.0,0.0,0.0,0.0,0.0,0.0,0.0,0.0,0.0,0.0,0.0,0.0,0.0,0.0,0.0,0.0,0.0,0.0,0.0,0.0,0.0,0.0,0.0,0.0,0.0,0.0,0.0,0.0,0.0,0.0,0.0,0.0,0.0,0.0,0.0,0.0,0.0,0.0,0.0,0.0,0.0,0.0,0.0,0.0,0.0,0.0,0.0,0.0,0.0,0.0,0.0,0.0,0.0,0.0,0.0,0.0,0.0,0.0,0.0,0.0,0.0,0.0,0.0,0.0,0.0,0.0,0.0,0.0,0.0,0.0,0.0,0.0,0.0,0.0,0.0,0.0,0.0,0.0,0.0,0.0,0.0,0.0,0.0,0.0,0.0,0.0,0.0,0.0,0.0,0.0,0.0,0.0,0.0,0.0,0.0,0.0,0.0,0.0,0.0,0.0,0.0,0.0,0.0,0.0,0.0,0.0,0.0,0.0,0.0,0.0,0.0,0.0,0.0,0.0,0.0,0.0,0.0,0.0,0.0,0.0,0.0,0.0,0.0,0.0,0.0,0.0,0.0,0.0,0.0,0.0,0.0,0.0,0.0,0.0,0.0,0.0,0.0,0.0,0.0,0.0,0.0,0.0,0.0,0.0,0.0,0.0,0.0,0.0,0.0,0.0,0.0,0.0,0.0,0.0,0.0,0.0,0.0,0.0,0.0,0.0,0.0,0.0,0.0,0.0,0.0,0.0,0.0,0.0,0.0,0.0,0.0,0.0,0.0,0.0,0.0,0.0,0.0,0.0,0.0,0.0,0.0,0.0,0.0,0.0,0.0,0.0,0.0,0.0,0.0,0.0,0.0,0.0,0.0,0.0,0.0,0.0,0.0,0.0,0.0,0.0,0.0,0.0,0.0,0.0,0.0,0.0,0.0,0.0,0.0,0.0,0.0,0.0,0.0,0.0,0.0,0.0,0.0,0.0,0.0,0.0,0.0,0.0,0.0,0.0,0.0,0.0,0.0,0.0,0.0,0.0,0.0,0.0,0.0,0.0,0.0,0.0,0.0,0.0,0.0,0.0,0.0,0.0,0.0,0.0,0.0,0.0,0.0,0.0,0.0,0.0,0.0,0.0,0.0,0.0,0.0,0.0,0.0,0.0,0.0,0.0,0.0,0.0,0.0,0.0,0.0,0.0,0.0,0.0,0.0,0.0,0.0,0.0,0.0,0.0,0.0,0.0,0.0,0.0,0.0,0.0,0.0,0.0,0.0,0.0,0.0,0.0,0.0,0.0,0.0,0.0,0.0,0.0,0.0,0.0,0.0,0.0,0.0,0.0,0.0,0.0,0.0,0.0,0.0,0.0,0.0,0.0,0.0,0.0,0.0,0.0,0.0,0.0,0.0,0.0,0.0,0.0,0.0,0.0,0.0,0.0,0.0,0.0,0.0,0.0,0.0,0.0,0.0,0.0,0.0,0.0,0.0,0.0,0.0,0.0,0.0,0.0,0.0,0.0,0.0,0.0,0.0,0.0,0.0,0.0,0.0,0.0,0.0,0.0,0.0,0.0,0.0,0.0,0.0,0.0,0.0,0.0,0.0,0.0,0.0,0.0,0.0,0.0,0.0,0.0,0.0,0.0,0.0,0.0,0.0,0.0,0.0,0.0,0.0,0.0,0.0,0.0,0.0,0.0,0.0,0.0,0.0,0.0,0.0,0.0,0.0,0.0,0.0,0.0,0.0,0.0,0.0,0.0,0.0,0.0,0.0,0.0,0.0,0.0,0.0,0.0,0.0,0.0,0.0,0.0,0.0,0.0,0.0,0.0,0.0,0.0,0.0,0.0,0.0,0.0,0.0,0.0,0.0,0.0,0.0,0.0,0.0,0.0,0.0,0.0,0.0,0.0,0.0,0.0,0.0,0.0,0.0,0.0,0.0,0.0,0.0,0.0,0.0,0.0,0.0,0.0,0.0,0.0,0.0,0.0,0.0,0.0,0.0,0.0,0.0,0.0,0.0,0.0,0.0,0.0,0.0,0.0,0.0,0.0,0.0,0.0,0.0,0.0,0.0,0.0,0.0,0.0,0.0,0.0,0.0,0.0,0.0,0.0,0.0,0.0,0.0,0.0,0.0,0.0,0.0,0.0,0.0,0.0,0.0,0.0,0.0,0.0,0.0,0.0,0.0,0.0,0.0,0.0,0.0,0.0,0.0,0.0,0.0,0.0,0.0,0.0,0.0,0.0,0.0,0.0,0.0,0.0,0.0,0.0,0.0,0.0,0.0,0.0,0.0,0.0,0.0,0.0,0.0,0.0,0.0,0.0,0.0,0.0,0.0,0.0,0.0,0.0,0.0,0.0,0.0,0.0,0.0,0.0,0.0,0.0,0.0,0.0,0.0,0.0,0.0,0.0,0.0,0.0,0.0,0.0,0.0,0.0,0.0,0.0,0.0,0.0,0.0,0.0,0.0,0.0,0.0,0.0,0.0,0.0,0.0,0.0,0.0,0.0,0.0,0.0,0.0,0.0,0.0,0.0,0.0,0.0,0.0,0.0,0.0,0.0,0.0,0.0,0.0,0.0,0.0,0.0,0.0,0.0,0.0,0.0,0.0,0.0,0.0,0.0,0.0,0.0,0.0,0.0,0.0,0.0,0.0,0.0,0.0,0.0,0.0,0.0,0.0,0.0,0.0,0.0,0.0,0.0,0.0,0.0,0.0,0.0,0.0,0.0,0.0,0.0,0.0,0.0,0.0,0.0,0.0,0.0,0.0,0.0,0.0,0.0,0.0,0.0,0.0,0.0,0.0,0.0,0.0,0.0,0.0,0.0,0.0,0.0,0.0,0.0,0.0,0.0,0.0,0.0,0.0,0.0,0.0,0.0,0.0,0.0,0.0,0.0,0.0,0.0,0.0,0.0,0.0,0.0,0.0,0.0,0.0,0.0,0.0,0.0,0.0,0.0,0.0,0.0,0.0,0.0,0.0,0.0,0.0,0.0,0.0,0.0,0.0,0.0,0.0,0.0,0.0,0.0,0.0,0.0,0.0,0.0,0.0,0.0,0.0,0.0,0.0,0.0,0.0,0.0,0.0,0.0,0.0,0.0,0.0,0.0,0.0,0.0,0.0,0.0,0.0,0.0,0.0,0.0,0.0,0.0,0.0,0.0,0.0,0.0,0.0,0.0,0.0,0.0,0.0,0.0,0.0,0.0,0.0,0.0,0.0,0.0,0.0,0.0,0.0,0.0,0.0,0.0,0.0,0.0,0.0,0.0,0.0,0.0,0.0,0.0,0.0,0.0,0.0,0.0,3.0269,0.0,0.0,0.0,3.174,0.0,0.0,0.0,0.0,0.0,0.0,0.0,0.0,0.0,0.0,0.0,0.0,0.0,0.0,0.0,0.0,0.0,0.0,0.0,0.0,0.0,0.0,0.0,0.0,0.0,0.0,0.0,0.0,0.0,0.0,0.0,0.0,0.0,0.0,0.0,0.0,0.0,0.0,0.0,0.0,0.0,0.0,0.0,0.0,0.0,0.0,0.0,0.0,0.0,0.0,0.0,0.0,0.0,0.0,0.0,0.0,0.0,0.0,0.0,0.0,0.0,0.0,0.0,0.0,0.0,0.0,0.0,0.0,0.0,0.0,0.0,0.0,0.0,0.0,0.0,0.0,0.0,0.0,0.0,0.0,0.0,0.0,0.0,0.0,0.0,0.0,0.0,0.0,0.0,0.0,0.0,0.0,0.0,0.0,0.0,0.0,0.0,0.0,0.0,0.0,0.0,0.0,0.0,0.0,0.0,0.0,0.0,0.0,0.0,0.0,3.1389,3.2127,3.2524,3.2655,3.2452,0.0,0.0,0.0,0.0,0.0,0.0,0.0,0.0,0.0,0.0,0.0,0.0,0.0,0.0,0.0,0.0,0.0,0.0,0.0,0.0,0.0,0.0,0.0,0.0,0.0,0.0,0.0,0.0,0.0,0.0,0.0,0.0,0.0,0.0,0.0,0.0,0.0,0.0,0.0,0.0,0.0,0.0,0.0,0.0,0.0,0.0,0.0,0.0,0.0,0.0,0.0,0.0,0.0,0.0,0.0,0.0,0.0,0.0,0.0,0.0,0.0,0.0,0.0,0.0,0.0,0.0,0.0,0.0,0.0,0.0,0.0,0.0,0.0,0.0,0.0,0.0,0.0,0.0,0.0,0.0,0.0,0.0,0.0,0.0,0.0,0.0,0.0,0.0,0.0,0.0,0.0,0.0,0.0,0.0,0.0,0.0,0.0,0.0,0.0,0.0,0.0,0.0,0.0,0.0,0.0,0.0,0.0,0.0,0.0,0.0,0.0,0.0,3.3744,3.356,3.3112,0.0,0.0,0.0,0.0,0.0,0.0,0.0,0.0,0.0,0.0,0.0,0.0,0.0,0.0,0.0,0.0,0.0,0.0,0.0,0.0,0.0,0.0,0.0,0.0,0.0,0.0,0.0,0.0,0.0,0.0,0.0,0.0,0.0,0.0,0.0,0.0,0.0,0.0,0.0,0.0,0.0,0.0,0.0,0.0,0.0,0.0,0.0,0.0,0.0,0.0,0.0,0.0,0.0,0.0,0.0,0.0,0.0,0.0,0.0,0.0,0.0,0.0,0.0,0.0,0.0,0.0,0.0,0.0,0.0,0.0,0.0,0.0,0.0,0.0,0.0,0.0,0.0,0.0,0.0,0.0,0.0,0.0,0.0,0.0,0.0,0.0,0.0,0.0,0.0,0.0,0.0,0.0,0.0,0.0,0.0,0.0,0.0,0.0,0.0,0.0,0.0,0.0,0.0,0.0,0.0,0.0,0.0,0.0,0.0,0.0,3.3097,3.4518,3.4846,0.0,3.3513,0.0,0.0,0.0,0.0,0.0,0.0,0.0,0.0,0.0,0.0,0.0,0.0,0.0,0.0,0.0,0.0,0.0,0.0,0.0,0.0,0.0,0.0,0.0,0.0,0.0,0.0,0.0,0.0,0.0,0.0,0.0,0.0,0.0,0.0,0.0,0.0,0.0,0.0,0.0,0.0,0.0,0.0,0.0,0.0,0.0,0.0,0.0,0.0,0.0,0.0,0.0,0.0,0.0,0.0,0.0,0.0,0.0,0.0,0.0,0.0,0.0,0.0,0.0,0.0,0.0,0.0,0.0,0.0,0.0,0.0,0.0,0.0,0.0,0.0,0.0,0.0,0.0,0.0,0.0,0.0,0.0,0.0,0.0,0.0,0.0,0.0,0.0,0.0,0.0,0.0,0.0,0.0,0.0,0.0,0.0,0.0,0.0,0.0,0.0,0.0,0.0,0.0,0.0,0.0,0.0,0.0,0.0,0.0,0.0,0.0,3.348,3.5133,3.452,3.3959,0.0,0.0,0.0,0.0,0.0,0.0,0.0,0.0,0.0,0.0,0.0,0.0,0.0,0.0,0.0,0.0,0.0,0.0,0.0,0.0,0.0,0.0,0.0,0.0,0.0,0.0,0.0,0.0,0.0,0.0,0.0,0.0,0.0,0.0,0.0,0.0,0.0,0.0,0.0,0.0,0.0,0.0,0.0,0.0,0.0,0.0,0.0,0.0,0.0,0.0,0.0,0.0,0.0,0.0,0.0,0.0,0.0,0.0,0.0,0.0,0.0,0.0,0.0,0.0,0.0,0.0,0.0,0.0,0.0,0.0,0.0,0.0,0.0,0.0,0.0,0.0,0.0,0.0,0.0,0.0,0.0,0.0,0.0,0.0,0.0,0.0,0.0,0.0,0.0,0.0,0.0,0.0,0.0,0.0,0.0,0.0,0.0,0.0,0.0,0.0,0.0,0.0,0.0,0.0,0.0,0.0,0.0,0.0,0.0,0.0,3.246,3.3669,3.5307,3.4203,3.3514,3.3484,0.0,0.0,0.0,0.0,0.0,0.0,0.0,0.0,0.0,0.0,0.0,0.0,0.0,0.0,0.0,0.0,0.0,0.0,0.0,0.0,0.0,0.0,0.0,0.0,0.0,0.0,0.0,0.0,0.0,0.0,0.0,0.0,0.0,0.0,0.0,0.0,0.0,0.0,0.0,0.0,0.0,0.0,0.0,0.0,0.0,0.0,0.0,0.0,0.0,0.0,0.0,0.0,0.0,0.0,0.0,0.0,0.0,0.0,0.0,0.0,0.0,0.0,0.0,0.0,0.0,0.0,0.0,0.0,0.0,0.0,0.0,0.0,0.0,0.0,0.0,0.0,0.0,0.0,0.0,0.0,0.0,0.0,0.0,0.0,0.0,0.0,0.0,0.0,0.0,0.0,0.0,0.0,0.0,0.0,0.0,0.0,0.0,0.0,0.0,0.0,0.0,0.0,0.0,0.0,0.0,0.0,0.0,0.0,3.0612,3.2069,3.3669,3.5397,3.4203,3.3514,0.0,0.0,0.0,0.0,0.0,0.0,0.0,0.0,0.0,0.0,0.0,0.0,0.0,0.0,0.0,0.0,0.0,0.0,0.0,0.0,0.0,0.0,0.0,0.0,0.0,0.0,0.0,0.0,0.0,0.0,0.0,0.0,0.0,0.0,0.0,0.0,0.0,0.0,0.0,0.0,0.0,0.0,0.0,0.0,0.0,0.0,0.0,0.0,0.0,0.0,0.0,0.0,0.0,0.0,0.0,0.0,0.0,0.0,0.0,0.0,0.0,0.0,0.0,0.0,0.0,0.0,0.0,0.0,0.0,0.0,0.0,0.0,0.0,0.0,0.0,0.0,0.0,0.0,0.0,0.0,0.0,0.0,0.0,0.0,0.0,0.0,0.0,0.0,0.0,0.0,0.0,0.0,0.0,0.0,0.0,0.0,0.0,0.0,0.0,0.0,0.0,0.0,0.0,0.0,0.0,0.0,0.0,0.0,0.0,3.1115,3.3216,3.4483,3.4831,3.3963,3.3305,0.0,0.0,0.0,0.0,0.0,0.0,0.0,0.0,0.0,0.0,0.0,0.0,0.0,0.0,0.0,0.0,0.0,0.0,0.0,0.0,0.0,0.0,0.0,0.0,0.0,0.0,0.0,0.0,0.0,0.0,0.0,0.0,0.0,0.0,0.0,0.0,0.0,0.0,0.0,0.0,0.0,0.0,0.0,0.0,0.0,0.0,0.0,0.0,0.0,0.0,0.0,0.0,0.0,0.0,0.0,0.0,0.0,0.0,0.0,0.0,0.0,0.0,0.0,0.0,0.0,0.0,0.0,0.0,0.0,0.0,0.0,0.0,0.0,0.0,0.0,0.0,0.0,0.0,0.0,0.0,0.0,0.0,0.0,0.0,0.0,0.0,0.0,0.0,0.0,0.0,0.0,0.0,0.0,0.0,0.0,0.0,0.0,0.0,0.0,0.0,0.0,0.0,0.0,0.0,0.0,0.0,0.0,0.0,0.0,3.1748,3.3664,3.475,3.4801,3.3963,3.3305,0.0,0.0,0.0,0.0,0.0,0.0,0.0,0.0,0.0,0.0,0.0,0.0,0.0,0.0,0.0,0.0,0.0,0.0,0.0,0.0,0.0,0.0,0.0,0.0,0.0,0.0,0.0,0.0,0.0,0.0,0.0,0.0,0.0,0.0,0.0,0.0,0.0,0.0,0.0,0.0,0.0,0.0,0.0,0.0,0.0,0.0,0.0,0.0,0.0,0.0,0.0,0.0,0.0,0.0,0.0,0.0,0.0,0.0,0.0,0.0,0.0,0.0,0.0,0.0,0.0,0.0,0.0,0.0,0.0,0.0,0.0,0.0,0.0,0.0,0.0,0.0,0.0,0.0,0.0,0.0,0.0,0.0,0.0,0.0,0.0,0.0,0.0,0.0,0.0,0.0,0.0,0.0,0.0,0.0,0.0,0.0,0.0,0.0,0.0,0.0,0.0,0.0,0.0,0.0,0.0,0.0,0.0,0.0,3.0043,3.2263,3.331,3.4437,3.5427,3.4262,3.3514,0.0,0.0,0.0,0.0,0.0,0.0,0.0,0.0,0.0,0.0,0.0,0.0,0.0,0.0,0.0,0.0,0.0,0.0,0.0,0.0,0.0,0.0,0.0,0.0,0.0,0.0,0.0,0.0,0.0,0.0,0.0,0.0,0.0,0.0,0.0,0.0,0.0,0.0,0.0,0.0,0.0,0.0,0.0,0.0,0.0,0.0,0.0,0.0,0.0,0.0,0.0,0.0,0.0,0.0,0.0,0.0,0.0,0.0,0.0,0.0,0.0,0.0,0.0,0.0,0.0,0.0,0.0,0.0,0.0,0.0,0.0,0.0,0.0,0.0,0.0,0.0,0.0,0.0,0.0,0.0,0.0,0.0,0.0,0.0,0.0,0.0,0.0,0.0,0.0,0.0,0.0,0.0,0.0,0.0,0.0,0.0,0.0,0.0,0.0,0.0,0.0,0.0,0.0,0.0,0.0,0.0,0.0,0.0,0.0,3.3594,3.5103,3.598,3.6178,3.534,3.4442,0.0,0.0,0.0,0.0,0.0,0.0,0.0,0.0,0.0,0.0,0.0,0.0,0.0,0.0,0.0,0.0,0.0,0.0,0.0,0.0,0.0,0.0,0.0,0.0,0.0,0.0,0.0,0.0,0.0,0.0,0.0,0.0,0.0,0.0,0.0,0.0,0.0,0.0,0.0,0.0,0.0,0.0,0.0,0.0,0.0,0.0,0.0,0.0,0.0,0.0,0.0,0.0,0.0,0.0,0.0,0.0,0.0,0.0,0.0,0.0,0.0,0.0,0.0,0.0,0.0,0.0,0.0,0.0,0.0,0.0,0.0,0.0,0.0,0.0,0.0,0.0,0.0,0.0,0.0,0.0,0.0,0.0,0.0,0.0,0.0,0.0,0.0,0.0,0.0,0.0,0.0,0.0,0.0,0.0,0.0,0.0,0.0,0.0,0.0,0.0,0.0,0.0,0.0,0.0,0.0,0.0,0.0,0.0,0.0,3.6283,3.7116,3.7701,3.7943,3.7007,3.5869,3.4556,0.0,0.0,0.0,0.0,0.0,0.0,0.0,0.0,0.0,0.0,0.0,0.0,0.0,0.0,0.0,0.0,0.0,0.0,0.0,0.0,0.0,0.0,0.0,0.0,0.0,0.0,0.0,0.0,0.0,0.0,0.0,0.0,0.0,0.0,0.0,0.0,0.0,0.0,0.0,0.0,0.0,0.0,0.0,0.0,0.0,0.0,0.0,0.0,0.0,0.0,0.0,0.0,0.0,0.0,0.0,0.0,0.0,0.0,0.0,0.0,0.0,0.0,0.0,0.0,0.0,0.0,0.0,0.0,0.0,0.0,0.0,0.0,0.0,0.0,0.0,0.0,0.0,0.0,0.0,0.0,0.0,0.0,0.0,0.0,0.0,0.0,0.0,0.0,0.0,0.0,0.0,0.0,0.0,0.0,0.0,0.0,0.0,0.0,0.0,0.0,0.0,0.0,0.0,0.0,0.0,0.0,0.0,0.0,4.0178,3.9429,3.955,4.0479,3.9013,3.7634,0.0,0.0,0.0,0.0,0.0,0.0,0.0,0.0,0.0,0.0,0.0,0.0,0.0,0.0,0.0,0.0,0.0,0.0,0.0,0.0,0.0,0.0,0.0,0.0,0.0,0.0,0.0,0.0,0.0,0.0,0.0,0.0,0.0,0.0,0.0,0.0,0.0,0.0,0.0,0.0,0.0,0.0,0.0,0.0,0.0,0.0,0.0,0.0,0.0,0.0,0.0,0.0,0.0,0.0,0.0,0.0,0.0,0.0,0.0,0.0,0.0,0.0,0.0,0.0,0.0,0.0,0.0,0.0,0.0,0.0,0.0,0.0,0.0,0.0,0.0,0.0,0.0,0.0,0.0,0.0,0.0,0.0,0.0,0.0,0.0,0.0,0.0,0.0,0.0,0.0,0.0,0.0,0.0,0.0,0.0,0.0,0.0,0.0,0.0,0.0,0.0,0.0,0.0,0.0,0.0,0.0,0.0,0.0,0.0,4.3534,4.3938,4.3586,4.2641,4.0658,3.9179,0.0,0.0,0.0,0.0,0.0,0.0,0.0,0.0,0.0,0.0,0.0,0.0,0.0,0.0,0.0,0.0,0.0,0.0,0.0,0.0,0.0,0.0,0.0,0.0,0.0,0.0,0.0,0.0,0.0,0.0,0.0,0.0,0.0,0.0,0.0,0.0,0.0,0.0,0.0,0.0,0.0,0.0,0.0,0.0,0.0,0.0,0.0,0.0,0.0,0.0,0.0,0.0,0.0,0.0,0.0,0.0,0.0,0.0,0.0,0.0,0.0,0.0,0.0,0.0,0.0,0.0,0.0,0.0,0.0,0.0,0.0,0.0,0.0,0.0,0.0,0.0,0.0,0.0,0.0,0.0,0.0,0.0,0.0,0.0,0.0,0.0,0.0,0.0,0.0,0.0,0.0,0.0,0.0,0.0,0.0,0.0,0.0,0.0,0.0,0.0,0.0,0.0,0.0,0.0,0.0,0.0,0.0,0.0,4.2545,4.5078,4.6599,4.6924,4.5903,4.3388,4.14,0.0,0.0,0.0,0.0,0.0,0.0,0.0,0.0,0.0,0.0,0.0,0.0,0.0,0.0,0.0,0.0,0.0,0.0,0.0,0.0,0.0,0.0,0.0,0.0,0.0,0.0,0.0,0.0,0.0,0.0,0.0,0.0,0.0,0.0,0.0,0.0,0.0,0.0,0.0,0.0,0.0,0.0,0.0,0.0,0.0,0.0,0.0,0.0,0.0,0.0,0.0,0.0,0.0,0.0,0.0,0.0,0.0,0.0,0.0,0.0,0.0,0.0,0.0,0.0,0.0,0.0,0.0,0.0,0.0,0.0,0.0,0.0,0.0,0.0,0.0,0.0,0.0,0.0,0.0,0.0,0.0,0.0,0.0,0.0,0.0,0.0,0.0,0.0,0.0,0.0,0.0,0.0,0.0,0.0,0.0,0.0,0.0,0.0,0.0,0.0,0.0,0.0,0.0,0.0,0.0,0.0,0.0,0.0,4.4216,4.5693,4.8117,4.9404,4.9374,4.6426,4.3808,0.0,0.0,0.0,0.0,0.0,0.0,0.0,0.0,0.0,0.0,0.0,0.0,0.0,0.0,0.0,0.0,0.0,0.0,0.0,0.0,0.0,0.0,0.0,0.0,0.0,0.0,0.0,0.0,0.0,0.0,0.0,0.0,0.0,0.0,0.0,0.0,0.0,0.0,0.0,0.0,0.0,0.0,0.0,0.0,0.0,0.0,0.0,0.0,0.0,0.0,0.0,0.0,0.0,0.0,0.0,0.0,0.0,0.0,0.0,0.0,0.0,0.0,0.0,0.0,0.0,0.0,0.0,0.0,0.0,0.0,0.0,0.0,0.0,0.0,0.0,0.0,0.0,0.0,0.0,0.0,0.0,0.0,0.0,0.0,0.0,0.0,0.0,0.0,0.0,0.0,0.0,0.0,0.0,0.0,0.0,0.0,0.0,0.0,0.0,0.0,0.0,0.0,0.0,0.0,0.0,0.0,0.0,0.0,4.6022,4.8431,4.9464,5.0272,5.078,4.6989,4.4667,0.0,0.0,0.0,0.0,0.0,0.0,0.0,0.0,0.0,0.0,0.0,0.0,0.0,0.0,0.0,0.0,0.0,0.0,0.0,0.0,0.0,0.0,0.0,0.0,0.0,0.0,0.0,0.0,0.0,0.0,0.0,0.0,0.0,0.0,0.0,0.0,0.0,0.0,0.0,0.0,0.0,0.0,0.0,0.0,0.0,0.0,0.0,0.0,3.9499,0.0,0.0,0.0,0.0,0.0,0.0,0.0,0.0,0.0,0.0,0.0,0.0,0.0,0.0,0.0,0.0,0.0,0.0,0.0,0.0,0.0,0.0,0.0,0.0,0.0,0.0,0.0,0.0,0.0,0.0,0.0,0.0,0.0,0.0,0.0,0.0,0.0,0.0,0.0,0.0,0.0,0.0,0.0,0.0,0.0,0.0,0.0,0.0,0.0,0.0,0.0,0.0,0.0,0.0,0.0,0.0,0.0,0.0,0.0,4.6804,4.9239,5.0212,5.0823,5.1109,4.8507,4.6367,0.0,0.0,0.0,0.0,0.0,0.0,0.0,0.0,0.0,0.0,0.0,0.0,0.0,0.0,0.0,0.0,0.0,0.0,0.0,0.0,0.0,0.0,0.0,0.0,0.0,0.0,0.0,0.0,0.0,0.0,0.0,0.0,0.0,0.0,0.0,0.0,0.0,0.0,0.0,0.0,0.0,0.0,0.0,0.0,0.0,0.0,0.0,0.0,0.0,0.0,0.0,0.0,0.0,0.0,0.0,0.0,0.0,0.0,0.0,0.0,0.0,0.0,0.0,0.0,0.0,0.0,0.0,0.0,0.0,0.0,0.0,0.0,0.0,0.0,0.0,0.0,0.0,0.0,0.0,0.0,0.0,0.0,0.0,0.0,0.0,0.0,0.0,0.0,0.0,0.0,0.0,0.0,0.0,0.0,0.0,0.0,0.0,0.0,0.0,0.0,0.0,0.0,0.0,0.0,0.0,0.0,0.0,4.4655,4.7285,4.9494,5.0661,5.1229,5.1199,5.0016,4.8164,4.5551,0.0,0.0,0.0,0.0,0.0,0.0,0.0,0.0,0.0,0.0,0.0,0.0,0.0,0.0,0.0,0.0,0.0,0.0,0.0,0.0,0.0,0.0,0.0,0.0,0.0,0.0,0.0,0.0,0.0,0.0,0.0,0.0,0.0,0.0,0.0,0.0,0.0,0.0,4.0516,4.1175,0.0,0.0,0.0,0.0,0.0,0.0,0.0,0.0,4.1055,0.0,0.0,0.0,0.0,0.0,0.0,0.0,0.0,0.0,0.0,0.0,0.0,0.0,0.0,0.0,0.0,0.0,0.0,0.0,0.0,0.0,0.0,0.0,0.0,0.0,0.0,0.0,0.0,0.0,0.0,0.0,0.0,0.0,0.0,0.0,0.0,0.0,0.0,0.0,0.0,0.0,0.0,0.0,0.0,0.0,0.0,0.0,0.0,0.0,0.0,0.0,0.0,0.0,0.0,0.0,0.0,4.2644,4.5443,4.8134,5.081,5.1109,5.1229,5.1199,5.0296,4.8545,4.5945,0.0,0.0,0.0,0.0,0.0,0.0,0.0,0.0,0.0,0.0,0.0,0.0,0.0,0.0,0.0,0.0,0.0,0.0,0.0,0.0,0.0,0.0,0.0,0.0,0.0,0.0,0.0,0.0,0.0,0.0,0.0,0.0,0.0,0.0,0.0,0.0,0.0,0.0,0.0,4.2171,4.244,0.0,0.0,0.0,0.0,0.0,0.0,0.0,0.0,4.1594,0.0,0.0,0.0,0.0,0.0,0.0,0.0,0.0,0.0,0.0,0.0,0.0,0.0,0.0,0.0,0.0,0.0,0.0,0.0,0.0,0.0,0.0,0.0,0.0,0.0,0.0,0.0,0.0,0.0,0.0,0.0,0.0,0.0,0.0,0.0,0.0,0.0,0.0,0.0,0.0,0.0,0.0,0.0,0.0,0.0,0.0,0.0,0.0,0.0,0.0,0.0,0.0,0.0,0.0,0.0,4.3806,4.6933,4.9683,5.2157,5.2247,5.2067,5.1738,5.0751,4.8816,0.0,0.0,0.0,0.0,0.0,0.0,0.0,0.0,0.0,0.0,0.0,0.0,0.0,0.0,0.0,0.0,0.0,0.0,0.0,0.0,0.0,0.0,0.0,0.0,0.0,0.0,0.0,0.0,0.0,0.0,0.0,0.0,0.0,0.0,0.0,0.0,0.0,0.0,0.0,0.0,4.3449,4.4137,4.4796,0.0,0.0,0.0,0.0,0.0,0.0,4.3329,4.3,0.0,0.0,0.0,0.0,0.0,0.0,0.0,0.0,0.0,0.0,0.0,0.0,0.0,0.0,0.0,0.0,0.0,0.0,0.0,0.0,0.0,0.0,0.0,0.0,0.0,0.0,0.0,0.0,0.0,0.0,0.0,0.0,0.0,0.0,0.0,0.0,0.0,0.0,0.0,0.0,0.0,0.0,0.0,0.0,0.0,0.0,0.0,0.0,0.0,0.0,0.0,0.0,0.0,0.0,0.0,4.4847,4.8201,5.0981,5.3054,5.3174,5.2935,5.2396,5.1024,4.8817,0.0,0.0,0.0,0.0,0.0,0.0,0.0,0.0,0.0,0.0,0.0,0.0,0.0,0.0,0.0,0.0,0.0,0.0,0.0,0.0,0.0,0.0,0.0,0.0,0.0,0.0,0.0,0.0,0.0,0.0,0.0,0.0,0.0,0.0,0.0,0.0,0.0,0.0,0.0,0.0,0.0,4.5992,4.68,4.5783,0.0,0.0,0.0,0.0,4.4915,4.5035,0.0,0.0,0.0,0.0,0.0,0.0,0.0,0.0,0.0,0.0,0.0,0.0,0.0,0.0,0.0,0.0,0.0,0.0,0.0,0.0,0.0,0.0,0.0,0.0,0.0,0.0,0.0,0.0,0.0,0.0,0.0,0.0,0.0,0.0,0.0,0.0,0.0,0.0,0.0,0.0,0.0,0.0,0.0,0.0,0.0,0.0,0.0,0.0,0.0,0.0,0.0,0.0,0.0,0.0,0.0,0.0,4.5245,4.8316,5.0981,5.3054,5.3174,5.3144,5.3054,5.0655,4.8348,0.0,0.0,0.0,0.0,0.0,0.0,0.0,0.0,0.0,0.0,0.0,0.0,0.0,0.0,0.0,0.0,0.0,0.0,0.0,0.0,0.0,0.0,0.0,0.0,0.0,0.0,0.0,0.0,0.0,0.0,0.0,0.0,0.0,0.0,0.0,0.0,0.0,0.0,0.0,0.0,0.0,4.7519,4.879,4.7818,4.6711,0.0,0.0,4.695,4.695,4.7459,0.0,0.0,0.0,0.0,0.0,0.0,0.0,0.0,0.0,0.0,0.0,0.0,0.0,0.0,0.0,0.0,0.0,0.0,0.0,0.0,0.0,0.0,0.0,0.0,0.0,0.0,0.0,0.0,0.0,0.0,0.0,0.0,0.0,0.0,0.0,0.0,0.0,0.0,0.0,0.0,0.0,0.0,0.0,0.0,0.0,0.0,0.0,0.0,0.0,0.0,0.0,0.0,0.0,0.0,0.0,4.1518,4.5705,4.9592,5.2453,5.4251,5.4311,5.4132,5.3773,5.1012,4.8508,0.0,0.0,0.0,0.0,0.0,0.0,0.0,0.0,0.0,0.0,0.0,0.0,0.0,0.0,0.0,0.0,0.0,0.0,0.0,0.0,0.0,0.0,0.0,0.0,0.0,0.0,0.0,0.0,0.0,0.0,0.0,0.0,0.0,0.0,0.0,0.0,0.0,0.0,0.0,0.0,0.0,0.0,4.9643,4.9344,0.0,0.0,0.0,4.8835,4.8476,0.0,0.0,0.0,0.0,0.0,0.0,0.0,0.0,0.0,0.0,0.0,0.0,0.0,0.0,0.0,0.0,0.0,0.0,0.0,0.0,0.0,0.0,0.0,0.0,0.0,0.0,0.0,0.0,0.0,0.0,0.0,0.0,0.0,0.0,0.0,0.0,0.0,0.0,0.0,0.0,0.0,0.0,0.0,0.0,0.0,0.0,0.0,0.0,0.0,0.0,0.0,0.0,0.0,0.0,0.0,0.0,0.0,4.6195,5.0554,5.3615,5.5149,5.5209,5.494,5.4431,5.1611,0.0,0.0,0.0,0.0,0.0,0.0,0.0,0.0,0.0,0.0,0.0,0.0,0.0,0.0,0.0,0.0,0.0,0.0,0.0,0.0,0.0,0.0,0.0,0.0,0.0,0.0,0.0,3.329,0.0,0.0,0.0,0.0,0.0,0.0,0.0,0.0,0.0,0.0,0.0,0.0,0.0,0.0,4.9254,5.0495,5.0823,5.0943,0.0,0.0,5.081,5.0331,5.1229,5.1139,0.0,0.0,0.0,0.0,0.0,0.0,0.0,0.0,0.0,0.0,0.0,0.0,0.0,0.0,0.0,0.0,0.0,0.0,0.0,0.0,0.0,0.0,0.0,0.0,0.0,0.0,0.0,0.0,0.0,0.0,0.0,0.0,0.0,0.0,0.0,0.0,0.0,0.0,0.0,0.0,0.0,0.0,0.0,0.0,0.0,0.0,0.0,0.0,0.0,0.0,0.0,0.0,0.0,0.0,4.2312,4.6795,5.0789,5.3585,5.5119,5.5209,5.5179,5.5089,5.2437,4.9688,0.0,0.0,0.0,0.0,0.0,0.0,0.0,0.0,0.0,0.0,0.0,0.0,0.0,0.0,0.0,0.0,0.0,0.0,0.0,0.0,0.0,0.0,0.0,0.0,0.0,0.0,0.0,0.0,0.0,0.0,0.0,0.0,0.0,0.0,0.0,0.0,0.0,0.0,0.0,0.0,0.0,5.0571,5.1887,5.2606,5.2995,0.0,0.0,5.2965,5.2905,5.3533,5.3324,5.1259,0.0,0.0,0.0,0.0,0.0,0.0,0.0,0.0,0.0,0.0,0.0,0.0,0.0,0.0,0.0,0.0,0.0,0.0,0.0,0.0,0.0,0.0,0.0,0.0,0.0,0.0,0.0,0.0,0.0,0.0,0.0,0.0,0.0,0.0,0.0,0.0,0.0,0.0,0.0,0.0,0.0,0.0,0.0,0.0,0.0,0.0,0.0,0.0,0.0,0.0,0.0,0.0,0.0,4.1831,4.5788,5.0242,5.3129,5.427,5.4869,5.5209,5.5209,5.2496,4.9999,0.0,0.0,0.0,0.0,0.0,0.0,0.0,0.0,0.0,0.0,0.0,0.0,0.0,0.0,0.0,0.0,0.0,0.0,0.0,0.0,0.0,0.0,0.0,0.0,0.0,0.0,0.0,0.0,4.1069,4.1863,4.2021,0.0,0.0,0.0,0.0,0.0,0.0,0.0,0.0,0.0,0.0,5.1917,5.3264,5.4341,0.0,0.0,5.508,5.488,5.4491,5.464,5.4132,5.2157,5.0182,0.0,0.0,0.0,0.0,0.0,0.0,0.0,0.0,0.0,0.0,0.0,0.0,0.0,0.0,0.0,0.0,0.0,0.0,0.0,0.0,0.0,0.0,0.0,0.0,0.0,0.0,0.0,0.0,0.0,0.0,0.0,0.0,0.0,0.0,0.0,0.0,0.0,0.0,0.0,0.0,0.0,0.0,0.0,0.0,0.0,0.0,0.0,0.0,0.0,0.0,0.0,0.0,4.1623,4.5464,5.0066,5.3,5.4211,5.4839,5.5209,5.5149,5.3079,5.0816,0.0,0.0,0.0,0.0,0.0,0.0,0.0,0.0,0.0,0.0,0.0,0.0,0.0,0.0,0.0,0.0,0.0,0.0,0.0,0.0,0.0,0.0,0.0,0.0,0.0,0.0,0.0,0.0,4.2733,4.3,4.2201,0.0,0.0,0.0,0.0,0.0,0.0,0.0,0.0,0.0,0.0,5.3294,5.461,5.5748,5.6376,5.6196,5.6218,5.6008,5.5299,5.5209,5.464,5.3054,0.0,0.0,0.0,0.0,0.0,0.0,0.0,0.0,0.0,0.0,0.0,0.0,0.0,0.0,0.0,0.0,0.0,0.0,0.0,0.0,0.0,0.0,0.0,0.0,0.0,0.0,0.0,0.0,0.0,0.0,3.0557,0.0,0.0,0.0,0.0,0.0,0.0,0.0,0.0,0.0,0.0,0.0,0.0,0.0,0.0,0.0,0.0,0.0,0.0,0.0,0.0,0.0,0.0,4.1907,4.6421,5.0339,5.3307,5.5039,5.5179,5.5128,5.5128,5.419,5.2251,4.9093,0.0,0.0,0.0,0.0,0.0,0.0,0.0,0.0,0.0,0.0,0.0,0.0,0.0,0.0,0.0,0.0,0.0,0.0,0.0,0.0,0.0,0.0,0.0,0.0,0.0,0.0,4.116,4.2494,4.288,0.0,0.0,0.0,0.0,0.0,0.0,0.0,0.0,0.0,0.0,5.2875,5.464,5.5957,5.6675,5.6915,5.6398,5.6278,5.5987,5.5359,5.5239,5.497,0.0,0.0,0.0,0.0,0.0,0.0,0.0,0.0,0.0,0.0,0.0,0.0,0.0,0.0,0.0,0.0,0.0,0.0,0.0,0.0,0.0,0.0,0.0,0.0,0.0,0.0,0.0,3.4299,3.3571,0.0,0.0,0.0,0.0,0.0,0.0,0.0,0.0,0.0,0.0,0.0,3.9898,3.9396,0.0,0.0,0.0,0.0,0.0,0.0,0.0,0.0,0.0,0.0,0.0,0.0,4.2021,4.5616,5.0066,5.3,5.419,5.3914,5.3756,5.3727,5.1856,4.9908,4.7949,0.0,0.0,0.0,0.0,0.0,0.0,0.0,0.0,0.0,0.0,0.0,0.0,0.0,0.0,0.0,0.0,0.0,0.0,0.0,0.0,0.0,0.0,0.0,0.0,0.0,4.184,0.0,0.0,0.0,0.0,0.0,0.0,0.0,0.0,0.0,0.0,0.0,4.9927,5.2845,5.4551,5.5987,5.7304,5.8022,5.8501,0.0,0.0,0.0,0.0,0.0,0.0,0.0,0.0,0.0,0.0,0.0,0.0,0.0,0.0,5.0062,4.7472,4.713,4.713,4.6753,0.0,0.0,0.0,0.0,0.0,0.0,0.0,0.0,0.0,0.0,0.0,0.0,0.0,0.0,3.701,0.0,3.578,0.0,0.0,0.0,0.0,0.0,0.0,0.0,0.0,4.0375,4.163,4.2404,4.2108,4.1957,0.0,4.0425,3.8517,0.0,0.0,0.0,0.0,0.0,0.0,0.0,0.0,4.2343,4.5453,4.9919,5.2561,5.3179,5.299,5.2697,5.2348,5.0381,4.9009,4.8501,4.6602,4.4924,0.0,0.0,0.0,0.0,0.0,0.0,0.0,0.0,0.0,0.0,0.0,0.0,0.0,0.0,0.0,0.0,0.0,0.0,0.0,0.0,0.0,0.0,0.0,4.2967,0.0,0.0,0.0,0.0,0.0,0.0,0.0,0.0,0.0,4.8043,5.0122,5.2468,5.491,5.6346,5.7513,5.8351,0.0,0.0,0.0,0.0,0.0,0.0,0.0,5.7603,5.7004,5.6555,5.6316,5.6526,5.6376,5.6226,5.6196,0.0,0.0,5.2055,5.1678,5.1738,5.1109,5.1216,5.1439,5.1887,5.2252,5.2876,0.0,0.0,0.0,0.0,0.0,0.0,0.0,0.0,3.9823,3.9521,0.0,3.8994,0.0,0.0,0.0,0.0,0.0,3.8165,0.0,0.0,4.4091,4.5171,4.4669,4.4585,4.4644,4.4485,4.2534,4.1781,4.2112,3.9546,0.0,0.0,0.0,0.0,0.0,0.0,4.2968,4.6035,4.9947,5.2042,5.2133,5.2309,5.1974,5.11,4.9702,4.9505,5.0547,4.8599,4.7631,4.8088,4.4612,0.0,0.0,0.0,0.0,0.0,0.0,0.0,0.0,0.0,0.0,0.0,0.0,0.0,0.0,0.0,0.0,0.0,0.0,0.0,0.0,4.2205,0.0,0.0,0.0,0.0,0.0,0.0,0.0,0.0,0.0,0.0,5.1498,5.3084,5.497,5.6885,0.0,0.0,0.0,0.0,6.0625,5.9428,5.9727,5.9907,5.9279,5.9159,5.9368,5.9937,0.0,0.0,5.9308,5.868,5.8321,5.8291,5.9308,5.9189,5.6047,5.5448,5.5209,5.464,5.497,5.5359,5.5418,5.5867,5.6517,4.1414,0.0,0.0,0.0,0.0,4.0523,4.1326,4.2057,4.2459,4.2333,4.1781,4.1433,0.0,0.0,0.0,0.0,0.0,0.0,4.153,4.3137,4.4317,4.5196,4.5824,4.5824,4.5824,4.5799,4.5196,4.497,4.507,4.4317,4.2082,3.8542,0.0,0.0,0.0,0.0,4.4355,4.6866,4.9775,5.1627,5.2296,5.1386,5.0217,4.8877,4.8747,4.9495,5.1263,5.0906,5.0688,5.0543,4.8198,0.0,0.0,0.0,0.0,0.0,0.0,0.0,0.0,0.0,0.0,0.0,0.0,0.0,0.0,0.0,0.0,0.0,0.0,0.0,4.1249,4.402,4.5284,0.0,0.0,0.0,0.0,0.0,0.0,0.0,0.0,0.0,5.6017,5.5807,5.6316,0.0,0.0,5.874,5.9668,6.0146,6.0595,6.1164,6.0984,0.0,6.0565,6.0535,6.0416,6.0146,6.0894,6.1463,6.1283,6.1463,6.1642,6.1642,6.1972,6.1882,6.1044,6.0027,5.9368,5.9189,5.9308,5.9398,5.9428,5.9578,5.9727,4.4317,4.2735,4.1856,4.163,4.1907,4.276,4.3589,4.4317,4.4669,4.4493,4.3966,4.3865,4.2936,4.143,4.035,0.0,0.0,0.0,4.3212,4.4794,4.5146,4.5673,4.6301,4.6326,4.6326,4.6301,4.6075,4.62,4.6627,4.6295,4.4986,4.266,0.0,0.0,4.1453,4.3458,4.5437,4.7383,4.9643,5.0932,5.1138,5.0082,4.8968,4.797,4.8306,4.9602,5.184,5.1591,5.2008,5.3337,5.009,4.7085,0.0,0.0,0.0,0.0,0.0,0.0,0.0,0.0,0.0,0.0,0.0,3.5359,3.5303,0.0,0.0,0.0,4.0161,4.1357,4.4035,4.5465,0.0,0.0,0.0,0.0,0.0,0.0,0.0,5.3025,5.5388,5.7453,5.871,5.8231,5.8261,5.9697,5.9787,5.9907,6.0416,0.0,6.1463,6.2032,6.2181,6.2271,6.2271,6.248,6.251,6.2121,6.269,6.3228,6.3258,6.3588,6.3737,6.3528,6.3438,6.3438,6.3438,6.26,6.1792,6.1553,6.1493,6.1493,6.1493,6.1523,6.1583,4.6326,4.6125,4.4091,4.3539,4.4041,4.4543,4.5347,4.6301,4.6301,4.6024,4.5598,4.6075,4.5171,4.3187,4.2183,0.0,4.4016,4.3991,4.4819,4.6301,4.6326,4.6326,4.6326,4.6326,4.6326,4.6301,4.5824,4.615,4.7054,4.6509,4.6534,4.7129,4.5146,4.4036,4.3782,4.4999,4.6365,4.7717,4.9551,5.0201,4.9548,4.8865,4.8407,4.8308,4.8494,4.9802,5.2218,5.1146,5.2099,5.5486,5.0759,4.7933,4.8014,0.0,0.0,0.0,0.0,0.0,0.0,0.0,0.0,0.0,0.0,0.0,0.0,0.0,0.0,4.2613,4.4462,0.0,4.7836,4.6886,0.0,0.0,0.0,4.9551,5.2043,5.3495,5.4889,5.6196,0.0,0.0,6.0086,6.0236,6.0535,6.1253,6.1732,6.1822,6.1253,6.2241,6.2869,6.2391,6.3288,6.4036,6.3977,6.4455,6.4755,6.4725,6.5024,6.4904,6.4904,6.4934,6.4725,6.4216,6.4066,6.4096,6.4096,6.3617,6.3049,6.248,6.2271,6.2181,6.2181,6.2241,6.245,4.6326,4.6276,4.5723,4.5598,4.5723,4.5849,4.605,4.6301,4.6326,4.6225,4.6125,4.625,4.6024,4.5497,4.5246,4.5347,4.5723,4.5723,4.5924,4.6301,4.6326,4.6326,4.6326,4.6326,4.6326,4.6326,4.6602,4.6878,4.7129,4.7648,4.7973,4.8165,4.7658,4.7005,4.6235,4.6955,4.7744,4.8517,4.9365,5.0322,5.1259,5.029,5.0115,5.0976,5.043,5.0509,5.1329,5.1283,5.1851,5.3164,5.1108,4.9519,4.8727,4.5291,0.0,0.0,0.0,0.0,0.0,0.0,0.0,0.0,0.0,3.8592,3.863,0.0,4.3205,0.0,4.7514,4.9501,4.961,5.023,0.0,0.0,5.157,5.2088,5.2738,5.4591,5.6189,5.7202,5.8505,5.9896,6.1463,6.1613,6.2032,6.3109,6.2181,6.1463,6.1822,6.254,6.3199,6.3528,6.4246,6.4784,6.4814,6.4904,6.5054,6.5024,6.5054,6.5024,6.5024,6.5024,6.4964,6.4814,6.4784,6.4784,6.4784,6.4665,6.4515,6.4306,6.3528,6.2839,6.2839,6.3199,6.3588,4.6326,4.6326,4.6326,4.6326,4.6326,4.6326,4.6326,4.6326,4.6326,4.6326,4.6326,4.6326,4.6326,4.6326,4.6326,4.6326,4.6326,4.6326,4.6326,4.6326,4.6326,4.6326,4.6326,4.6326,4.6451,4.6677,4.6979,4.738,4.7857,4.8559,4.8962,4.9191,4.9216,4.8976,4.8422,4.8347,4.846,4.8761,5.0028,5.1393,5.2788,5.1731,5.1475,5.1987,5.1116,5.0959,5.169,5.0876,5.1127,5.2563,5.0393,4.9042,4.8877,4.6508,4.3972,0.0,0.0,0.0,0.0,0.0,0.0,0.0,0.0,0.0,0.0,0.0,4.5986,4.6811,4.9872,5.1672,5.1429,5.2698,5.3611,5.3852,5.4386,5.4902,5.5248,5.6643,5.7778,5.8297,5.9915,6.1275,6.2019,6.2875,6.3589,6.4159,6.3411,6.2989,6.3348,6.3737,6.4066,6.4425,6.5024,6.5592,6.5832,6.5892,6.5892,6.5922,6.5892,6.5892,6.5892,6.5892,6.5832,6.5533,6.5473,6.5473,6.5443,6.5203,6.5114,6.5263,6.4665,6.4036,6.3947,6.4216,6.4455,4.6326,4.6326,4.6326,4.6326,4.6326,4.6326,4.6326,4.6326,4.6326,4.6326,4.6326,4.6326,4.6326,4.6326,4.6326,4.6326,4.6326,4.6326,4.6326,4.6326,4.6326,4.6326,4.6326,4.6376,4.6677,4.7068,4.728,4.7832,4.8825,4.9242,4.9647,5.0104,5.0129,5.0078,4.9938,4.9279,4.8989,4.9179,5.1007,5.2639,5.4029,5.3072,5.2493,5.2425,5.1406,5.1372,5.2338,5.0412,5.028,5.2416,4.9429,4.808,4.9227,4.7538,4.5805,0.0,4.3468,0.0,0.0,0.0,0.0,0.0,0.0,0.0,0.0,4.7189,4.863,4.9587,5.1788,5.3335,5.3667,5.4838,5.591,5.6741,5.6884,5.7202,5.7983,5.8654,5.9123,5.9356,6.1288,6.2469,6.247,6.3713,6.4455,6.4213,6.4032,6.4003,6.4573,6.4844,6.5114,6.5114,6.5712,6.6311,6.6759,6.6909,6.6909,6.6939,6.6879,6.6999,6.6909,6.6939,6.6759,6.6281,6.6131,6.6131,6.6131,6.5682,6.5503,6.6041,6.5652,6.5203,6.4994,6.5054,6.5144,4.6326,4.6326,4.6326,4.6326,4.6326,4.6326,4.6326,4.6326,4.6326,4.6326,4.6326,4.6326,4.6326,4.6326,4.6326,4.6326,4.6326,4.6326,4.6326,4.6326,4.6326,4.6326,4.6326,4.6778,4.6968,4.7118,4.8033,4.856,4.8786,4.9558,5.0028,5.0104,5.0129,4.9875,4.9495,0.0,0.0,0.0,5.1403,5.2727,5.4946,5.344,5.312,5.4248,5.2527,0.0,5.1759,5.1106,5.0597,5.0419,4.9939,0.0,0.0,0.0,0.0,0.0,0.0,0.0,0.0,0.0,0.0,0.0,4.9003,4.8569,4.8379,4.9001,5.0315,5.2419,5.3599,5.5205,5.7703,5.7772,5.7912,5.8558,5.7513,5.6874,5.7262,5.7916,5.8774,6.0071,6.1597,6.2849,6.3319,6.2971,6.264,6.3003,6.2138,6.1883,6.2688,6.4414,6.5711,6.5862,6.631,6.6819,6.6969,6.7029,6.7119,6.6999,6.6999,6.6999,6.7029,6.6999,6.6999,6.6789,6.6819,6.6789,6.6789,6.67,6.658,6.6789,6.67,6.6311,6.5293,6.5473,6.5832,4.6326,0.0,4.6326,4.6326,0.0,4.6326,4.6476,4.6728,4.6728,4.6853,4.7104,4.7104,4.7104,4.7104,4.7104,4.6954,4.6728,4.6728,4.6577,4.6326,4.6602,4.6728,4.6728,4.7255,4.7682,4.7958,4.851,4.8912,4.9252,4.9657,4.9912,5.0129,4.9912,4.9785,4.9723,4.9785,5.0689,5.2447,5.2604,5.3697,5.5703,5.3869,5.3332,5.4323,5.2661,0.0,0.0,0.0,0.0,0.0,0.0,0.0,0.0,0.0,0.0,5.2658,5.196,5.1486,5.1294,5.0934,5.1375,5.2749,5.2761,5.2185,5.1023,5.1575,5.2765,5.4616,5.5579,5.6842,5.8717,5.9112,5.9094,5.8841,5.8075,5.7463,5.7066,5.7236,5.7748,5.8546,5.9949,6.109,6.131,6.1683,6.1716,6.1921,6.1486,6.1197,6.1875,6.3184,6.4386,6.5352,6.6659,6.7478,6.7508,6.7807,6.7986,6.7956,6.7687,6.7508,6.7478,6.7208,6.6999,6.6999,6.6999,6.6999,6.6999,6.6999,6.7089,6.7358,6.7208,6.7119,6.6879,6.6729,6.649,4.6451,4.6451,4.6351,4.6326,4.6326,4.6426,4.6828,4.7405,0.0,0.0,0.0,4.7908,4.7908,4.7908,4.7908,4.7682,4.7218,4.7255,4.7029,4.6627,4.7054,4.7218,4.7305,4.7807,4.8309,4.8761,4.8862,4.9163,4.959,4.959,4.9719,4.9976,4.9719,4.9783,5.0065,5.0295,5.132,5.3146,5.3456,5.4323,5.5789,5.4052,5.341,5.4063,5.2686,5.2177,5.2786,5.2465,5.225,5.2261,5.2825,5.3342,5.4025,5.4769,5.5197,5.5339,5.4913,5.4656,5.4793,5.4161,5.4211,5.5274,5.5647,5.5119,5.3266,5.3913,5.4916,5.6073,5.6873,5.7579,5.8523,5.9074,5.9185,5.8372,5.8143,5.7638,5.6866,5.6885,5.7046,5.7219,5.8585,5.9394,5.9342,6.0293,6.1111,6.0797,6.0699,6.0974,6.1152,6.1761,6.299,6.4567,6.6265,6.7585,6.8046,6.8495,6.8974,6.8854,6.8465,6.8136,6.7926,6.7537,6.7148,6.6999,6.7059,6.7178,6.7178,6.7328,6.7508,6.8046,6.7747,6.7657,6.8585,6.8136,6.7358,4.6968,4.6979,4.6502,4.6326,4.6351,4.6828,4.7606,4.8485,4.8008,4.7857,4.7908,4.7908,4.7908,4.7908,4.7908,4.7883,4.7782,4.7782,4.7757,4.7682,4.7757,4.7807,4.7832,4.8385,4.8686,4.8875,4.9238,4.9515,4.959,4.959,4.959,4.9654,4.959,4.9783,5.0129,5.0879,5.158,5.2201,5.2289,5.2815,5.3872,5.3598,5.3721,5.427,5.3494,5.3521,5.4467,5.4642,5.4338,5.3485,5.5178,5.5961,5.5339,5.6362,5.7131,5.7328,5.6709,5.6265,5.5961,5.5298,5.4692,5.4364,5.5921,5.6218,5.4531,5.4717,5.5327,5.6097,5.5905,5.612,5.7573,5.7171,5.7009,5.7423,5.6712,5.6235,5.6474,5.7056,5.7571,5.7992,5.9487,6.0253,6.0034,5.9808,5.9571,5.9417,5.9175,5.8638,5.9284,6.08,6.2641,6.411,6.5402,6.6642,6.7916,6.8585,6.9064,6.9004,6.8974,6.8675,6.8226,6.7986,6.7687,6.7119,6.7508,6.7807,6.7837,6.8345,6.8615,6.8824,6.8675,6.8734,6.9093,6.8854,6.8495,4.7068,4.7018,4.6552,4.6326,4.6376,4.7205,4.8008,4.8761,4.8812,4.8812,4.8812,4.8812,4.8837,4.8812,4.8812,4.8636,4.8385,4.8385,4.8209,4.7933,4.8234,4.8385,4.8435,4.8962,4.9213,4.9238,4.9464,4.959,4.959,4.959,4.959,4.959,4.959,4.9783,5.0129,5.0832,5.1279,5.1407,5.1951,5.2615,5.3386,5.2896,5.3054,5.3953,5.3309,5.3476,5.469,5.5024,5.5163,5.5054,5.6334,5.7196,5.7279,5.7456,5.7858,5.8436,5.7334,5.6396,5.5825,5.4878,5.4381,5.4407,5.5565,5.6046,5.5246,5.6573,5.7274,5.7052,5.6804,5.6672,5.6824,5.6595,5.6531,5.6851,5.6416,5.6211,5.6335,5.6622,5.6949,5.7205,5.7804,5.8336,5.8648,5.8285,5.8181,5.8363,5.8125,5.7976,5.8126,5.9217,6.1194,6.369,6.5535,6.7188,6.8717,6.9602,6.9991,7.0021,6.9752,6.9453,6.9064,6.8824,6.8435,6.8166,6.8345,6.8495,6.8525,6.8764,6.9093,6.9453,6.9183,6.9243,6.9752,6.9782,6.9303,4.7244,4.7255,4.6577,4.6451,4.6753,4.7707,4.8435,4.8987,4.9414,4.959,4.959,4.959,4.959,4.959,4.959,4.9364,4.9012,4.8962,4.8711,4.836,4.8761,4.8962,4.9012,4.9515,4.9715,4.964,4.9715,4.9715,4.9615,4.959,4.959,4.959,4.959,4.9859,5.0307,5.0608,5.0887,5.1119,5.1936,5.2554,5.3023,5.2438,5.2583,5.3458,5.3078,5.3443,5.4728,5.5356,5.5964,5.675,5.7686,5.8316,5.8493,5.8024,5.7856,5.8039,5.6926,5.5885,5.5255,5.4439,5.4084,5.4582,5.5434,5.5972,5.6206,5.7922,5.8664,5.7711,5.7356,5.6931,5.6235,5.6238,5.6449,5.6271,5.6364,5.6354,5.6261,5.6319,5.6394,5.6394,5.652,5.687,5.7123,5.7349,5.7675,5.8228,5.8252,5.8252,5.8252,5.8479,6.0094,6.279,6.5246,6.6979,6.9027,7.0181,7.0639,7.0889,7.05,7.0141,6.9901,6.9482,6.9153,6.9004,6.9093,6.9213,6.9213,6.9393,6.9662,7.0081,6.9871,6.9812,7.056,7.047,6.9901,4.7832,4.7682,4.6728,4.6878,4.7757,4.841,4.8987,4.949,4.959,4.959,4.959,4.959,4.959,4.959,4.959,4.9565,4.949,4.9515,4.9464,4.9414,4.949,4.9515,4.954,5.0067,5.0067,4.9715,5.0067,5.0017,4.9665,4.964,4.9615,4.959,4.959,5.0021,5.071,5.0615,5.0892,5.1702,5.2009,5.2076,5.2017,5.27,5.31,5.3151,5.3326,5.4141,5.5545,5.6686,5.7685,5.8581,5.9915,5.9859,5.8104,5.7718,5.7024,5.5632,5.5229,5.4847,5.4727,5.4603,5.4511,5.4678,5.5751,5.6546,5.6888,5.7986,5.8211,5.7115,5.6292,5.601,5.5711,5.5699,5.5705,5.5669,5.6006,5.6191,5.6269,5.6646,5.6947,5.6873,5.7349,5.775,5.7826,5.8202,5.8704,5.9106,5.9156,5.9156,5.9182,5.9258,5.9846,6.2043,6.3748,6.5348,6.7248,6.9171,7.0373,7.0824,7.0859,7.059,7.0201,6.9991,6.9752,6.9512,6.9542,6.9871,6.9991,7.029,7.0649,7.062,7.062,7.0709,7.0889,7.0829,7.032,4.7908,4.7807,4.6753,4.6928,4.7933,4.8535,4.9088,4.959,4.959,4.959,4.959,4.959,4.959,4.959,4.959,4.959,4.959,4.959,4.959,4.959,4.959,4.9766,5.0067,4.9941,4.9967,5.0042,4.9992,4.9992,5.0117,5.0419,5.0594,5.0594,5.0594,5.0786,5.1144,5.1314,5.1615,5.1976,5.2598,5.2818,5.2505,5.2793,5.3123,5.3419,5.4004,5.4853,5.5952,5.7161,5.7874,5.7935,5.8455,5.8232,5.6789,5.6215,5.5827,5.5419,5.4961,5.4816,5.506,5.5039,5.5189,5.5516,5.6065,5.6397,5.654,5.6939,5.7014,5.6581,5.6678,5.6461,5.5727,5.5775,5.5867,5.5942,5.6369,5.6696,5.6721,5.7198,5.7549,5.7575,5.775,5.8052,5.8378,5.8855,5.9232,5.9458,5.9508,5.9508,5.9508,5.9508,5.9792,6.0634,6.1905,6.4154,6.6725,6.9111,7.0206,7.0563,7.0759,7.0739,7.0555,7.053,7.041,7.0111,7.029,7.047,7.053,7.0649,7.0919,7.0919,7.0919,7.0919,7.0919,7.0919,7.062,4.8008,4.8008,4.728,4.7431,4.8184,4.8761,4.9213,4.9565,4.959,4.959,4.959,4.959,4.959,4.959,4.959,4.959,4.959,4.959,4.959,4.9615,4.9741,5.0042,5.0368,5.0218,5.0193,5.0318,5.0017,5.0042,5.0444,5.0996,5.1272,5.1272,5.1272,5.1348,5.1523,5.1925,5.2176,5.2352,5.3027,5.3204,5.2929,5.2861,5.3067,5.341,5.4039,5.4799,5.5494,5.6622,5.7183,5.7032,5.7082,5.6823,5.609,5.5432,5.5232,5.5521,5.5101,5.5039,5.5566,5.5616,5.5792,5.6143,5.6219,5.6294,5.6394,5.6445,5.652,5.6742,5.7286,5.7103,5.611,5.6344,5.6646,5.6696,5.7072,5.7273,5.7298,5.7775,5.8127,5.8127,5.8328,5.8478,5.888,5.9232,5.9483,5.9483,5.9508,5.9508,5.9508,5.9508,5.9483,5.956,6.0862,6.3025,6.6188,6.7604,6.8885,6.9774,6.9877,7.0009,7.0337,7.0468,7.0889,7.056,7.0829,7.0889,7.0799,7.0859,7.0919,7.0919,7.0919,7.0919,7.0919,7.0919,7.0919,4.8234,4.8749,4.8661,4.8611,4.8761,4.9289,4.954,4.959,4.959,4.959,4.959,4.959,4.959,4.959,4.959,4.959,4.959,4.959,4.959,4.964,5.0117,5.0393,5.0444,5.0946,5.0921,5.0594,5.0444,5.0444,5.0519,5.1046,5.1272,5.1322,5.1373,5.1599,5.2,5.2126,5.2377,5.2804,5.2929,5.2929,5.2929,5.2861,5.2955,5.2998,5.3067,5.358,5.4196,5.4787,5.564,5.6585,5.6759,5.6682,5.6252,5.5898,5.5581,5.5471,5.5387,5.5591,5.6068,5.6118,5.6168,5.6219,5.6269,5.6445,5.6872,5.6972,5.7198,5.7725,5.78,5.7598,5.7097,5.7349,5.7675,5.77,5.7801,5.7851,5.7876,5.8328,5.8654,5.873,5.9031,5.9257,5.9408,5.9483,5.9508,5.9508,5.9508,5.9508,5.9508,5.9508,5.9508,5.9792,6.0736,6.2461,6.4382,6.5667,6.6496,6.7496,6.8276,6.8519,6.9153,6.9781,7.0337,7.0759,7.0563,7.0563,7.0759,7.0919,7.0919,7.0919,7.0919,7.0919,7.0919,7.0919,7.0919,4.836,4.8259,4.8611,4.8786,4.8837,4.9364,4.959,4.959,4.959,4.959,4.959,4.959,4.959,4.959,4.959,4.959,4.959,4.959,4.959,4.9665,5.0167,5.0619,5.0971,5.1197,5.1398,5.1448,5.1147,5.1172,5.1523,5.2076,5.2327,5.2327,5.2327,5.2452,5.2603,5.2628,5.2754,5.2929,5.3231,5.3281,5.303,5.3256,5.3281,5.2955,5.3768,5.4381,5.464,5.5656,5.6275,5.6106,5.6187,5.607,5.5765,5.5943,5.5943,5.5915,5.5917,5.5993,5.6168,5.6219,5.6219,5.6244,5.6545,5.6821,5.7047,5.7374,5.7675,5.7901,5.8252,5.8278,5.8152,5.8001,5.7901,5.7951,5.8227,5.8428,5.8529,5.888,5.9207,5.9232,5.9408,5.9483,5.9508,5.9508,5.9508,5.9508,5.9508,5.9508,5.9508,5.9508,5.9508,5.956,5.9997,6.0964,6.2535,6.4048,6.5198,6.5907,6.6706,6.7496,6.818,6.8383,6.8885,6.9744,6.981,6.9715,6.9913,7.0694,7.0694,7.0919,7.0919,7.0919,7.0919,7.0919,7.0919,4.8686,4.8309,4.8812,4.9038,4.9063,4.9439,4.959,4.959,4.959,4.959,4.959,4.959,4.959,4.959,4.959,4.959,4.959,4.959,4.959,4.964,5.0167,5.072,5.1197,5.1272,5.1574,5.1975,5.1724,5.1749,5.2126,5.2678,5.2861,5.2836,5.2861,5.2861,5.2955,5.308,5.3181,5.3256,5.3532,5.3582,5.3482,5.3607,5.3532,5.3369,5.4091,5.4464,5.4376,5.5351,5.5721,5.5261,5.5418,5.5695,5.571,5.6018,5.6219,5.6219,5.6219,5.6219,5.6219,5.6219,5.6294,5.647,5.6821,5.7148,5.7524,5.7951,5.8202,5.8453,5.8704,5.8981,5.8905,5.8629,5.8428,5.8453,5.8755,5.8956,5.8981,5.9282,5.9458,5.9458,5.9483,5.9508,5.9508,5.9508,5.9508,5.9508,5.9508,5.9508,5.9508,5.9508,5.9508,5.9508,5.956,5.9997,6.0888,6.1891,6.3199,6.4075,6.4769,6.5766,6.6775,6.7081,6.7564,6.8509,6.8914,6.8885,6.9286,7.014,7.0629,7.0759,7.0919,7.0919,7.0919,7.0919,7.0919,4.9264,4.8887,4.9364,4.954,4.9515,4.9565,4.959,4.959,4.959,4.959,4.959,4.959,4.959,4.959,4.959,4.959,4.959,4.959,4.964,4.9741,5.0218,5.0795,5.1322,5.1448,5.1724,5.2176,5.2126,5.2126,5.2226,5.2678,5.2861,5.2861,5.2861,5.2955,5.2886,5.3406,5.3658,5.3683,5.3783,5.4009,5.4411,5.4059,5.3833,5.3733,5.3847,5.3715,5.3099,5.364,5.4006,5.4068,5.4879,5.5663,5.6043,5.6194,5.6219,5.6269,5.6244,5.6219,5.6244,5.6244,5.6445,5.6846,5.7047,5.7549,5.8328,5.8654,5.888,5.9207,5.9357,5.9458,5.9433,5.9357,5.9332,5.9458,5.9382,5.9408,5.9433,5.9483,5.9508,5.9508,5.9508,5.9508,5.9508,5.9508,5.9508,5.9508,5.9508,5.9508,5.9508,5.9508,5.9508,5.9508,5.9508,5.9714,5.9637,5.9714,6.0913,6.1943,6.2635,6.3492,6.4769,6.5368,6.6076,6.6943,6.7867,6.7907,6.7878,6.8788,7.0009,7.0272,7.0563,7.0759,7.0919,7.0919,7.0919,4.949,4.9364,4.9515,4.959,4.959,4.959,4.959,4.959,4.959,4.959,4.959,4.959,4.959,4.959,4.959,4.959,4.959,4.9615,4.9791,5.0218,5.0745,5.1272,5.1825,5.2226,5.2503,5.2653,5.2678,5.2678,5.2678,5.2854,5.2861,5.2861,5.2861,5.313,5.3432,5.3632,5.3708,5.3783,5.4486,5.4612,5.4135,5.4587,5.4687,5.4336,5.431,5.421,5.4059,5.3833,5.3909,5.4285,5.4988,5.5641,5.6093,5.6219,5.6394,5.6696,5.6394,5.642,5.6671,5.642,5.6445,5.6972,5.7374,5.7951,5.8629,5.9056,5.9307,5.9483,5.9508,5.9508,5.9508,5.9508,5.9508,5.9508,5.9508,5.9508,5.9508,5.9508,5.9508,5.9508,5.9508,5.9508,5.9508,5.9508,5.9508,5.9508,5.9508,5.9508,5.9508,5.9508,5.9508,5.9508,5.9508,5.9508,5.9508,5.9508,6.0099,6.0837,6.1342,6.204,6.3125,6.3857,6.4581,6.5225,6.6216,6.6706,6.6747,6.7507,6.8654,6.9582,6.9715,7.014,7.0694,7.0919,7.0919,4.959,4.959,4.959,4.959,4.959,4.959,4.959,4.964,4.9816,4.9791,4.9665,4.9816,4.9766,4.9615,4.959,4.959,4.9615,4.9791,5.0193,5.067,5.082,5.1373,5.2076,5.2678,5.2861,5.2861,5.2861,5.2861,5.2861,5.2861,5.2861,5.2861,5.2861,5.3181,5.3658,5.3733,5.3858,5.4336,5.4813,5.4938,5.4787,5.5139,5.5239,5.4913,5.4888,5.4762,5.4587,5.4386,5.4486,5.4888,5.539,5.5867,5.6168,5.6219,5.6445,5.6796,5.6595,5.6445,5.6823,5.652,5.657,5.7223,5.77,5.8252,5.8855,5.9357,5.9483,5.9508,5.9508,5.9508,5.9508,5.9508,5.9508,5.9508,5.9508,5.9508,5.9508,5.9508,5.9508,5.9508,5.9508,5.9508,5.9508,5.9508,5.9508,5.9508,5.9508,5.9508,5.9508,5.9508,5.9508,5.9508,5.9508,5.9508,5.9508,5.9508,5.9508,5.9946,6.038,6.1165,6.2115,6.2413,6.2904,6.3272,6.4075,6.4265,6.4382,6.6048,6.7329,6.7975,6.8683,6.9582,7.0206,7.0759,7.0889,4.959,4.959,4.959,4.959,4.9615,4.9665,4.9715,4.9741,5.0142,5.0092,4.9866,5.0042,5.0017,4.9665,4.959,4.959,4.969,5.0117,5.0645,5.0971,5.0971,5.1272,5.2226,5.2729,5.2861,5.2861,5.2861,5.2861,5.2861,5.2861,5.2861,5.2861,5.2886,5.3181,5.3607,5.3708,5.4185,5.4913,5.4838,5.5164,5.5892,5.5691,5.5465,5.544,5.5415,5.5239,5.4938,5.5164,5.539,5.5491,5.5892,5.6194,5.6269,5.6269,5.6545,5.6998,5.657,5.6595,5.6796,5.652,5.6671,5.765,5.7876,5.8353,5.9232,5.9458,5.9508,5.9508,5.9508,5.9508,5.9508,5.9508,5.9508,5.9508,5.9508,5.9508,5.9508,5.9508,5.9508,5.9508,5.9508,5.9508,5.9508,5.9508,5.9508,5.9508,5.9508,5.9508,5.9508,5.9508,5.9508,5.9508,5.9508,5.9508,5.9508,5.9508,5.9508,5.9637,5.9869,6.038,6.0964,6.1165,6.124,6.1617,6.219,6.2264,6.2683,6.4337,6.5553,6.6258,6.7301,6.8721,6.9516,6.9943,7.0349,4.959,4.959,4.959,4.959,4.9665,5.0017,5.0193,5.0193,5.0343,5.0343,5.0167,4.9916,4.9766,4.9615,4.959,4.959,4.9766,5.0193,5.072,5.1272,5.1599,5.2026,5.2603,5.2829,5.2861,5.2861,5.2861,5.2861,5.2861,5.2861,5.2861,5.2861,5.2861,5.3181,5.3632,5.3708,5.4059,5.4737,5.5089,5.5265,5.5591,5.5917,5.5993,5.5993,5.5968,5.5892,5.5767,5.5917,5.5993,5.5993,5.6118,5.642,5.6771,5.6821,5.7047,5.7424,5.7123,5.6846,5.6897,5.6545,5.6796,5.7725,5.7951,5.8378,5.9382,5.9508,5.9508,5.9508,5.9508,5.9508,5.9508,5.9508,5.9508,5.9508,5.9508,5.9508,5.9508,5.9508,5.9508,5.9508,5.9508,5.9508,5.9508,5.9508,5.9508,5.9508,5.9508,5.9508,5.9508,5.9508,5.9508,5.9508,5.9508,5.9508,5.9508,5.9508,5.9508,5.9508,5.9637,5.9714,6.0022,6.0074,6.0074,6.015,6.124,6.1542,6.1767,6.2535,6.3465,6.4526,6.5313,6.637,6.7742,6.8451,6.906,4.959,4.959,4.959,4.959,4.9665,5.0167,5.0419,5.0469,5.0695,5.0619,5.0393,5.0092,4.9816,4.9615,4.959,4.9741,4.9992,5.0519,5.1096,5.1649,5.2176,5.2603,5.2879,5.2861,5.2861,5.2861,5.2861,5.2861,5.2861,5.2861,5.2861,5.2861,5.2861,5.3206,5.3683,5.3733,5.411,5.4813,5.5239,5.5465,5.5742,5.6043,5.6168,5.6219,5.6219,5.6219,5.6219,5.642,5.6545,5.6545,5.6595,5.6821,5.7323,5.7399,5.7549,5.7876,5.7374,5.7022,5.6997,5.6721,5.6997,5.7725,5.8052,5.8654,5.9282,5.9508,5.9508,5.9508,5.9508,5.9508,5.9508,5.9508,5.9508,5.9508,5.9508,5.9508,5.9508,5.9508,5.9508,5.9508,5.9508,5.9508,5.9508,5.9508,5.9508,5.9508,5.9508,5.9508,5.9508,5.9508,5.9508,5.9508,5.9508,5.9508,5.9508,5.9508,5.9508,5.9508,5.9508,5.9508,5.9508,5.9508,5.956,5.9792,6.0457,6.0888,6.0964,6.1165,6.1816,6.2683,6.3245,6.4238,6.5766,6.6842,6.7448,4.959,4.959,4.959,4.959,4.969,5.0243,5.0494,5.0519,5.0996,5.0921,5.0469,5.0343,4.9967,4.9615,4.9741,4.9941,5.0444,5.1046,5.1649,5.2176,5.2628,5.2836,5.2836,5.2861,5.2861,5.2861,5.2861,5.2861,5.2861,5.2861,5.2861,5.2861,5.2861,5.3155,5.3482,5.3658,5.4285,5.5013,5.529,5.5641,5.6018,5.6194,5.6219,5.6219,5.6219,5.6219,5.6344,5.6671,5.7022,5.7123,5.7123,5.7424,5.7876,5.7951,5.7876,5.7775,5.7374,5.7047,5.7047,5.6997,5.7298,5.7951,5.8453,5.893,5.9357,5.9508,5.9508,5.9508,5.9508,5.9508,5.9508,5.9508,5.9508,5.9508,5.9508,5.9508,5.9508,5.9508,5.9508,5.9508,5.9508,5.9508,5.9508,5.9508,5.9508,5.9508,5.9508,5.9508,5.9508,5.9508,5.9508,5.9508,5.9508,5.9508,5.9508,5.9508,5.9508,5.9508,5.9508,5.9508,5.9508,5.9508,5.9508,5.9714,6.0074,6.015,5.9946,6.0227,6.0736,6.1089,6.1741,6.2951,6.4283,6.4922,6.5558,4.959,4.959,4.959,4.959,4.9766,5.0645,5.082,5.0494,5.1021,5.0921,5.0419,4.9967,4.9741,4.9615,4.9992,5.0318,5.0594,5.1448,5.2226,5.2729,5.2829,5.2861,5.2861,5.2861,5.2861,5.2861,5.2861,5.2861,5.2861,5.2861,5.2861,5.2861,5.2861,5.2911,5.3155,5.3632,5.4009,5.4712,5.5189,5.5691,5.6093,5.6219,5.6219,5.6219,5.6219,5.6219,5.6319,5.6746,5.7248,5.7575,5.775,5.7976,5.8353,5.8152,5.7951,5.7775,5.7399,5.7072,5.7047,5.7123,5.7474,5.8378,5.8679,5.8956,5.9433,5.9508,5.9508,5.9508,5.9508,5.9508,5.9508,5.9508,5.9508,5.9508,5.9508,5.9508,5.9508,5.9508,5.9508,5.9508,5.9508,5.9508,5.9508,5.9508,5.9508,5.9508,5.9508,5.9508,5.9508,5.9508,5.9508,5.9508,5.9508,5.9508,5.9508,5.9508,5.9508,5.9508,5.9508,5.9508,5.9508,5.9508,5.9508,5.9508,5.956,5.9508,5.9508,5.956,6.0074,6.0227,6.0355,6.1365,6.2381,6.297,6.381,4.959,4.959,4.959,4.9741,5.0067,5.0619,5.087,5.082,5.082,5.072,5.0343,4.9841,4.9615,4.964,5.0167,5.0519,5.1046,5.195,5.2628,5.2879,5.2861,5.2861,5.2861,5.2861,5.2861,5.2861,5.2861,5.2861,5.2861,5.2861,5.2861,5.2861,5.2861,5.3105,5.3356,5.3833,5.4411,5.4988,5.5491,5.5942,5.6168,5.6219,5.6219,5.6219,5.6219,5.6219,5.6244,5.6746,5.7148,5.7524,5.8001,5.8504,5.888,5.8579,5.8202,5.7876,5.765,5.7273,5.7173,5.7549,5.8102,5.8679,5.893,5.9182,5.9433,5.9508,5.9508,5.9508,5.9508,5.9508,5.9508,5.9508,5.9508,5.9508,5.9508,5.9508,5.9508,5.9508,5.9508,5.9508,5.9508,5.9508,5.9508,5.9508,5.9508,5.9508,5.9508,5.9508,5.9508,5.9508,5.9508,5.9508,5.9508,5.9508,5.9508,5.9508,5.9508,5.9508,5.9508,5.9508,5.9508,5.9508,5.9508,5.9508,5.9508,5.9508,5.9508,5.9508,5.9508,5.9714,5.992,6.015,6.0608,6.1682,6.2425,4.9525,4.959,4.959,4.9916,5.0368,5.0419,5.0695,5.0996,5.0645,5.0393,5.0218,4.9791,4.959,4.9715,5.0167,5.0745,5.1498,5.2176,5.2703,5.2904,5.2861,5.2861,5.2861,5.2861,5.2861,5.2861,5.2861,5.2861,5.2861,5.2861,5.2861,5.2861,5.2861,5.3181,5.3683,5.426,5.4762,5.529,5.5842,5.6143,5.6194,5.6219,5.6219,5.6219,5.6219,5.6219,5.6319,5.6696,5.7047,5.7097,5.8052,5.873,5.9006,5.8855,5.8353,5.7801,5.7625,5.7499,5.7499,5.8052,5.8679,5.8805,5.9207,5.9433,5.9483,5.9508,5.9508,5.9508,5.9508,5.9508,5.9508,5.9508,5.9508,5.9508,5.9508,5.9508,5.9508,5.9508,5.9508,5.9508,5.9508,5.9508,5.9508,5.9508,5.9508,5.9508,5.9508,5.9508,5.9508,5.9508,5.9508,5.9508,5.9508,5.9508,5.9508,5.9508,5.9508,5.9508,5.9508,5.9508,5.9508,5.9508,5.9508,5.9508,5.9508,5.9508,5.9508,5.9508,5.9508,5.9508,5.956,5.9792,6.0202,6.0608,6.1178,4.9332,4.959,4.959,4.9916,5.0368,5.0393,5.0469,5.0544,5.0469,5.0142,4.9766,4.964,4.959,4.9741,5.0167,5.0971,5.1774,5.2251,5.2553,5.2854,5.2861,5.2861,5.2861,5.2861,5.2861,5.2861,5.2861,5.2861,5.2861,5.2861,5.2861,5.2861,5.2861,5.3206,5.3783,5.4285,5.4863,5.5465,5.5968,5.6194,5.6219,5.6219,5.6219,5.6219,5.6219,5.6219,5.6319,5.6721,5.7047,5.7097,5.7675,5.8001,5.8127,5.8052,5.7775,5.7474,5.7349,5.7449,5.7801,5.8353,5.8905,5.9257,5.9433,5.9483,5.9508,5.9508,5.9508,5.9508,5.9508,5.9508,5.9508,5.9508,5.9508,5.9508,5.9508,5.9508,5.9508,5.9508,5.9508,5.9508,5.9508,5.9508,5.9508,5.9508,5.9508,5.9508,5.9508,5.9508,5.9508,5.9508,5.9508,5.9508,5.9508,5.9508,5.9508,5.9508,5.9508,5.9508,5.9508,5.9508,5.9508,5.9508,5.9508,5.9508,5.9508,5.9508,5.9508,5.9508,5.9508,5.9508,5.9508,5.9508,5.9818,6.0151,6.0582,4.9332,4.959,4.959,4.9916,5.0318,5.0092,5.0167,5.0368,5.0117,4.9841,4.9665,4.959,4.959,4.9741,5.0167,5.1046,5.185,5.2101,5.2427,5.2829,5.2861,5.2861,5.2861,5.2861,5.2861,5.2861,5.2861,5.2861,5.2861,5.2861,5.2861,5.2861,5.2861,5.3331,5.4009,5.4436,5.5039,5.5666,5.6068,5.6219,5.6219,5.6219,5.6219,5.6219,5.6219,5.6219,5.6269,5.6394,5.6595,5.6696,5.7148,5.7223,5.7223,5.7323,5.7474,5.7474,5.7474,5.7725,5.8278,5.8805,5.9232,5.9433,5.9508,5.9508,5.9508,5.9508,5.9508,5.9508,5.9508,5.9508,5.9508,5.9508,5.9508,5.9508,5.9508,5.9508,5.9508,5.9508,5.9508,5.9508,5.9508,5.9508,5.9508,5.9508,5.9508,5.9508,5.9508,5.9508,5.9508,5.9508,5.9508,5.9508,5.9508,5.9508,5.9508,5.9508,5.9508,5.9508,5.9508,5.9508,5.9508,5.9508,5.9508,5.9508,5.9508,5.9508,5.9508,5.9508,5.9508,5.9508,5.9508,5.9483,5.9433,5.9691,6.0125,4.9202,4.959,4.959,4.9992,5.0419,4.9866,4.9992,5.0368,4.9891,4.9615,4.959,4.959,4.959,4.9715,5.0117,5.0845,5.1875,5.1925,5.2277,5.2829,5.2861,5.2861,5.2861,5.2861,5.2861,5.2861,5.2861,5.2861,5.2861,5.2861,5.2861,5.298,5.3005,5.3557,5.4361,5.4783,5.5365,5.5892,5.6219,5.6219,5.6219,5.6219,5.6219,5.6219,5.6219,5.6219,5.6219,5.6244,5.6269,5.6369,5.6595,5.6746,5.6545,5.6796,5.7349,5.7901,5.7951,5.8202,5.8654,5.9156,5.9433,5.9508,5.9508,5.9508,5.9508,5.9508,5.9508,5.9508,5.9508,5.9508,5.9508,5.9508,5.9508,5.9508,5.9508,5.9508,5.9508,5.9508,5.9508,5.9508,5.9508,5.9508,5.9508,5.9508,5.9508,5.9508,5.9508,5.9508,5.9508,5.9508,5.9508,5.9508,5.9508,5.9508,5.9508,5.9508,5.9508,5.9508,5.9508,5.9508,5.9508,5.9508,5.9508,5.9508,5.9508,5.9508,5.9508,5.9508,5.9508,5.9508,5.9508,5.9483,5.9458,5.9458,5.9716,4.9032,4.959,4.959,5.0218,5.0896,5.0042,5.0218,5.0971,5.0067,4.9615,4.9665,4.9525,4.9461,4.9511,4.969,5.0393,5.1147,5.1574,5.2076,5.2829,5.2861,5.2861,5.2861,5.2861,5.2861,5.2861,5.2861,5.2861,5.2861,5.2861,5.2886,5.303,5.3406,5.3959,5.4637,5.5013,5.5616,5.6093,5.6219,5.6219,5.6219,5.6219,5.6219,5.6219,5.6219,5.6219,5.6219,5.6219,5.6219,5.6219,5.6269,5.652,5.6846,5.6898,5.7625,5.8127,5.8278,5.8152,5.873,5.9232,5.9508,5.9508,5.9508,5.9508,5.9508,5.9508,5.9508,5.9508,5.9508,5.9508,5.9508,5.9508,5.9508,5.9508,5.9508,5.9508,5.9508,5.9508,5.9508,5.9508,5.9508,5.9508,5.9508,5.9508,5.9508,5.9508,5.9508,5.9508,5.9508,5.9508,5.9508,5.9508,5.9508,5.9508,5.9508,5.9508,5.9508,5.9508,5.9508,5.9508,5.9508,5.9508,5.9508,5.9508,5.9508,5.9508,5.9508,5.9508,5.9508,5.9508,5.9508,5.9508,5.9483,5.9508,5.9508,4.7936,4.9332,4.9332,4.9846,5.0695,5.0243,5.0519,5.0996,5.0419,5.0067,4.9771,4.8756,4.8371,4.8706,4.9411,5.0519,5.1222,5.1574,5.2151,5.2779,5.2861,5.2861,5.2861,5.2861,5.2861,5.2861,5.2861,5.2861,5.2861,5.2911,5.303,5.3381,5.3632,5.4185,5.4888,5.5265,5.5691,5.6043,5.6219,5.6219,5.6219,5.6219,5.6219,5.6219,5.6219,5.6219,5.6219,5.6219,5.6219,5.6219,5.6219,5.647,5.6872,5.7123,5.7524,5.8529,5.8529,5.8629,5.9106,5.9382,5.9458,5.9508,5.9508,5.9508,5.9508,5.9508,5.9508,5.9508,5.9508,5.9508,5.9508,5.9508,5.9508,5.9508,5.9508,5.9508,5.9508,5.9508,5.9508,5.9508,5.9508,5.9508,5.9508,5.9508,5.9508,5.9508,5.9508,5.9508,5.9508,5.9508,5.9508,5.9508,5.9508,5.9508,5.9508,5.9508,5.9508,5.9508,5.9508,5.9508,5.9508,5.9508,5.9508,5.9508,5.9508,5.9508,5.9508,5.9508,5.9508,5.9508,5.9508,5.9508,5.9508,5.9508,5.956,4.6268,4.7689,4.7911,4.8763,5.0041,4.9942,5.0489,5.1373,5.0695,5.0393,4.9981,4.8838,4.8092,4.8419,4.9784,5.0795,5.1523,5.1925,5.2427,5.2779,5.2861,5.2861,5.2861,5.2861,5.2861,5.2861,5.2861,5.2861,5.2911,5.3105,5.3356,5.3708,5.3884,5.4461,5.5164,5.5566,5.5892,5.6143,5.6219,5.6219,5.6219,5.6219,5.6219,5.6219,5.6219,5.6219,5.6219,5.642,5.6445,5.6219,5.662,5.6972,5.7273,5.7575,5.8027,5.878,5.8905,5.9056,5.9307,5.9483,5.9508,5.9508,5.9508,5.9508,5.9508,5.9508,5.9508,5.9508,5.9508,5.9508,5.9508,5.9508,5.9508,5.9508,5.9508,5.9508,5.9508,5.9508,5.9508,5.9508,5.9508,5.9508,5.9508,5.9508,5.9508,5.9508,5.9508,5.9508,5.9508,5.9508,5.9508,5.9508,5.9508,5.9508,5.9508,5.9508,5.9508,5.9508,5.9508,5.9508,5.9508,5.9508,5.9508,5.9508,5.9508,5.9508,5.9508,5.9508,5.9508,5.9508,5.9508,5.9508,5.9508,5.9508,5.956,4.3863,4.407,4.4664,4.6604,4.9189,4.8638,4.9885,5.1925,5.0896,5.0353,4.9981,4.9631,4.937,4.994,5.0149,5.1055,5.1933,5.2076,5.2477,5.2804,5.2861,5.2861,5.2861,5.2861,5.2861,5.2861,5.2861,5.2861,5.3055,5.3406,5.3582,5.3758,5.431,5.4838,5.539,5.5842,5.6018,5.6219,5.6219,5.6219,5.6219,5.6219,5.6219,5.6219,5.6219,5.6219,5.6219,5.657,5.662,5.6269,5.6947,5.7499,5.7675,5.8102,5.8654,5.9131,5.9307,5.9382,5.9483,5.9508,5.9508,5.9508,5.9508,5.9508,5.9508,5.9508,5.9508,5.9508,5.9508,5.9508,5.9508,5.9508,5.9508,5.9508,5.9508,5.9508,5.9508,5.9508,5.9508,5.9508,5.9508,5.9508,5.9508,5.9508,5.9508,5.9508,5.9508,5.9508,5.9508,5.9508,5.9508,5.9508,5.9508,5.9508,5.9508,5.9508,5.9508,5.9508,5.9508,5.9508,5.9508,5.9508,5.9508,5.9508,5.9508,5.9508,5.9508,5.9508,5.9508,5.9508,5.9508,5.9508,5.9508,5.9508,5.9508,4.1509,4.0891,4.1176,4.421,4.8759,4.8499,5.0011,5.2166,5.1448,4.9967,4.8624,4.868,4.8385,4.8474,5.0528,5.1085,5.1009,5.2136,5.2566,5.2854,5.2861,5.2861,5.2861,5.2861,5.2861,5.2929,5.2929,5.313,5.3432,5.3708,5.4235,5.4612,5.4938,5.5365,5.5842,5.6068,5.6168,5.6219,5.6219,5.6219,5.6219,5.6219,5.6219,5.6219,5.6219,5.6219,5.6244,5.6394,5.6369,5.6495,5.7047,5.7524,5.7951,5.8453,5.8981,5.9408,5.9483,5.9508,5.9508,5.9508,5.9508,5.9508,5.9508,5.9508,5.9508,5.9508,5.9508,5.9508,5.9508,5.9508,5.9508,5.9508,5.9508,5.9508,5.9508,5.9508,5.9508,5.9508,5.9508,5.9508,5.9508,5.9508,5.9508,5.9508,5.9508,5.9508,5.9508,5.9508,5.9508,5.9508,5.9508,5.9508,5.9508,5.9508,5.9508,5.9508,5.9508,5.9508,5.9508,5.9508,5.9508,5.9508,5.9508,5.9508,5.9508,5.9508,5.9508,5.9508,5.9508,5.9508,5.9508,5.9508,5.9508,5.9508,5.9508,3.9714,3.903,3.903,4.2237,4.7167,4.77,4.9331,5.1393,5.0907,4.9401,4.734,4.7777,4.7661,4.7764,4.9487,5.0921,5.0607,5.1456,5.2347,5.2723,5.2861,5.2861,5.2861,5.2861,5.2861,5.2955,5.3155,5.3406,5.3658,5.4009,5.4612,5.5164,5.5566,5.5867,5.6043,5.6219,5.6219,5.6219,5.6219,5.6219,5.6219,5.6219,5.6219,5.6219,5.6219,5.6219,5.6294,5.6445,5.6445,5.662,5.7047,5.7625,5.8077,5.8529,5.9081,5.9357,5.9508,5.9508,5.9508,5.9508,5.9508,5.9508,5.9508,5.9508,5.9508,5.9508,5.9508,5.9508,5.9508,5.9508,5.9508,5.9508,5.9508,5.9508,5.9508,5.9508,5.9508,5.9508,5.9508,5.9508,5.9508,5.9508,5.9508,5.9508,5.9508,5.9508,5.9508,5.9508,5.9508,5.9508,5.9508,5.9508,5.9508,5.9508,5.9508,5.9508,5.9508,5.9508,5.9508,5.9508,5.9508,5.9508,5.9508,5.9508,5.9508,5.9508,5.9508,5.9508,5.9508,5.9508,5.9508,5.9508,5.9508,5.9508,5.9508,3.8647,3.8647,3.8667,4.1161,4.5037,4.5957,4.7468,4.9224,4.8998,4.814,4.6816,4.7241,4.7601,4.7934,4.8825,4.9368,4.9889,5.0457,5.1443,5.2327,5.2792,5.2861,5.2861,5.2861,5.3005,5.3055,5.3331,5.3607,5.3884,5.4637,5.5239,5.5541,5.5867,5.6118,5.6194,5.6219,5.6219,5.6219,5.6219,5.6219,5.6219,5.6219,5.6219,5.6219,5.6219,5.6219,5.6269,5.652,5.6495,5.6445,5.7575,5.8052,5.8001,5.888,5.9357,5.9483,5.9508,5.9508,5.9508,5.9508,5.9508,5.9508,5.9508,5.9508,5.9508,5.9508,5.9508,5.9508,5.9508,5.9508,5.9508,5.9508,5.9508,5.9508,5.9508,5.9508,5.9508,5.9508,5.9508,5.9508,5.9508,5.9508,5.9508,5.9508,5.9508,5.9508,5.9508,5.9508,5.9508,5.9508,5.9508,5.9508,5.9508,5.9508,5.9508,5.9508,5.9508,5.9508,5.9508,5.9508,5.9508,5.9508,5.9508,5.9508,5.9508,5.9508,5.9508,5.9508,5.9633,5.9759,5.9533,5.9508,5.9508,5.9508,5.9508,3.8574,3.8594,3.8887,4.0416,4.2677,4.3896,4.5649,4.7204,4.6375,4.555,4.5391,4.5357,4.5283,4.5845,4.7281,4.7984,4.7613,5.0127,5.1163,5.1443,5.2396,5.2792,5.2861,5.3005,5.313,5.3406,5.3708,5.4235,5.4863,5.5315,5.5641,5.5917,5.6068,5.6194,5.6219,5.6219,5.6219,5.6219,5.6219,5.6219,5.6219,5.6219,5.6219,5.6219,5.6219,5.6219,5.6219,5.6495,5.6394,5.6369,5.76,5.8052,5.8102,5.8905,5.9458,5.9508,5.9508,5.9508,5.9508,5.9508,5.9508,5.9508,5.9508,5.9508,5.9508,5.9508,5.9508,5.9508,5.9508,5.9508,5.9508,5.9508,5.9508,5.9508,5.9508,5.9508,5.9508,5.9508,5.9508,5.9508,5.9508,5.9508,5.9508,5.9508,5.9508,5.9508,5.9508,5.9508,5.9508,5.9508,5.9508,5.9508,5.9508,5.9508,5.9508,5.9508,5.9508,5.9508,5.9508,5.9508,5.9508,5.9508,5.9508,5.9508,5.9508,5.9508,5.9633,5.9784,5.9985,6.0035,5.991,5.9759,5.9759,5.9659,5.9508,3.8574,3.8613,3.8867,3.975,4.1135,4.2701,4.4387,4.5329,4.3918,4.3357,4.367,4.3781,4.3888,4.4525,4.6021,4.722,4.6411,4.9105,5.1233,5.1373,5.2352,5.2792,5.2886,5.3105,5.3381,5.3733,5.421,5.4737,5.5265,5.5566,5.5867,5.6093,5.6219,5.6219,5.6219,5.6219,5.6219,5.6219,5.6219,5.6219,5.6219,5.6219,5.6219,5.6219,5.6219,5.6219,5.6219,5.6219,5.6219,5.6545,5.7148,5.7876,5.8227,5.8805,5.9433,5.9508,5.9508,5.9508,5.9508,5.9508,5.9508,5.9508,5.9508,5.9508,5.9508,5.9508,5.9508,5.9508,5.9508,5.9508,5.9508,5.9508,5.9508,5.9508,5.9508,5.9508,5.9508,5.9508,5.9508,5.9508,5.9508,5.9508,5.9508,5.9508,5.9508,5.9508,5.9508,5.9508,5.9508,5.9508,5.9508,5.9508,5.9508,5.9508,5.9508,5.9508,5.9508,5.9508,5.9508,5.9508,5.9508,5.9508,5.9508,5.9508,5.9508,5.9608,5.991,6.0111,6.0462,6.0563,6.0462,6.0286,6.0085,5.9935,5.9784,3.8574,3.8574,3.8613,3.9214,4.0239,4.2261,4.3352,4.3307,4.2113,4.1792,4.2084,4.3036,4.3168,4.3742,4.574,4.6485,4.7124,4.9105,5.0576,5.198,5.2421,5.2629,5.3036,5.3312,5.3658,5.411,5.4612,5.5164,5.5465,5.5817,5.6118,5.6194,5.6219,5.6219,5.6219,5.6219,5.6219,5.6219,5.6219,5.6219,5.6219,5.6219,5.6219,5.6219,5.6219,5.6219,5.6219,5.6219,5.6269,5.6646,5.7273,5.775,5.8278,5.893,5.9307,5.9508,5.9508,5.9508,5.9508,5.9508,5.9508,5.9508,5.9508,5.9508,5.9508,5.9508,5.9508,5.9508,5.9508,5.9508,5.9508,5.9508,5.9508,5.9508,5.9508,5.9508,5.9508,5.9508,5.9508,5.9508,5.9508,5.9508,5.9508,5.9508,5.9508,5.9508,5.9508,5.9508,5.9508,5.9508,5.9508,5.9508,5.9508,5.9508,5.9508,5.9508,5.9508,5.9508,5.9508,5.9508,5.9508,5.9508,5.9508,5.9508,5.9558,5.9759,6.0261,6.0713,6.1115,6.114,6.114,6.0939,6.0788,6.0512,6.0337,3.8574,3.8633,3.9238,3.9668,4.0033,4.0883,4.1603,4.2004,4.1198,4.1002,4.1399,4.1641,4.1963,4.1959,4.2902,4.3456,4.4849,4.6537,4.7949,4.9557,5.1537,5.2352,5.2854,5.3203,5.3813,5.4436,5.5013,5.5591,5.5867,5.6168,5.6168,5.6219,5.6219,5.6219,5.6219,5.6219,5.6219,5.6219,5.6219,5.6219,5.6219,5.6219,5.6219,5.6219,5.6219,5.6219,5.6219,5.6219,5.6344,5.6872,5.7474,5.8001,5.8554,5.9106,5.9508,5.9508,5.9508,5.9508,5.9508,5.9508,5.9508,5.9508,5.9508,5.9508,5.9508,5.9508,5.9508,5.9508,5.9508,5.9508,5.9508,5.9508,5.9508,5.9508,5.9508,5.9508,5.9508,5.9508,5.9508,5.9508,5.9508,5.9508,5.9508,5.9508,5.9508,5.9508,5.9508,5.9508,5.9508,5.9508,5.9508,5.9508,5.9508,5.9508,5.9508,5.9508,5.9508,5.9508,5.9508,5.9508,5.9508,5.9508,5.9508,5.9709,6.0035,6.0412,6.0839,6.1291,6.1743,6.1943,6.1943,6.1692,6.1441,6.114,6.0788,3.8574,3.8672,3.9336,3.9805,4.0193,4.0344,4.096,4.1463,4.0798,4.0634,4.087,4.1087,4.115,4.1501,4.2427,4.3075,4.338,4.6019,4.749,4.8217,5.0246,5.0555,5.1364,5.2844,5.3626,5.429,5.5052,5.5767,5.5968,5.5942,5.5917,5.6219,5.6219,5.6219,5.6219,5.6219,5.6219,5.6219,5.6219,5.6219,5.6219,5.6219,5.6219,5.6219,5.6219,5.6219,5.6219,5.6219,5.652,5.7022,5.7575,5.8152,5.8679,5.9207,5.9483,5.9508,5.9508,5.9508,5.9508,5.9508,5.9508,5.9508,5.9508,5.9508,5.9508,5.9508,5.9508,5.9508,5.9508,5.9508,5.9508,5.9508,5.9508,5.9508,5.9508,5.9508,5.9508,5.9508,5.9508,5.9508,5.9508,5.9508,5.9508,5.9508,5.9508,5.9508,5.9508,5.9508,5.9508,5.9508,5.9508,5.9508,5.9508,5.9508,5.9508,5.9508,5.9508,5.9508,5.9508,5.9508,5.9533,5.9784,6.001,6.0337,6.0713,6.109,6.1466,6.1943,6.2345,6.2471,6.2496,6.232,6.2019,6.1743,6.1341,3.8594,3.8691,3.9121,3.9863,4.0508,4.0527,4.0953,4.1577,4.0785,4.0535,4.0759,4.1073,4.121,4.1463,4.2503,4.3151,4.3663,4.5351,4.6315,4.6904,4.9147,4.9839,5.0529,5.2019,5.3759,5.418,5.4794,5.5942,5.5616,5.5691,5.5968,5.6194,5.6219,5.6219,5.6219,5.6219,5.6219,5.6219,5.6219,5.6219,5.6219,5.6219,5.6219,5.6219,5.6219,5.6219,5.6219,5.6319,5.652,5.7097,5.7675,5.8278,5.883,5.9232,5.9433,5.9508,5.9508,5.9508,5.9508,5.9508,5.9508,5.9508,5.9508,5.9508,5.9508,5.9508,5.9508,5.9508,5.9508,5.9508,5.9508,5.9508,5.9508,5.9508,5.9508,5.9508,5.9508,5.9508,5.9508,5.9508,5.9508,5.9508,5.9508,5.9508,5.9508,5.9508,5.9508,5.9508,5.9508,5.9508,5.9508,5.9508,5.9508,5.9508,5.9508,5.9508,5.9508,5.9508,5.9508,5.9659,5.9784,6.0161,6.0588,6.0964,6.1316,6.1692,6.2094,6.2446,6.2647,6.2697,6.2722,6.2772,6.2596,6.227,6.1893,3.8769,3.9121,3.9883,4.0527,4.0937,4.0664,4.0858,4.1268,4.0759,4.0835,4.1363,4.1268,4.1172,4.1385,4.1753,4.2119,4.256,4.389,4.4473,4.5748,4.7778,4.9029,5.0136,5.238,5.4154,5.5057,5.5672,5.5995,5.582,5.5845,5.6018,5.6194,5.6219,5.6219,5.6219,5.6219,5.6219,5.6219,5.6219,5.6219,5.6219,5.6219,5.6219,5.6219,5.6219,5.6219,5.6319,5.662,5.7072,5.7675,5.8227,5.8755,5.9307,5.9433,5.9483,5.9508,5.9508,5.9508,5.9508,5.9508,5.9508,5.9508,5.9508,5.9508,5.9508,5.9508,5.9508,5.9508,5.9508,5.9508,5.9508,5.9508,5.9508,5.9508,5.9508,5.9508,5.9508,5.9508,5.9508,5.9508,5.9508,5.9508,5.9508,5.9508,5.9508,5.9508,5.9508,5.9508,5.9508,5.9508,5.9508,5.9508,5.9508,5.9508,5.9508,5.9508,5.9508,5.9558,5.9583,5.9784,6.006,6.0588,6.114,6.1542,6.1918,6.2195,6.2421,6.2647,6.2797,6.2822,6.2822,6.2822,6.2822,6.2571,6.2295,3.8828,3.9297,4.0156,4.0781,4.1074,4.0918,4.0957,4.1094,4.0918,4.1092,4.1443,4.1327,4.1172,4.1172,4.1172,4.125,4.1385,4.2273,4.2799,4.396,4.5847,4.7352,4.9508,5.1906,5.3275,5.4402,5.5183,5.5526,5.5699,5.5551,5.5624,5.607,5.6219,5.6219,5.6219,5.6219,5.6219,5.6219,5.6219,5.6219,5.6219,5.6219,5.6219,5.6219,5.6219,5.6219,5.6294,5.657,5.6922,5.76,5.8202,5.8905,5.9307,5.9483,5.9483,5.9508,5.9508,5.9508,5.9508,5.9508,5.9508,5.9508,5.9508,5.9508,5.9508,5.9508,5.9508,5.9508,5.9508,5.9508,5.9508,5.9508,5.9508,5.9508,5.9508,5.9508,5.9508,5.9508,5.9508,5.9508,5.9508,5.9508,5.9508,5.9508,5.9508,5.9508,5.9508,5.9508,5.9508,5.9508,5.9508,5.9508,5.9508,5.9508,5.9508,5.9508,5.9508,5.9558,5.9684,6.0337,6.0839,6.124,6.1667,6.2044,6.232,6.2496,6.2697,6.2797,6.2822,6.2822,6.2822,6.2822,6.2822,6.2822,6.2596,3.8848,3.9394,4.0195,4.0781,4.1133,4.1172,4.1172,4.1172,4.1152,4.1152,4.125,4.125,4.1172,4.1172,4.1463,4.1327,4.16,4.2376,4.2188,4.2406,4.4013,4.6271,4.8223,4.9949,5.1816,5.3389,5.4427,5.4939,5.5208,5.5208,5.5553,5.6022,5.6219,5.6219,5.6219,5.6219,5.6219,5.6219,5.6219,5.6219,5.6219,5.6219,5.6219,5.6219,5.6219,5.6219,5.6219,5.6394,5.662,5.7399,5.8303,5.8956,5.9332,5.9508,5.9508,5.9508,5.9508,5.9508,5.9508,5.9508,5.9508,5.9508,5.9508,5.9508,5.9508,5.9508,5.9508,5.9508,5.9508,5.9508,5.9508,5.9508,5.9508,5.9508,5.9508,5.9508,5.9508,5.9508,5.9508,5.9508,5.9508,5.9508,5.9508,5.9508,5.9508,5.9508,5.9508,5.9508,5.9508,5.9508,5.9508,5.9508,5.9508,5.9508,5.9508,5.9533,5.9558,5.9809,6.006,6.0914,6.1592,6.1893,6.2195,6.2521,6.2772,6.2747,6.2772,6.2822,6.2822,6.2822,6.2822,6.2822,6.2822,6.2822,6.2822,3.9043,3.9805,4.0312,4.0781,4.1133,4.1172,4.1172,4.1172,4.1172,4.1172,4.1172,4.1172,4.1172,4.125,4.258,4.2544,4.1542,4.2381,4.2327,4.2289,4.3875,4.6058,4.8077,4.9605,5.1186,5.2712,5.4083,5.4818,5.4769,5.5089,5.5483,5.5779,5.6146,5.6219,5.6219,5.6219,5.6219,5.6219,5.6219,5.6219,5.6219,5.6219,5.6219,5.6219,5.6219,5.6219,5.6319,5.6671,5.7148,5.7851,5.8579,5.9131,5.9433,5.9508,5.9508,5.9508,5.9508,5.9508,5.9508,5.9508,5.9508,5.9508,5.9508,5.9508,5.9508,5.9508,5.9508,5.9508,5.9508,5.9508,5.9508,5.9508,5.9508,5.9508,5.9508,5.9508,5.9508,5.9508,5.9508,5.9508,5.9508,5.9508,5.9508,5.9508,5.9508,5.9508,5.9508,5.9508,5.9508,5.9508,5.9508,5.9508,5.9508,5.9508,5.9508,5.9633,5.9709,5.9985,6.0437,6.1215,6.1893,6.2395,6.2697,6.2797,6.2822,6.2797,6.2822,6.2822,6.2822,6.2822,6.2822,6.2822,6.2822,6.2822,6.2822]}]]